[[{"header":{"parameterUnit":"m.s-1","parameterCategory":1,"la1":30.6,"la2":29.2853,"lo1":-89.7004,"lo2":-87.6739,"dy":0.0162,"dx":0.0183,"nx":112,"ny":82,"refTime":"2024-08-02T06:00:00:Z","depth":0,"parameterNumber":2,"parameterNumberName":"U-component_of_WINDS"},"data":[0.0,0.0,0.0,0.0,0.0,0.0,0.0,0.0,0.0,0.0,0.0,0.0,0.0,0.0,0.0,0.0,0.0,0.0,0.0,0.0,0.0,0.0,0.0,0.0,0.0,0.0,0.0,0.0,0.0,0.0,0.0,0.0,0.0,0.0,0.0,0.0,0.0,0.0,0.0,0.0,0.0,0.0,0.0,0.0,0.0,0.0,0.0,0.0,0.0,0.0,0.0,0.0,0.0,0.0,0.0,0.0,0.0,0.0,0.0,0.0,0.0,0.0,0.0,0.0,0.0,0.0,0.0,0.0,0.0,0.0,0.0,0.0,0.0,0.0,0.0,0.0,0.0,0.0,0.0,0.0,0.0,0.0,0.0,0.0,0.0,0.0,0.0,0.0,0.0,0.0,0.0,0.6483,0.765,0.8321,0.8292,0.7612,0.6957,0.6467,0.0,0.0,0.0,0.0,0.0,0.0,0.0,0.0,0.0,0.0,0.0,0.0,0.0,0.0,0.0,0.0,0.0,0.0,0.0,0.0,0.0,0.0,0.0,0.0,0.0,0.0,0.0,0.0,0.0,0.0,0.0,0.0,0.0,0.0,0.0,0.0,0.0,0.0,0.0,0.0,0.0,0.0,0.0,0.0,0.0,0.0,0.0,0.0,0.0,0.0,0.0,0.0,0.0,0.0,0.0,0.0,0.0,0.0,0.0,0.0,0.0,0.0,0.0,0.0,0.0,0.0,0.0,0.0,0.0,0.0,0.0,0.0,0.0,0.0,0.0,0.0,0.0,0.0,0.0,0.0,0.0,0.0,0.0,0.0,0.0,0.0,0.0,0.0,0.0,0.0,0.0,0.0,0.0,0.0,0.0,0.0,0.0,0.0,0.0,0.0,0.0,0.0,0.0,0.0,0.5823,0.7403,0.8138,0.8463,0.8304,0.6975,0.6273,0.6623,0.0,0.0,0.0,0.0,0.0,0.0,0.0,0.0,0.0,0.0,0.0,0.0,0.0,0.0,0.0,0.0,0.0,0.0,0.0,0.0,0.0,0.0,0.0,0.0,0.0,0.0,0.0,0.0,0.0,0.0,0.0,0.0,0.0,0.0,0.0,0.0,0.0,0.0,0.0,0.0,0.0,0.0,0.0,0.0,0.0,0.0,0.0,0.0,0.0,0.0,0.0,0.0,0.0,0.0,0.0,0.0,0.0,0.0,0.0,0.0,0.0,0.0,0.0,0.0,0.0,0.0,0.0,0.0,0.0,0.0,0.0,0.0,0.0,0.0,0.0,0.0,0.0,0.0,0.0,0.0,0.0,0.0,0.0,0.0,0.0,0.0,0.0,0.0,0.0,0.0,0.0,0.0,0.0,0.0,0.0,0.0,0.0,0.0,0.0,0.0,0.0,0.0,0.0,0.5675,0.6542,0.7768,0.83,0.8404,0.787,0.6661,0.5993,0.6171,0.4807,0.0,0.0,0.0,0.0,0.0,0.0,0.0,0.0,0.0,0.0,0.0,0.0,0.0,0.0,0.0,0.0,0.0,0.0,0.0,0.0,0.0,0.0,0.0,0.0,0.0,0.0,0.0,0.0,0.0,0.0,0.0,0.0,0.0,0.0,0.0,0.0,0.0,0.0,0.0,0.0,0.0,0.0,0.0,0.0,0.0,0.0,0.0,0.0,0.0,0.0,0.0,0.0,0.0,0.0,0.0,0.0,0.0,0.0,0.0,0.0,0.0,0.0,0.0,0.0,0.0,0.0,0.0,0.0,0.0,0.0,0.0,0.0,0.0,0.0,0.0,0.0,0.0,0.0,0.0,0.0,0.0,0.0,0.0,0.0,0.0,0.0,0.0,0.0,0.0,0.0,0.0,0.0,0.0,0.0,0.0,0.0,0.0,0.0,0.0,0.0,0.0,0.0,0.6283,0.6939,0.7686,0.8134,0.7985,0.7126,0.617,0.5663,0.5644,0.4143,0.0,0.0,0.0,0.0,0.0,0.0,0.0,0.0,0.0,0.0,0.0,0.0,0.0,0.0,0.0,0.0,0.0,0.0,0.0,0.0,0.0,0.0,0.0,0.0,0.0,0.0,0.0,0.0,0.0,0.0,0.0,0.0,0.0,0.0,0.0,0.0,0.0,0.0,0.0,0.0,0.0,0.0,0.0,0.0,0.0,0.0,0.0,0.0,0.0,0.0,0.0,0.0,0.0,0.0,0.0,0.0,0.0,0.0,0.0,0.0,0.0,0.0,0.0,0.0,0.0,0.0,0.0,0.0,0.0,0.0,0.0,0.0,0.0,0.0,0.0,0.0,0.0,0.0,0.0,0.0,0.0,0.0,0.0,0.0,0.0,0.0,0.0,0.0,0.0,0.0,0.0,0.0,0.0,0.0,0.0,0.0,0.0,0.0,0.0,0.0,0.0,0.0,0.6386,0.6802,0.7069,0.7341,0.7123,0.6142,0.515,0.4751,0.5186,0.377,0.0,0.0,0.0,0.0,0.0,0.0,0.0,0.0,0.0,0.0,0.0,0.0,0.0,0.0,0.0,0.0,0.0,0.0,0.0,0.0,0.0,0.0,0.0,0.0,0.0,0.0,0.0,0.0,0.0,0.0,0.0,0.0,0.0,0.0,0.0,0.0,0.0,0.0,0.0,0.0,0.0,0.0,0.0,0.0,0.0,0.0,0.0,0.0,0.0,0.0,0.0,0.0,0.0,0.0,0.0,0.0,0.0,0.0,0.0,0.0,0.0,0.0,0.0,0.0,0.0,0.0,0.0,0.0,0.0,0.0,0.0,0.0,0.0,0.0,0.0,0.0,0.0,0.0,0.0,0.0,0.0,0.0,0.0,0.0,0.0,0.0,0.0,0.0,0.0,0.0,0.0,0.0,0.0,0.0,0.0,0.0,0.0,0.0,0.0,0.0,0.0,0.0,0.5532,0.5851,0.0,0.657,0.6342,0.5541,0.4953,0.4596,0.4647,0.0,0.0,0.0,0.0,0.0,0.0,0.0,0.0,0.0,0.0,0.0,0.0,0.0,0.0,0.0,0.0,0.0,0.0,0.0,0.0,0.0,0.0,0.0,0.0,0.0,0.0,0.0,0.0,0.0,0.0,0.0,0.0,0.0,0.0,0.0,0.0,0.0,0.0,0.0,0.0,0.0,0.0,0.0,0.0,0.0,0.0,0.0,0.0,0.0,0.0,0.0,0.0,0.0,0.0,0.0,0.0,0.0,0.0,0.0,0.0,0.0,0.0,0.0,0.0,0.0,0.0,0.0,0.0,0.0,0.0,0.0,0.0,0.0,0.0,0.0,0.0,0.0,0.0,0.0,0.0,0.0,0.0,0.0,0.0,0.0,0.0,0.0,0.0,0.0,0.0,0.0,0.0,0.0,0.0,0.0,0.0,0.0,0.0,0.0,0.0,0.0,0.0,0.4862,0.503,0.5143,0.0,0.5858,0.5619,0.4787,0.4397,0.4139,0.408,0.0,0.0,0.0,0.0,0.0,0.0,0.0,0.0,0.0,0.0,0.0,0.0,0.0,0.0,0.0,0.0,0.0,0.0,0.0,0.0,0.0,0.0,0.0,0.0,0.0,0.0,0.0,0.0,0.0,0.0,0.0,0.0,0.0,0.0,0.0,0.0,0.0,0.0,0.0,0.0,0.0,0.0,0.0,0.0,0.0,0.0,0.0,0.0,0.0,0.0,0.0,0.0,0.0,0.0,0.0,0.0,0.0,0.0,0.0,0.0,0.0,0.0,0.0,0.0,0.0,0.0,0.0,0.0,0.0,0.0,0.0,0.0,0.0,0.0,0.0,0.0,0.0,0.0,0.0,0.0,0.0,0.0,0.0,0.0,0.0,0.0,0.0,0.0,0.0,0.0,0.0,0.0,0.0,0.0,0.0,0.0,0.0,0.0,0.0,0.0,0.0,0.0,0.483,0.4838,0.4854,0.5004,0.503,0.4785,0.4036,0.354,0.3285,0.0,0.0,0.0,0.0,0.0,0.0,0.0,0.0,0.0,0.0,0.0,0.0,0.0,0.0,0.0,0.0,0.0,0.0,0.0,0.0,0.0,0.0,0.0,0.0,0.0,0.0,0.0,0.0,0.0,0.0,0.0,0.0,0.0,0.0,0.0,0.0,0.0,0.0,0.0,0.0,0.0,0.0,0.0,0.0,0.0,0.0,0.0,0.0,0.0,0.0,0.0,0.0,0.0,0.0,0.0,0.0,0.0,0.0,0.0,0.0,0.0,0.0,0.0,0.0,0.0,0.0,0.0,0.0,0.0,0.0,0.0,0.0,0.0,0.0,0.0,0.0,0.0,0.0,0.0,0.0,0.0,0.0,0.0,0.0,0.0,0.0,0.0,0.0,0.0,0.0,0.0,0.0,0.0,0.0,0.0,0.0,0.0,0.0,0.0,0.0,0.0,0.0,0.0,0.4174,0.4207,0.4148,0.4264,0.4431,0.4359,0.404,0.3712,0.3489,0.3478,0.0,0.0,0.0,0.0,0.0,0.0,0.0,0.0,0.0,0.0,0.0,0.0,0.0,0.0,0.0,0.0,0.0,0.0,0.0,0.0,0.0,0.0,0.0,0.0,0.0,0.0,0.0,0.0,0.0,0.0,0.0,0.0,0.0,0.0,0.0,0.0,0.0,0.0,0.0,0.0,0.0,0.0,0.0,0.0,0.0,0.0,0.0,0.0,0.0,0.0,0.0,0.0,0.0,0.0,0.0,0.0,0.0,0.0,0.0,0.0,0.0,0.0,0.0,0.0,0.0,0.0,0.0,0.0,0.0,0.0,0.0,0.0,0.0,0.0,0.0,0.0,0.0,0.0,0.0,0.0,0.0,0.0,0.0,0.0,0.0,0.0,0.0,0.0,0.0,0.0,0.0,0.0,0.0,0.0,0.0,0.0,0.0,0.0,0.0,0.0,0.0,0.0,0.3823,0.3867,0.3887,0.4071,0.414,0.4136,0.4042,0.3818,0.3561,0.3355,0.0,0.0,0.0,0.0,0.0,0.0,0.0,0.0,0.0,0.0,0.0,0.0,0.0,0.0,0.0,0.0,0.0,0.0,0.0,0.0,0.0,0.0,0.0,0.0,0.0,0.0,0.0,0.0,0.0,0.0,0.0,0.0,0.0,0.0,0.0,0.0,0.0,0.0,0.0,0.0,0.0,0.0,0.0,0.0,0.0,0.0,0.0,0.0,0.0,0.0,0.0,0.0,0.0,0.0,0.0,0.0,0.0,0.0,0.0,0.0,0.0,0.0,0.0,0.0,0.0,0.0,0.0,0.0,0.0,0.0,0.0,0.0,0.0,0.0,0.0,0.0,0.0,0.0,0.0,0.0,0.0,0.0,0.0,0.0,0.0,0.0,0.0,0.0,0.0,0.0,0.0,0.0,0.0,0.0,0.0,0.0,0.0,0.0,0.0,0.0,0.0,0.0,0.3755,0.3843,0.3971,0.4153,0.4181,0.4148,0.4057,0.3881,0.3591,0.3156,0.0,0.0,0.0,0.0,0.0,0.0,0.0,0.0,0.0,0.0,0.0,0.0,0.0,0.0,0.0,0.0,0.0,0.0,0.0,0.0,0.0,0.0,0.0,0.0,0.0,0.0,0.0,0.0,0.0,0.0,0.0,0.0,0.0,0.0,0.0,0.0,0.0,0.0,0.0,0.0,0.0,0.0,0.0,0.0,0.0,0.0,0.0,0.0,0.0,0.0,0.0,0.0,0.0,0.0,0.0,0.0,0.0,0.0,0.0,0.0,0.2987,0.0,0.0,0.0,0.0,0.0,0.0,0.0,0.0,0.0,0.0,0.0,0.0,0.0,0.0,0.0,0.0,0.0,0.0,0.0,0.0,0.0,0.0,0.0,0.0,0.0,0.0,0.0,0.0,0.0,0.0,0.0,0.0,0.0,0.0,0.0,0.0,0.0,0.0,0.0,0.0,0.0,0.3689,0.3843,0.3971,0.4153,0.4232,0.4236,0.4151,0.3975,0.374,0.3432,0.3009,0.0,0.0,0.0,0.0,0.0,0.0,0.0,0.0,0.0,0.0,0.0,0.0,0.0,0.0,0.0,0.0,0.0,0.0,0.0,0.0,0.0,0.0,0.0,0.0,0.0,0.0,0.0,0.0,0.0,0.0,0.0,0.0,0.0,0.0,0.0,0.0,0.0,0.0,0.0,0.0,0.0,0.0,0.0,0.0,0.0,0.0,0.0,0.0,0.0,0.0,0.0,0.0,0.0,0.0,0.0,0.0,0.0,0.0,0.0,0.0,0.3162,0.0,0.0,0.0,0.0,0.0,0.0,0.0,0.0,0.0,0.0,0.0,0.0,0.0,0.0,0.0,0.0,0.0,0.0,0.0,0.0,0.0,0.0,0.0,0.0,0.0,0.0,0.0,0.0,0.0,0.0,0.0,0.0,0.0,0.0,0.0,0.0,0.0,0.0,0.0,0.0,0.3573,0.3789,0.4034,0.4214,0.4273,0.4265,0.4181,0.4085,0.3895,0.3581,0.3301,0.0,0.0,0.0,0.0,0.0,0.0,0.0,0.0,0.0,0.0,0.0,0.0,0.0,0.0,0.0,0.0,0.0,0.0,0.0,0.0,0.0,0.0,0.0,0.0,0.0,0.0,0.0,0.0,0.0,0.0,0.0,0.0,0.0,0.0,0.0,0.0,0.0,0.0,0.0,0.0,0.0,0.0,0.0,0.0,0.0,0.0,0.0,0.0,0.0,0.0,0.0,0.0,0.0,0.4124,0.4226,0.4438,0.4278,0.3957,0.3589,0.3569,0.3345,0.3035,0.0,0.0,0.0,0.0,0.0,0.0,0.0,0.0,0.0,0.0,0.0,0.0,0.0,0.0,0.0,0.0,0.0,0.0,0.0,0.0,0.0,0.0,0.0,0.0,0.0,0.2389,0.264,0.0,0.0,0.0,0.0,0.0,0.0,0.0,0.0,0.0,0.0,0.0,0.0,0.3487,0.3846,0.4122,0.4281,0.43,0.4271,0.4202,0.4181,0.4044,0.374,0.3612,0.3373,0.0,0.0,0.0,0.0,0.0,0.0,0.0,0.0,0.0,0.0,0.0,0.0,0.0,0.0,0.0,0.0,0.0,0.0,0.0,0.0,0.0,0.0,0.0,0.0,0.0,0.0,0.0,0.0,0.0,0.0,0.0,0.0,0.2663,0.2725,0.0,0.0,0.0,0.0,0.0,0.0,0.0,0.0,0.0,0.0,0.0,0.0,0.0,0.0,0.3981,0.4381,0.4596,0.4622,0.4843,0.4967,0.5,0.4473,0.4167,0.4078,0.3606,0.0,0.2651,0.2614,0.0,0.0,0.0,0.0,0.0,0.0,0.0,0.0,0.0,0.0,0.0,0.0,0.0,0.0,0.0,0.0,0.0,0.0,0.0,0.0,0.0,0.0,0.2952,0.2717,0.2854,0.3063,0.0,0.3104,0.2814,0.3031,0.2932,0.0,0.0,0.0,0.0,0.0,0.0,0.0,0.3671,0.3979,0.4191,0.4287,0.43,0.4295,0.4283,0.4216,0.4153,0.4104,0.3867,0.3667,0.3526,0.3222,0.0,0.0,0.0,0.0,0.0,0.0,0.0,0.0,0.0,0.0,0.0,0.0,0.0,0.0,0.0,0.0,0.0,0.0,0.0,0.0,0.0,0.0,0.0,0.0,0.0,0.0,0.0,0.0,0.0,0.2768,0.3132,0.3046,0.3185,0.3181,0.0,0.0,0.0,0.0,0.0,0.0,0.0,0.0,0.0,0.4285,0.4418,0.4534,0.4636,0.4885,0.4823,0.4556,0.4706,0.458,0.4286,0.4062,0.3723,0.3384,0.3157,0.2734,0.2171,0.2424,0.2342,0.1997,0.0,0.0,0.0,0.0,0.1797,0.172,0.1889,0.1918,0.0,0.0,0.0,0.0,0.0,0.0,0.0,0.0,0.0,0.0,0.0,0.0,0.0,0.2199,0.2137,0.2358,0.2824,0.2662,0.2633,0.0,0.3136,0.2934,0.24,0.0,0.0,0.0,0.0,0.0,0.3796,0.4153,0.4334,0.4371,0.4375,0.4355,0.4304,0.4265,0.4224,0.4177,0.4061,0.393,0.3785,0.353,0.3264,0.0,0.0,0.0,0.0,0.0,0.0,0.0,0.0,0.0,0.0,0.0,0.0,0.0,0.0,0.0,0.0,0.0,0.0,0.0,0.0,0.0,0.0,0.0,0.0,0.0,0.0,0.0,0.0,0.3095,0.3409,0.336,0.3599,0.3632,0.0,0.0,0.0,0.0,0.0,0.0,0.422,0.4349,0.4557,0.4871,0.4963,0.5071,0.5208,0.508,0.4819,0.4425,0.4365,0.4072,0.3651,0.3533,0.3179,0.2824,0.259,0.2339,0.184,0.2111,0.1973,0.1686,0.1718,0.1656,0.1615,0.1731,0.1664,0.148,0.1624,0.1643,0.1598,0.1553,0.0,0.1449,0.1337,0.0,0.0,0.0,0.0,0.2109,0.1925,0.1989,0.1944,0.1677,0.16,0.1717,0.2321,0.2394,0.2507,0.0,0.3184,0.2953,0.2426,0.0,0.0,0.0,0.0,0.3444,0.3859,0.406,0.4191,0.4098,0.3987,0.404,0.3978,0.3952,0.4005,0.4035,0.4031,0.4048,0.3977,0.3793,0.3579,0.3334,0.0,0.0,0.0,0.0,0.0,0.0,0.0,0.0,0.0,0.0,0.0,0.0,0.0,0.0,0.0,0.0,0.0,0.0,0.0,0.0,0.0,0.0,0.0,0.0,0.0,0.0,0.0,0.0,0.0,0.3726,0.3973,0.0,0.0,0.0,0.0,0.3989,0.4161,0.4416,0.4775,0.4963,0.5149,0.5341,0.5431,0.5478,0.5488,0.5,0.4691,0.4695,0.3996,0.3766,0.3651,0.3061,0.2824,0.2824,0.2239,0.1885,0.1879,0.1811,0.2074,0.2321,0.1865,0.193,0.2201,0.1842,0.165,0.1654,0.169,0.17,0.1697,0.1694,0.1635,0.1563,0.1555,0.1493,0.0,0.0,0.1515,0.1531,0.1592,0.161,0.1613,0.1614,0.1615,0.1717,0.2321,0.242,0.2488,0.0,0.2844,0.2639,0.243,0.0,0.3081,0.3139,0.3736,0.4041,0.3663,0.3752,0.3612,0.3139,0.2992,0.2956,0.2954,0.2991,0.3135,0.3582,0.3671,0.3813,0.4163,0.3983,0.3797,0.3609,0.3169,0.0,0.0,0.0,0.0,0.0,0.0,0.0,0.0,0.0,0.0,0.0,0.0,0.0,0.0,0.0,0.0,0.0,0.0,0.0,0.0,0.0,0.0,0.0,0.0,0.0,0.0,0.0,0.0,0.4185,0.4432,0.0,0.0,0.4336,0.4447,0.4624,0.4751,0.4951,0.5251,0.5331,0.5422,0.5547,0.5232,0.5015,0.5015,0.4384,0.3942,0.3466,0.3382,0.3036,0.2551,0.2429,0.2308,0.2308,0.2065,0.1944,0.1941,0.19,0.1962,0.2015,0.178,0.1868,0.1951,0.1765,0.1765,0.1752,0.1782,0.1766,0.173,0.171,0.1683,0.1657,0.1657,0.1634,0.1613,0.1635,0.1641,0.1646,0.1667,0.166,0.1646,0.1646,0.1631,0.1617,0.1818,0.1918,0.1911,0.2084,0.2324,0.243,0.2126,0.205,0.2232,0.2763,0.2988,0.312,0.3261,0.3323,0.3346,0.311,0.3087,0.2947,0.2872,0.3215,0.3437,0.352,0.3778,0.4006,0.4089,0.3965,0.384,0.3716,0.3446,0.3132,0.0,0.0,0.0,0.0,0.0,0.0,0.0,0.0,0.0,0.0,0.0,0.0,0.0,0.0,0.0,0.0,0.0,0.0,0.0,0.0,0.0,0.0,0.0,0.0,0.0,0.0,0.4389,0.4514,0.4792,0.4904,0.4724,0.4845,0.4996,0.5143,0.5208,0.5347,0.5588,0.5367,0.5289,0.5372,0.478,0.4424,0.4424,0.3865,0.3278,0.2916,0.2715,0.2487,0.199,0.199,0.199,0.199,0.1981,0.1977,0.1975,0.1955,0.1923,0.1884,0.1864,0.1843,0.1828,0.1849,0.1842,0.1828,0.1849,0.1829,0.1791,0.176,0.175,0.1748,0.1738,0.1727,0.172,0.172,0.1712,0.1704,0.1704,0.169,0.1676,0.1676,0.1661,0.1643,0.1635,0.1633,0.1629,0.1619,0.19,0.2056,0.1884,0.1816,0.2015,0.2489,0.2588,0.2674,0.2872,0.2904,0.2813,0.258,0.2758,0.2808,0.2717,0.3137,0.3437,0.3519,0.3725,0.3941,0.4083,0.3936,0.3826,0.3765,0.3589,0.3338,0.3007,0.0,0.0,0.0,0.0,0.0,0.0,0.0,0.0,0.0,0.0,0.0,0.0,0.0,0.0,0.0,0.0,0.0,0.0,0.0,0.0,0.0,0.0,0.0,0.4053,0.4287,0.4528,0.4708,0.5041,0.5188,0.501,0.5233,0.5424,0.551,0.5518,0.5598,0.578,0.519,0.4862,0.493,0.4318,0.395,0.395,0.3334,0.2965,0.2965,0.2257,0.202,0.202,0.202,0.202,0.2018,0.1991,0.1979,0.1979,0.1979,0.1979,0.1973,0.1912,0.1889,0.1889,0.1889,0.1888,0.1887,0.1886,0.1886,0.1881,0.1851,0.1842,0.1836,0.1806,0.1776,0.1752,0.1751,0.173,0.1707,0.1707,0.1706,0.1705,0.1705,0.1705,0.1697,0.1669,0.1664,0.1654,0.1624,0.1618,0.1618,0.1617,0.2019,0.2422,0.2422,0.2826,0.0,0.2422,0.2422,0.2221,0.1718,0.2085,0.2338,0.22,0.2667,0.3051,0.3494,0.3356,0.3564,0.4165,0.3914,0.3773,0.3775,0.3605,0.3471,0.3381,0.0,0.0,0.0,0.0,0.0,0.0,0.0,0.0,0.0,0.0,0.0,0.0,0.0,0.0,0.0,0.0,0.0,0.0,0.0,0.0,0.0,0.0,0.45,0.4434,0.4769,0.5065,0.5184,0.5396,0.5514,0.5463,0.5527,0.561,0.5698,0.5767,0.5855,0.5974,0.5912,0.5827,0.5851,0.4709,0.4076,0.4076,0.293,0.2294,0.2294,0.2176,0.2051,0.2051,0.2051,0.2051,0.2051,0.2044,0.2039,0.2039,0.2039,0.2039,0.2034,0.1975,0.1952,0.1952,0.1952,0.1938,0.1915,0.1894,0.1886,0.1884,0.1876,0.1873,0.1868,0.1837,0.1822,0.181,0.1789,0.1776,0.177,0.177,0.1754,0.1737,0.1737,0.172,0.1702,0.1695,0.1692,0.1684,0.1655,0.165,0.1643,0.1621,0.1717,0.1818,0.1818,0.1919,0.0,0.1818,0.1818,0.1919,0.212,0.231,0.2385,0.234,0.2757,0.2851,0.2462,0.2733,0.2952,0.3056,0.3002,0.2911,0.296,0.3123,0.328,0.0,0.0,0.0,0.0,0.0,0.0,0.0,0.0,0.0,0.0,0.0,0.0,0.0,0.0,0.0,0.0,0.0,0.0,0.0,0.0,0.0,0.0,0.4665,0.4941,0.4961,0.519,0.5388,0.548,0.5616,0.57,0.57,0.5772,0.5837,0.589,0.5978,0.6051,0.6104,0.5898,0.5666,0.5281,0.4253,0.3609,0.3223,0.2451,0.2064,0.2064,0.2077,0.2082,0.2082,0.2082,0.2082,0.0,0.2069,0.2064,0.2064,0.2064,0.2064,0.0,0.0,0.0,0.0,0.0,0.1965,0.1947,0.193,0.1924,0.1922,0.1909,0.1904,0.1899,0.1868,0.1859,0.1853,0.1823,0.1814,0.1811,0.1798,0.1782,0.1768,0.1768,0.1755,0.1739,0.1726,0.1723,0.1714,0.1685,0.168,0.0,0.1641,0.1625,0.1617,0.1617,0.1617,0.1617,0.1617,0.1617,0.1718,0.2019,0.222,0.2503,0.2653,0.3082,0.0,0.0,0.0,0.3356,0.3243,0.3069,0.0,0.0,0.0,0.0,0.0,0.0,0.0,0.0,0.4026,0.4216,0.0,0.0,0.0,0.0,0.0,0.0,0.0,0.0,0.0,0.0,0.0,0.0,0.0,0.0,0.0,0.0,0.4738,0.5123,0.5169,0.5315,0.5464,0.5534,0.562,0.568,0.5688,0.5834,0.5932,0.6068,0.602,0.6068,0.6068,0.0,0.0,0.0,0.0,0.285,0.2203,0.2204,0.2074,0.2074,0.2101,0.2114,0.2114,0.2114,0.2114,0.2112,0.2086,0.2074,0.2074,0.2074,0.2072,0.2066,0.2035,0.2024,0.202,0.1992,0.1981,0.1981,0.1977,0.0,0.0,0.1945,0.1937,0.193,0.19,0.1891,0.1884,0.1854,0.1846,0.1838,0.1808,0.18,0.1799,0.1795,0.1795,0.1788,0.1761,0.1755,0.1746,0.1715,0.171,0.17,0.1672,0.1642,0.1621,0.1617,0.1617,0.1617,0.1617,0.1617,0.1617,0.1718,0.0,0.0,0.2957,0.3381,0.3624,0.3521,0.3866,0.4026,0.3957,0.3617,0.3652,0.4162,0.4264,0.4382,0.461,0.4728,0.4777,0.4836,0.3748,0.3796,0.0,0.0,0.0,0.0,0.0,0.0,0.0,0.0,0.0,0.0,0.0,0.0,0.0,0.0,0.0,0.1866,0.3107,0.3851,0.3329,0.434,0.4965,0.4924,0.4983,0.5174,0.524,0.5274,0.5571,0.6151,0.5721,0.5375,0.5375,0.477,0.0,0.4267,0.3601,0.3068,0.2936,0.2403,0.2137,0.2137,0.0,0.0,0.2146,0.2146,0.2146,0.2146,0.214,0.2137,0.2137,0.2137,0.2123,0.2097,0.2067,0.2055,0.2051,0.2021,0.201,0.2007,0.1984,0.1977,0.1975,0.1969,0.1968,0.1962,0.1932,0.1922,0.0,0.1885,0.1877,0.187,0.1839,0.1832,0.1825,0.1801,0.1795,0.1793,0.1787,0.1787,0.1777,0.1747,0.1741,0.1731,0.1701,0.1672,0.1645,0.1621,0.1617,0.1617,0.1617,0.1617,0.1717,0.2221,0.2321,0.2417,0.251,0.2662,0.2421,0.2004,0.2458,0.2724,0.2714,0.2994,0.332,0.3378,0.3818,0.4035,0.4118,0.4647,0.493,0.4943,0.4722,0.471,0.0,0.0,0.0,0.0,0.0,0.0,0.0,0.0,0.0,0.0,0.0,0.0462,0.0,0.0,0.1602,0.2473,0.3262,0.3708,0.3403,0.3922,0.4423,0.4392,0.4445,0.4624,0.5035,0.4854,0.491,0.5597,0.5145,0.4789,0.4789,0.4419,0.4167,0.3764,0.3362,0.3095,0.2692,0.2423,0.2155,0.2155,0.2155,0.2155,0.2155,0.2155,0.2155,0.2155,0.2155,0.2155,0.2155,0.2155,0.2146,0.2131,0.2115,0.2091,0.2062,0.2047,0.2041,0.2039,0.2025,0.201,0.1997,0.1997,0.1988,0.1974,0.1958,0.1954,0.1947,0.1917,0.1909,0.1902,0.1871,0.1863,0.1855,0.1825,0.1818,0.1813,0.1798,0.1795,0.1791,0.1776,0.1772,0.1763,0.1732,0.1716,0.1691,0.1646,0.1639,0.1634,0.1619,0.1617,0.1718,0.2019,0.2019,0.212,0.2422,0.24,0.2379,0.2357,0.2061,0.2159,0.2746,0.2797,0.2914,0.3185,0.3545,0.3662,0.3629,0.3937,0.4304,0.4622,0.4346,0.4576,0.0,0.0,0.0,0.0,0.0,0.0,0.0,0.0,0.0814,-0.0,-0.01,0.0314,0.1324,0.1358,0.1627,0.2898,0.2922,0.2818,0.2978,0.3099,0.3093,0.2969,0.3252,0.3785,0.43,0.3759,0.369,0.436,0.3871,0.3493,0.3763,0.3629,0.3361,0.296,0.296,0.2692,0.2155,0.2155,0.2155,0.2155,0.2155,0.2155,0.2155,0.2155,0.2155,0.2155,0.2155,0.2155,0.2155,0.2155,0.2155,0.2155,0.2155,0.2125,0.208,0.2075,0.2073,0.2072,0.2066,0.2048,0.2027,0.2027,0.2008,0.1984,0.1984,0.1981,0.1971,0.1947,0.194,0.1933,0.1902,0.1894,0.1887,0.1856,0.1849,0.184,0.181,0.1804,0.1802,0.1796,0.1795,0.1787,0.1763,0.1759,0.1738,0.168,0.167,0.166,0.1629,0.1626,0.1624,0.1618,0.1617,0.1818,0.222,0.222,0.2423,0.2827,0.2222,0.2121,0.3027,0.2733,0.2738,0.3247,0.3407,0.3436,0.3436,0.3606,0.3958,0.439,0.4032,0.4274,0.0284,0.0519,0.0,-0.0,0.0608,0.0988,0.0,0.0,0.1076,0.0335,0.0117,0.0241,0.0359,-0.0489,-0.0748,0.0376,-0.0127,-0.0511,-0.0128,0.0253,0.0126,-0.0503,0.0755,0.1772,0.1924,0.1043,0.0793,0.1472,0.0939,0.0941,0.1882,0.1345,0.1346,0.2289,0.2289,0.2289,0.2155,0.2155,0.2155,0.2155,0.2155,0.2155,0.2155,0.2155,0.2155,0.2155,0.2155,0.2155,0.2155,0.2155,0.2155,0.2155,0.2155,0.2151,0.2142,0.2114,0.2104,0.21,0.2074,0.2062,0.2059,0.2059,0.2038,0.2014,0.2014,0.1996,0.1976,0.1973,0.1971,0.1964,0.1934,0.1926,0.1918,0.1888,0.1881,0.1872,0.1842,0.1835,0.1827,0.18,0.1795,0.1794,0.1791,0.179,0.177,0.1709,0.1699,0.1689,0.1661,0.1657,0.1647,0.162,0.1617,0.1617,0.1718,0.1718,0.1718,0.1819,0.212,0.2321,0.2522,0.2971,0.3202,0.3305,0.3787,0.4141,0.4141,0.4645,0.5011,0.5124,0.5101,0.4877,0.0168,0.0,0.0,0.0,0.1217,0.1384,0.0337,0.0574,0.0467,-0.0965,-0.1225,-0.1111,-0.0619,-0.1376,-0.164,0.0,-0.0511,-0.116,-0.0903,-0.0764,-0.0754,-0.0997,-0.1003,-0.0507,0.0514,-0.0131,-0.0265,0.0403,-0.0269,-0.0403,-0.0,-0.0269,0.0135,0.1212,0.0538,0.0538,0.1212,0.1212,0.1212,0.1212,0.1885,0.2155,0.2155,0.2155,0.2155,0.2155,0.2155,0.2155,0.2155,0.2155,0.2155,0.2155,0.2155,0.2155,0.2153,0.214,0.2136,0.2133,0.2121,0.2105,0.2091,0.2091,0.2069,0.2041,0.2024,0.201,0.1997,0.1981,0.1977,0.1974,0.1961,0.1958,0.195,0.1919,0.1912,0.1904,0.1873,0.1853,0.1836,0.1824,0.1807,0.1795,0.1795,0.1795,0.1786,0.1761,0.1742,0.172,0.169,0.1686,0.1682,0.1669,0.1667,0.1661,0.1645,0.1658,0.1661,0.1645,0.1865,0.1979,0.1979,0.2202,0.2421,0.2421,0.2679,0.2811,0.2811,0.308,0.3456,0.3713,0.3402,0.3303,-0.037,0.0,0.0,0.0947,0.1353,0.143,0.0709,0.0846,0.0621,-0.0885,-0.1136,-0.1007,-0.0634,-0.1523,0.0,-0.0255,-0.1159,-0.1948,-0.1695,-0.1791,-0.1886,-0.1874,-0.2494,-0.251,-0.1277,-0.1563,-0.1723,-0.1208,-0.1747,-0.1882,-0.1613,-0.1479,-0.1075,-0.0,-0.0672,-0.0672,-0.0,-0.0,0.0269,0.0538,0.1346,0.1885,0.2155,0.2155,0.2155,0.2155,0.2155,0.2155,0.2155,0.2155,0.2155,0.2155,0.2155,0.2155,0.2155,0.2155,0.2155,0.2155,0.2155,0.214,0.2122,0.2122,0.2101,0.2072,0.205,0.2032,0.2014,0.1994,0.1982,0.1977,0.1977,0.1977,0.1971,0.1949,0.1944,0.1935,0.1905,0.1881,0.1863,0.1855,0.1828,0.1808,0.1808,0.18,0.1795,0.1795,0.1776,0.1751,0.172,0.171,0.1704,0.1704,0.1704,0.1696,0.1675,0.1692,0.1695,0.1675,0.1693,0.1704,0.1704,0.1712,0.1717,0.1717,0.1965,0.2093,0.2093,0.2241,0.2499,0.2987,0.2541,0.2568,0.0,0.0,-0.0536,-0.0444,0.0235,0.0865,0.0752,0.1416,0.2096,0.1939,0.1955,0.1703,0.0775,-0.0387,-0.1036,-0.0919,-0.2764,-0.3705,-0.2815,-0.3368,-0.3929,-0.3985,-0.397,-0.391,0.0,-0.4017,-0.4109,-0.4168,-0.4172,-0.3768,-0.269,-0.269,-0.2151,-0.1075,-0.1075,-0.1075,-0.1075,-0.1075,-0.0538,0.0538,0.0538,0.1077,0.2155,0.2155,0.2155,0.2155,0.2155,0.2155,0.2155,0.2155,0.2155,0.2155,0.2155,0.2155,0.2155,0.2155,0.2155,0.2155,0.2155,0.2154,0.2153,0.2153,0.2133,0.2108,0.2107,0.2065,0.2018,0.2018,0.1997,0.1977,0.1977,0.1977,0.1976,0.1975,0.1975,0.1967,0.1937,0.1929,0.1919,0.189,0.186,0.1839,0.1839,0.1814,0.1795,0.1795,0.1794,0.1782,0.1752,0.1722,0.1704,0.1704,0.1704,0.1704,0.1703,0.1704,0.1704,0.1703,0.1704,0.1704,0.1704,0.1733,0.1748,0.1748,0.2335,0.2691,0.2691,0.3305,0.3561,0.3564,0.3622,0.3677,0.0,0.0,0.0349,0.0119,0.087,0.142,0.0778,0.1309,0.1575,-0.0517,0.0126,0.0495,-0.1096,-0.17,-0.2082,-0.2011,-0.3206,-0.406,-0.3756,-0.3955,-0.4132,-0.4072,-0.4048,0.0,0.0,0.0,0.0,-0.424,-0.4247,-0.4131,-0.3765,-0.3768,-0.2959,-0.1209,-0.1747,-0.1479,-0.0,-0.0,0.0135,0.0538,0.1212,0.1885,0.2155,0.2155,0.2155,0.2155,0.2155,0.2155,0.2155,0.2155,0.2155,0.2155,0.2155,0.2155,0.2155,0.2155,0.2155,0.2155,0.2155,0.2155,0.2155,0.2155,0.2148,0.2136,0.2116,0.2095,0.2074,0.2054,0.2027,0.2005,0.2005,0.199,0.1977,0.1977,0.1977,0.1974,0.1964,0.1945,0.1928,0.1918,0.1892,0.187,0.187,0.1862,0.1849,0.1828,0.1808,0.1791,0.1781,0.1771,0.1765,0.1765,0.1765,0.1756,0.1736,0.1752,0.1756,0.1735,0.1753,0.1765,0.1765,0.1774,0.178,0.178,0.2036,0.2053,0.2053,0.2319,0.2468,0.2494,0.2507,0.2775,0.0,-0.0934,-0.0122,0.0376,0.0648,0.0928,0.1056,0.1313,0.0909,-0.1012,-0.0366,-0.0,-0.1855,-0.2303,-0.2566,-0.2939,-0.3635,-0.4119,-0.4285,-0.4236,-0.4164,-0.4106,-0.4095,0.0,0.0,0.0,0.0,-0.424,-0.4248,-0.4133,-0.3765,-0.3768,-0.2958,-0.1209,-0.1747,-0.1479,-0.0135,-0.0135,0.0135,0.0538,0.1616,0.2155,0.2155,0.2155,0.2155,0.2155,0.2155,0.2155,0.2155,0.2155,0.2155,0.2155,0.2155,0.2155,0.2155,0.2155,0.2155,0.2155,0.2155,0.2155,0.2155,0.2155,0.2155,0.2151,0.2131,0.2118,0.2105,0.2086,0.2059,0.2035,0.2035,0.2013,0.1992,0.1992,0.1984,0.1977,0.1977,0.1961,0.1947,0.1947,0.1923,0.1902,0.1902,0.1893,0.1879,0.1859,0.184,0.1819,0.1797,0.1795,0.1795,0.1795,0.1795,0.1787,0.1767,0.1784,0.1787,0.1767,0.1784,0.1795,0.1795,0.1806,0.1811,0.1811,0.1841,0.1856,0.1857,0.1887,0.1912,0.1932,0.1942,0.2201,-0.2565,-0.2298,-0.1878,-0.0131,-0.0399,-0.0535,0.1453,0.104,0.0381,0.0484,0.0701,0.0114,0.0,0.0,-0.2463,-0.3637,-0.3936,-0.4029,-0.4273,-0.4209,-0.4155,0.0,0.0,0.0,0.0,0.0,0.0,-0.4168,0.0,-0.3764,-0.269,-0.2555,-0.2152,-0.1076,-0.1076,-0.0942,-0.0942,-0.0941,-0.0403,0.0538,0.1616,0.2155,0.2155,0.2155,0.2155,0.2155,0.2155,0.2155,0.2155,0.2155,0.2155,0.2155,0.2155,0.2155,0.2155,0.2155,0.2155,0.2155,0.2155,0.2155,0.2155,0.2155,0.2155,0.2155,0.2155,0.2134,0.2112,0.2112,0.209,0.2066,0.2066,0.2044,0.202,0.2019,0.1998,0.1978,0.1977,0.1977,0.1977,0.1977,0.1953,0.1934,0.1934,0.1909,0.189,0.1888,0.1888,0.1866,0.1807,0.18,0.18,0.18,0.18,0.18,0.18,0.18,0.18,0.18,0.18,0.18,0.18,0.1827,0.1842,0.1842,0.1872,0.1888,0.1888,0.1919,0.1934,0.1934,0.1963,0.2099,-0.2703,-0.2044,-0.1451,-0.1867,-0.1464,-0.0924,-0.052,-0.0378,-0.0724,-0.1363,-0.0756,-0.0718,-0.2414,0.0,0.0,-0.3466,-0.3801,0.0,-0.4274,-0.4281,0.0,0.0,0.0,-0.3035,-0.3013,-0.2247,0.0,0.0,-0.2545,-0.2526,-0.1612,-0.1479,-0.0946,0.0137,0.0137,0.0547,0.1367,0.1353,0.1481,0.175,0.202,0.2155,0.2155,0.2155,0.2155,0.2155,0.2155,0.2155,0.2155,0.2155,0.2155,0.2155,0.2155,0.2155,0.2155,0.2155,0.2155,0.2155,0.2155,0.2155,0.2155,0.2155,0.2155,0.2155,0.2155,0.2149,0.2143,0.2143,0.2121,0.2097,0.2097,0.2075,0.2046,0.2024,0.2013,0.2002,0.1981,0.1977,0.1977,0.1977,0.197,0.1965,0.1965,0.1958,0.1946,0.1923,0.1919,0.1906,0.1868,0.1863,0.1863,0.1863,0.1863,0.1863,0.1863,0.1863,0.1863,0.1863,0.1863,0.1863,0.1863,0.187,0.1874,0.1874,0.1904,0.1919,0.1919,0.195,0.1965,0.1965,0.2465,0.2716,-0.3317,-0.3024,-0.2555,-0.269,-0.2517,-0.2069,-0.125,-0.1196,-0.1469,-0.1869,-0.1373,0.0,0.0,0.0,0.0,0.0,0.0,0.0,-0.423,-0.429,-0.416,0.0,-0.2961,0.0,-0.2013,-0.1358,-0.0824,0.0,-0.1357,-0.1484,-0.041,-0.0411,0.0137,0.1248,0.1248,0.1526,0.222,0.2203,0.2188,0.2174,0.2174,0.2168,0.2155,0.2155,0.2155,0.2155,0.0,0.2155,0.2155,0.2155,0.2155,0.2155,0.2155,0.2155,0.2155,0.2155,0.2155,0.2155,0.2155,0.2155,0.2155,0.2155,0.2155,0.2155,0.2155,0.2155,0.2155,0.2155,0.2142,0.2129,0.2129,0.2106,0.208,0.2063,0.2048,0.2031,0.2001,0.1995,0.1991,0.1979,0.1977,0.1977,0.1977,0.1977,0.1971,0.1954,0.1951,0.1945,0.1928,0.1902,0.1886,0.1886,0.1886,0.1886,0.1886,0.1886,0.1886,0.1886,0.1886,0.1886,0.1886,0.1898,0.1906,0.1906,0.1936,0.1951,0.1951,0.1968,0.1977,0.1977,0.2346,0.2601,-0.4195,-0.4267,-0.4035,-0.3087,-0.354,-0.3533,-0.1423,-0.1683,-0.22,-0.1593,0.0,0.0,-0.2481,0.0,-0.2974,-0.332,0.0,-0.3865,-0.3911,-0.3994,-0.3625,-0.2554,-0.2315,-0.1785,-0.0823,-0.0695,-0.014,0.0702,-0.0,-0.0139,0.07,0.0841,0.1262,0.2251,0.2251,0.2251,0.2251,0.2247,0.2232,0.2206,0.2206,0.219,0.2161,0.2161,0.2159,0.2155,0.0,0.0,0.2155,0.2155,0.2155,0.2155,0.2155,0.2155,0.2155,0.2155,0.2155,0.2155,0.2155,0.2155,0.2155,0.2155,0.2155,0.2155,0.2155,0.2155,0.2155,0.2155,0.2155,0.2155,0.2155,0.2135,0.2114,0.211,0.2089,0.2061,0.2031,0.2021,0.2011,0.1987,0.1979,0.1977,0.1977,0.1977,0.1977,0.1977,0.1977,0.1977,0.1977,0.193,0.1898,0.1898,0.1898,0.1898,0.1898,0.1898,0.1898,0.1898,0.1898,0.1898,0.1898,0.1923,0.1937,0.1937,0.1963,0.1977,0.1977,0.1977,0.1977,0.1977,0.2105,0.212,-0.4259,-0.4298,-0.4296,-0.3979,-0.3977,-0.3549,-0.2294,-0.2444,0.0,0.0,0.0,-0.2273,-0.2278,0.0,0.0,-0.3144,0.0,0.0,0.0,0.0,-0.2521,0.0,0.0,0.0,0.0,0.0,0.0,0.0,0.0,0.0,0.1965,0.1964,0.1974,0.2282,0.2283,0.2283,0.2283,0.2258,0.2243,0.2237,0.2237,0.2221,0.2192,0.2192,0.2178,0.2155,0.2155,0.0,0.2155,0.2155,0.2155,0.2155,0.2155,0.2155,0.2155,0.2155,0.2155,0.2155,0.2155,0.2155,0.2155,0.2155,0.2155,0.2155,0.2155,0.2155,0.2155,0.2155,0.2155,0.2155,0.2155,0.2151,0.214,0.2115,0.2105,0.2093,0.2063,0.2036,0.2017,0.2012,0.1992,0.1977,0.1977,0.1977,0.1977,0.1977,0.1977,0.1977,0.1977,0.1967,0.1961,0.1961,0.1961,0.1961,0.1961,0.1961,0.1961,0.1961,0.1961,0.1961,0.1961,0.1966,0.1969,0.1969,0.1974,0.1977,0.1977,0.1977,0.1977,0.1977,0.2626,0.2518,-0.4274,-0.4308,-0.4293,-0.4232,-0.4059,-0.3704,-0.2968,0.0,0.0,0.0,0.0,-0.2289,-0.2172,0.0,0.0,0.0,0.0,0.0,0.0,0.0,0.0,0.0,0.0,0.0,0.0,0.0,0.0,0.0,0.0,0.0,0.2292,0.2291,0.2297,0.2312,0.2313,0.2313,0.2313,0.2298,0.2283,0.2269,0.2269,0.2253,0.2223,0.2207,0.2192,0.2177,0.2161,0.0,0.2155,0.2155,0.2155,0.2155,0.2155,0.2155,0.2155,0.2155,0.2155,0.2155,0.2155,0.2155,0.2155,0.2155,0.2155,0.2155,0.2155,0.2155,0.2155,0.2155,0.2155,0.2155,0.2155,0.2155,0.2151,0.2136,0.2121,0.2106,0.2091,0.2063,0.2042,0.2042,0.2018,0.1998,0.1998,0.1986,0.1977,0.1977,0.1977,0.1977,0.1977,0.1977,0.1977,0.1977,0.1977,0.1977,0.1977,0.1977,0.1977,0.1977,0.1977,0.1977,0.1977,0.1977,0.1977,0.1977,0.1977,0.1977,0.1977,0.1991,0.1998,0.1999,0.2409,0.2307,-0.4255,-0.4297,-0.429,-0.4215,-0.4018,-0.3743,-0.3368,-0.3003,0.0,0.0,0.0,-0.2186,-0.2137,0.0,0.0,0.0,0.0,0.0,0.0,0.0,0.0,0.0,0.0,0.0,0.0,0.0,0.0,0.0,0.0,0.0,0.2333,0.2333,0.2333,0.2333,0.2333,0.2333,0.2333,0.2333,0.2322,0.23,0.23,0.2284,0.2254,0.223,0.2216,0.2208,0.2178,0.0,0.0,0.2157,0.2155,0.2155,0.2155,0.2155,0.2155,0.2155,0.2155,0.2155,0.2155,0.2155,0.2155,0.2155,0.2155,0.2155,0.2155,0.2155,0.2155,0.2155,0.2155,0.2155,0.2155,0.2155,0.2155,0.2155,0.2136,0.2119,0.2119,0.2095,0.2074,0.2074,0.2049,0.2028,0.2028,0.2009,0.1995,0.1995,0.199,0.1986,0.1986,0.198,0.1977,0.1977,0.1977,0.1977,0.1977,0.1977,0.1977,0.1977,0.1977,0.1977,0.1977,0.1977,0.1977,0.1977,0.1982,0.1986,0.1986,0.2014,0.2028,0.2029,0.2059,0.2086,-0.4192,-0.4266,-0.4279,-0.4162,-0.3954,-0.3669,-0.3252,0.0,0.0,0.0,-0.218,-0.2134,-0.2128,0.0,0.0,0.0,0.0,0.0,0.0,0.0,0.0,0.0,0.0,0.0,0.0,0.0,0.0,0.0,0.0,0.0,0.0,0.2333,0.2333,0.2333,0.2333,0.2333,0.2333,0.2333,0.2331,0.2329,0.2329,0.2314,0.2287,0.2284,0.2267,0.2239,0.2209,0.0,0.0,0.2166,0.2155,0.2155,0.2155,0.2155,0.2155,0.2155,0.2155,0.2155,0.2155,0.2155,0.2155,0.2155,0.2155,0.2155,0.2155,0.2155,0.2155,0.2155,0.2155,0.2155,0.2155,0.2155,0.2155,0.2155,0.2153,0.2151,0.2151,0.2127,0.2105,0.2105,0.208,0.206,0.206,0.2058,0.2056,0.2056,0.2033,0.2015,0.2015,0.1992,0.1977,0.1977,0.1977,0.1977,0.1977,0.1977,0.1977,0.1977,0.1977,0.1977,0.1977,0.1977,0.1977,0.1977,0.2002,0.2015,0.2015,0.2045,0.206,0.2061,0.2091,0.2106,-0.4055,-0.4151,-0.4169,-0.405,-0.3867,-0.3604,-0.3181,0.0,0.0,-0.2284,-0.2172,-0.2127,-0.2127,-0.2183,-0.2356,0.0,-0.2709,0.0,0.0,0.0,0.0,0.0,0.0,0.0,0.0,0.0,0.0,0.0,0.0,0.0,0.0,0.2333,0.2333,0.2333,0.2333,0.2333,0.2333,0.2333,0.2333,0.2333,0.2333,0.2326,0.2315,0.2298,0.2284,0.2271,0.2241,0.0,0.0,0.1913,0.1763,0.1212,0.1885,0.2155,0.2155,0.2155,0.2155,0.2155,0.2155,0.2155,0.2155,0.2155,0.2155,0.2155,0.2155,0.2155,0.2155,0.2155,0.2155,0.2155,0.2155,0.2155,0.2155,0.2155,0.2155,0.2155,0.2155,0.2145,0.2136,0.2136,0.2112,0.2091,0.2091,0.2076,0.2064,0.2064,0.2053,0.2046,0.2046,0.202,0.2002,0.2002,0.1987,0.1977,0.1977,0.1977,0.1977,0.1977,0.1977,0.1977,0.1977,0.1993,0.2002,0.2002,0.2031,0.2046,0.2046,0.2076,0.2091,0.2092,0.2123,0.2136,-0.3891,-0.4,-0.4023,-0.3922,-0.376,-0.3515,0.0,0.0,-0.2489,-0.2258,-0.2158,-0.2127,-0.2127,-0.2147,-0.2277,0.0,-0.2549,-0.2404,0.0,0.0,0.0,0.0,0.0,0.0,0.0,0.0,0.0,0.0,0.0,0.0,0.0,0.2333,0.2333,0.2333,0.2333,0.2333,0.2333,0.2333,0.2333,0.2333,0.1895,0.1749,0.1749,0.1734,0.1583,0.1294,0.0,0.0,0.0,0.0827,0.0683,0.0135,0.0943,0.1481,0.175,0.175,0.175,0.175,0.175,0.175,0.175,0.175,0.1885,0.2155,0.2155,0.2155,0.2155,0.2155,0.2155,0.2155,0.2155,0.2155,0.2155,0.2155,0.2155,0.2155,0.2155,0.2155,0.2155,0.2155,0.2137,0.2123,0.2123,0.2105,0.2091,0.2091,0.2083,0.2077,0.2077,0.205,0.2032,0.2032,0.2014,0.1995,0.1978,0.1977,0.198,0.1988,0.1989,0.1993,0.2002,0.2021,0.2032,0.2032,0.2062,0.2077,0.2078,0.2108,0.2123,0.2123,0.2144,0.2155,-0.3707,-0.3816,-0.3849,-0.3786,-0.3634,-0.3388,0.0,-0.2687,-0.2426,-0.2125,-0.2128,-0.2127,-0.2127,-0.2179,-0.2214,-0.2391,-0.2522,-0.2404,0.0,0.0,0.0,0.0,0.0,0.0,0.0,0.0,0.0,0.0,0.0,0.0,0.0,0.2333,0.2333,0.2333,0.2333,0.2333,0.2333,0.2333,0.2333,0.2333,0.1166,0.0583,0.0583,0.0583,-0.0,0.0,0.0,0.0,0.0,-0.111,-0.1235,-0.1233,-0.1081,-0.0403,0.0538,0.0538,0.0538,0.0538,0.0538,0.0538,0.0538,0.0538,0.1346,0.2155,0.2155,0.2155,0.2155,0.2155,0.2155,0.2155,0.2155,0.2155,0.2155,0.2155,0.2155,0.2155,0.2155,0.2155,0.2155,0.2155,0.2155,0.2155,0.2155,0.2154,0.2154,0.2154,0.2128,0.2109,0.2109,0.2082,0.2063,0.2063,0.2063,0.2039,0.1981,0.1977,0.1988,0.2016,0.2018,0.2031,0.2062,0.2063,0.2063,0.2063,0.2093,0.2109,0.2109,0.2139,0.2155,0.2155,0.2155,0.2155,-0.3245,-0.3352,-0.3395,-0.3251,-0.3172,-0.304,-0.2703,-0.2565,-0.2437,-0.2246,-0.2192,-0.2192,-0.2192,-0.2207,-0.2338,-0.2612,0.0,0.0,0.0,0.0,0.0,0.0,0.0,0.0,0.0,0.0,0.0,0.0,0.0,0.0,0.0,0.2333,0.2333,0.2333,0.2333,0.2333,0.2333,0.2333,0.2333,0.2333,0.1895,0.1749,0.1749,0.102,0.0,0.0,0.0,0.0,0.0,-0.1402,-0.1523,-0.2193,-0.1351,-0.0941,-0.0538,-0.0538,-0.0538,-0.0538,-0.0538,-0.0538,-0.0538,0.0269,0.0808,0.1212,0.202,0.2155,0.2155,0.2155,0.2155,0.2155,0.2155,0.2155,0.2155,0.2155,0.2155,0.2155,0.2155,0.2155,0.2155,0.2155,0.2155,0.2155,0.2155,0.2155,0.2155,0.2155,0.2146,0.214,0.214,0.2114,0.2095,0.2095,0.2076,0.2056,0.2037,0.2036,0.204,0.2049,0.205,0.2054,0.2063,0.2084,0.2095,0.2095,0.2125,0.214,0.214,0.215,0.2155,0.2155,0.2155,0.2155,0.0,-0.2986,-0.3034,-0.292,-0.2875,-0.279,-0.2534,-0.2459,-0.2315,-0.1918,-0.1884,-0.1884,-0.1884,-0.1884,-0.2042,-0.2564,0.0,0.0,0.0,0.0,0.0,0.0,0.0,0.0,0.0,0.0,0.0,0.0,0.0,0.0,0.0,0.0,0.2333,0.2333,0.2333,0.2333,0.2333,0.2333,0.2333,0.2333,0.1895,0.1603,0.1603,0.0874,0.0,0.0,0.0,0.0,0.0,-0.2696,-0.28,-0.3316,-0.2589,-0.2026,-0.1747,-0.1747,-0.1747,-0.1747,-0.1747,-0.1747,-0.1613,-0.0942,-0.0404,0.0135,0.1211,0.1885,0.2155,0.2155,0.2155,0.2155,0.2155,0.2155,0.2155,0.2155,0.2155,0.2155,0.2155,0.2155,0.2155,0.2155,0.2155,0.2155,0.2155,0.2155,0.2155,0.2155,0.2155,0.2155,0.2155,0.2138,0.2126,0.2126,0.2109,0.2098,0.2098,0.2077,0.2069,0.208,0.2081,0.2086,0.2098,0.2116,0.2126,0.2126,0.2145,0.2155,0.2155,0.2155,0.2155,0.2155,0.2155,0.2155,0.0,-0.2685,-0.2736,-0.2728,-0.2685,-0.2602,-0.2426,-0.235,0.0,-0.1423,-0.1274,-0.1276,-0.1219,-0.1219,-0.1453,-0.2071,0.0,0.0,0.0,0.0,0.0,0.0,0.0,0.0,0.0,0.0,0.0,0.0,0.0,0.0,0.0,0.0,0.2333,0.2333,0.2333,0.2333,0.2333,0.2333,0.2333,0.2333,0.1166,0.0729,0.0729,0.0583,0.0,0.0,0.0,0.0,0.0,-0.4598,-0.454,-0.4484,-0.4422,-0.3817,-0.2828,-0.2825,-0.2824,-0.2824,-0.2824,-0.2824,-0.2824,-0.269,-0.2017,-0.0941,0.0135,0.1212,0.2155,0.2155,0.2155,0.2155,0.2155,0.2155,0.2155,0.2155,0.2155,0.2155,0.2155,0.2155,0.2155,0.2155,0.2155,0.2155,0.2155,0.2155,0.2155,0.2155,0.2155,0.2155,0.2155,0.2155,0.2155,0.2155,0.2155,0.2155,0.2155,0.2103,0.2082,0.211,0.2112,0.2125,0.2154,0.2155,0.2155,0.2155,0.2155,0.2155,0.2155,0.2155,0.2155,0.2155,0.2155,0.2155,-0.2049,0.0,-0.235,-0.2187,-0.2187,-0.2188,0.0,-0.2102,-0.1986,0.0,0.0,0.0,0.0,0.0,0.0,0.0,0.0,0.0,0.0,0.0,0.0,0.0,0.0,0.0,0.0,0.0,0.0,0.0,0.0,0.0,0.0,0.0,0.2333,0.2333,0.2333,0.2333,0.2333,0.2333,0.2333,0.2333,0.2041,0.1895,0.1895,-0.0,0.0,0.0,0.0,0.0,-0.466,-0.4598,-0.4565,-0.4542,-0.4439,-0.4251,-0.396,-0.3918,-0.3902,-0.3902,-0.3902,-0.3902,-0.3768,-0.2959,-0.2017,-0.1075,-0.0807,-0.0,0.1077,0.202,0.2155,0.2155,0.2155,0.2155,0.2155,0.2155,0.2155,0.2155,0.2155,0.2155,0.2155,0.2155,0.2155,0.2155,0.2155,0.2155,0.2155,0.2155,0.2155,0.2155,0.2155,0.2155,0.2155,0.2155,0.2155,0.2155,0.2155,0.2142,0.2136,0.2144,0.2144,0.2147,0.2155,0.2155,0.2155,0.2155,0.2155,0.2155,0.2155,0.2155,0.2155,0.2155,0.2155,0.2155,-0.1842,-0.2035,-0.2222,-0.2155,-0.2183,-0.2149,-0.1913,0.0,0.0,0.0,0.0,0.0,0.0,0.0,0.0,0.0,0.0,0.0,0.0,0.0,0.0,0.0,0.0,0.0,0.0,0.0,0.0,0.0,0.0,0.0,0.0,0.0,0.2333,0.2333,0.2333,0.2333,0.2333,0.2333,0.2041,0.1458,0.2041,0.2041,0.1458,0.0146,-0.0729,0.0,0.0,0.0,-0.4661,-0.4628,-0.4598,-0.4567,-0.4503,-0.4446,-0.4394,-0.4361,-0.4331,-0.4308,-0.4308,-0.4308,-0.4172,-0.3632,-0.3094,-0.242,-0.2017,-0.1479,-0.0673,0.0942,0.1481,0.1481,0.202,0.2155,0.2155,0.2155,0.2155,0.2155,0.2155,0.2155,0.2155,0.2155,0.2155,0.2155,0.2155,0.2155,0.2155,0.2155,0.2155,0.2155,0.2155,0.2155,0.2155,0.2155,0.2155,0.2155,0.2155,0.2155,0.2155,0.2155,0.2155,0.2155,0.2155,0.2155,0.2155,0.2155,0.2155,0.2155,0.2155,0.2155,0.2155,0.2155,0.2155,0.2155,-0.1842,-0.197,-0.2128,-0.2078,-0.2204,-0.2114,-0.1499,0.0,0.0,0.0,0.0,0.0,0.0,0.0,0.0,0.0,0.0,0.0,0.0,0.0,0.0,0.0,0.0,0.0,0.0,0.0,0.0,0.0,0.0,0.0,0.0,0.0,0.0,0.2333,0.2333,0.2333,0.2333,0.2333,0.1749,0.0874,0.1895,0.1749,0.0874,0.0729,-0.0,0.0,0.0,0.0,-0.4665,-0.4665,-0.4634,-0.4585,-0.4567,-0.4499,-0.4409,-0.4391,-0.4352,-0.4308,-0.4308,-0.4308,-0.4308,-0.4308,-0.4308,-0.4172,-0.3228,-0.2959,-0.2555,-0.0538,0.0269,0.0808,0.1885,0.2155,0.2155,0.2155,0.2155,0.2155,0.2155,0.2155,0.2155,0.2155,0.2155,0.2155,0.2155,0.2155,0.2155,0.2155,0.2155,0.2155,0.2155,0.2155,0.2155,0.2155,0.2155,0.2155,0.2155,0.2155,0.2155,0.2155,0.2155,0.2155,0.2155,0.2155,0.2155,0.2155,0.2155,0.2155,0.2155,0.2155,0.2155,0.2155,0.2155,0.2155,-0.2107,-0.1786,-0.1429,-0.1248,-0.1322,-0.1272,0.0,0.0,0.0,0.0,0.0,0.0,0.0,0.0,0.0,0.0,0.0,0.0,0.0,0.0,0.0,0.0,0.0,0.0,0.0,0.0,0.0,0.0,0.0,0.0,0.0,0.0,0.0,0.2333,0.2333,0.2333,0.2333,0.2333,0.2187,0.2041,0.2187,0.2187,0.2041,0.102,-0.0,0.0,0.0,-0.3641,-0.4665,-0.4665,-0.4658,-0.464,-0.4537,-0.4485,-0.4458,-0.4358,-0.4315,-0.4308,-0.4308,-0.4308,-0.4308,-0.4308,-0.4308,-0.4307,-0.4038,-0.4038,-0.3768,-0.2555,-0.0942,0.0808,0.1885,0.2155,0.2155,0.2155,0.2155,0.2155,0.2155,0.2155,0.2155,0.2155,0.2155,0.2155,0.2155,0.2155,0.2155,0.2155,0.2155,0.2155,0.2155,0.2155,0.2155,0.2155,0.2155,0.2155,0.2155,0.2155,0.2155,0.2155,0.2155,0.2155,0.2155,0.2155,0.2155,0.2155,0.2155,0.2155,0.2155,0.2155,0.2155,0.2155,0.2155,0.2155,-0.1568,-0.1295,-0.0815,-0.0345,-0.0534,-0.0677,0.0,0.0,0.0,0.0,0.0,0.0,0.0,0.0,0.0,0.0,0.0,0.0,0.0,0.0,0.0,0.0,0.0,0.0,0.0,0.0,0.0,0.0,0.0,0.0,0.0,0.0,0.0,0.0,0.2333,0.2333,0.2333,0.2333,0.2041,0.1458,0.2041,0.2041,0.1312,0.0874,-0.0,-0.1312,0.0,-0.3204,-0.3787,-0.3787,-0.335,-0.2763,-0.2711,-0.2678,-0.2652,-0.2581,-0.2959,-0.3498,-0.3498,-0.3768,-0.4308,-0.4308,-0.4308,-0.4308,-0.4308,-0.4308,-0.4038,-0.2959,-0.1614,-0.0134,0.0942,0.175,0.2155,0.2155,0.2155,0.2155,0.2155,0.2155,0.2155,0.2155,0.2155,0.2155,0.2155,0.2155,0.2155,0.2155,0.2155,0.2155,0.2155,0.2155,0.2155,0.2155,0.2155,0.2155,0.2155,0.2155,0.2155,0.2155,0.2155,0.2155,0.2155,0.2155,0.2155,0.2155,0.2155,0.2155,0.2155,0.2155,0.2155,0.2155,0.2155,0.2155,-0.099,-0.0722,-0.0293,0.0,0.0,0.0,0.0,0.0,0.0,0.0,0.0,0.0,0.0,0.0,0.0,0.0,0.0,0.0,0.0,0.0,0.0,0.0,0.0,0.0,0.0,0.0,0.0,0.0,0.0,0.0,0.0,0.0,0.0,0.0,0.2333,0.2333,0.2333,0.2333,0.1895,0.102,0.1895,0.1895,0.102,0.102,0.0291,-0.0874,-0.1748,-0.2184,-0.2475,-0.2475,-0.2039,-0.1164,-0.1145,-0.1127,-0.1107,-0.1084,-0.1613,-0.2286,-0.2286,-0.3094,-0.3902,-0.3902,-0.4038,-0.4308,-0.4308,-0.4308,-0.4172,-0.3362,-0.2151,-0.0807,0.0269,0.1346,0.2155,0.2155,0.2155,0.2155,0.2155,0.2155,0.2155,0.2155,0.2155,0.2155,0.2155,0.2155,0.2155,0.2155,0.2155,0.2155,0.2155,0.2155,0.2155,0.2155,0.2155,0.2155,0.2155,0.2155,0.2155,0.2155,0.2155,0.2155,0.2155,0.2155,0.2155,0.2155,0.2155,0.2155,0.2155,0.2155,0.2155,0.2155,0.2155,0.2155,-0.0774,-0.0209,0.0373,0.0163,0.0,0.0,0.0,0.0,0.0,0.0,0.0,0.0,0.0,0.0,0.0,0.0,0.0,0.0,0.0,0.0,0.0,0.0,0.0,0.0,0.0,0.0,0.0,0.0,0.0,0.0,0.0,0.0,0.0,0.0,0.0,0.2333,0.2333,0.2333,0.2187,0.2187,0.2333,0.2187,0.2187,0.2187,0.1603,0.0437,0.0437,-0.0291,-0.1311,-0.1311,-0.1312,-0.1163,-0.1134,-0.1104,-0.1078,-0.1076,-0.1209,-0.121,-0.121,-0.1882,-0.2824,-0.2824,-0.3498,-0.4308,-0.4308,-0.4308,-0.4308,-0.4172,-0.269,-0.0807,0.0269,0.1346,0.2155,0.2155,0.2155,0.2155,0.2155,0.2155,0.2155,0.2155,0.2155,0.2155,0.2155,0.2155,0.2155,0.2155,0.2155,0.2155,0.2155,0.2155,0.2155,0.2155,0.2155,0.2155,0.2155,0.2155,0.2155,0.2155,0.2155,0.2155,0.2155,0.2155,0.2155,0.2155,0.2155,0.2155,0.2155,0.2155,0.2155,0.2155,0.2155,0.2155,-0.0179,0.0337,0.0907,0.0876,0.0,0.0,0.0,0.0,0.0,0.0,0.0,0.0,0.0,0.0,0.0,0.0,0.0,0.0,0.0,0.0,0.0,0.0,0.0,0.0,0.0,0.0,0.0,0.0,0.0,0.0,0.0,0.0,0.0,0.0,0.0,0.2333,0.2333,0.2333,0.2333,0.2333,0.2333,0.2333,0.2333,0.2333,0.1749,0.0583,0.0583,0.0291,-0.0146,-0.0146,0.029,0.1006,0.0979,0.0958,0.0942,0.0942,0.0538,-0.0135,-0.0135,-0.0807,-0.1747,-0.1747,-0.242,-0.3362,-0.3362,-0.3768,-0.4308,-0.4308,-0.269,-0.0941,-0.0538,0.0807,0.2155,0.2155,0.2155,0.2155,0.2155,0.2155,0.2155,0.2155,0.2155,0.2155,0.2155,0.2155,0.2155,0.2155,0.2155,0.2155,0.2155,0.2155,0.2155,0.2155,0.2155,0.2155,0.2155,0.2155,0.2155,0.2155,0.2155,0.2155,0.2155,0.2155,0.2155,0.2155,0.2155,0.2155,0.2155,0.2155,0.2155,0.2155,0.2155,0.2155,0.0476,0.0883,0.1238,0.0,0.0,0.0,0.0,0.0,0.0,0.0,0.0,0.0,0.0,0.0,0.0,0.0,0.0,0.0,0.0,0.0,0.0,0.0,0.0,0.0,0.0,0.0,0.0,0.0,0.0,0.0,0.0,0.0,0.0,0.0,0.0,0.2305,0.2305,0.2315,0.232,0.232,0.2328,0.2333,0.2333,0.2333,0.1895,0.1166,0.1166,0.1166,0.1166,0.1161,0.1578,0.2258,0.2217,0.2181,0.2155,0.2155,0.175,0.1077,0.1077,0.0269,-0.0538,-0.0538,-0.1345,-0.2286,-0.2555,-0.3228,-0.3768,-0.3768,-0.2555,-0.1075,-0.0672,0.0807,0.2155,0.2155,0.2155,0.2155,0.2155,0.2155,0.2155,0.2155,0.2155,0.2155,0.2155,0.2155,0.2155,0.2155,0.2155,0.2155,0.2155,0.2155,0.2155,0.2155,0.2155,0.2155,0.2155,0.2155,0.2155,0.2155,0.2155,0.2155,0.2155,0.2155,0.2155,0.2155,0.2155,0.2155,0.2155,0.2155,0.2155,0.2155,0.2155,0.2155,0.1067,0.1165,0.0,0.0,0.0,0.0,0.0,0.0,0.0,0.0,0.0,0.0,0.0,0.0,0.0,0.0,0.0,0.0,0.0,0.0,0.0,0.0,0.0,0.0,0.0,0.0,0.0,0.0,0.0,0.0,0.0,0.0,0.0,0.0,0.0,0.0,0.2245,0.2275,0.229,0.2291,0.2319,0.2332,0.2333,0.2333,0.2333,0.2333,0.2333,0.2333,0.233,0.2302,0.2254,0.22,0.22,0.2181,0.2155,0.2155,0.2155,0.2155,0.2155,0.1481,0.0538,0.0538,-0.0269,-0.1344,-0.2286,-0.269,-0.269,-0.269,-0.1882,-0.0807,0.0269,0.1346,0.2155,0.2155,0.2155,0.2155,0.2155,0.2155,0.2155,0.2155,0.2155,0.2155,0.2155,0.2155,0.2155,0.2155,0.2155,0.2155,0.2155,0.2155,0.2155,0.2155,0.2155,0.2155,0.2155,0.2155,0.2155,0.2155,0.2155,0.2155,0.2155,0.2155,0.2155,0.2155,0.2155,0.2155,0.2155,0.2155,0.2155,0.2155,0.2155,0.2155,0.1049,0.0,0.0,0.0,0.0,0.0,0.0,0.0,0.0,0.0,0.0,0.0,0.0,0.0,0.0,0.0,0.0,0.0,0.0,0.0,0.0,0.0,0.0,0.0,0.0,0.0,0.0,0.0,0.0,0.0,0.0,0.0,0.0,0.0,0.0,0.0,0.2245,0.2254,0.2259,0.2259,0.2267,0.2293,0.2333,0.2333,0.2333,0.2332,0.2311,0.2303,0.2299,0.2248,0.2217,0.2198,0.2176,0.2163,0.2155,0.2155,0.2155,0.2155,0.2155,0.202,0.175,0.175,0.0942,-0.0,-0.0404,-0.148,-0.269,-0.269,-0.1882,-0.1075,-0.0672,0.0807,0.2155,0.2155,0.2155,0.2155,0.2155,0.2155,0.2155,0.2155,0.2155,0.2155,0.2155,0.2155,0.2155,0.2155,0.2155,0.2155,0.2155,0.2155,0.2155,0.2155,0.2155,0.2155,0.2155,0.2155,0.2155,0.2155,0.2155,0.2155,0.2155,0.2155,0.2155,0.2155,0.2155,0.2155,0.2155,0.2155,0.2155,0.2155,0.2155,0.2155,0.1164,0.0,0.0,0.0,0.0,0.0,0.0,0.0,0.0,0.0,0.0,0.0,0.0,0.0,0.0,0.0,0.0,0.0,0.0,0.0,0.0,0.0,0.0,0.0,0.0,0.0,0.0,0.0,0.0,0.0,0.0,0.0,0.0,0.0,0.0,0.0,0.2209,0.2221,0.2227,0.2228,0.2239,0.2264,0.2298,0.2298,0.2298,0.2297,0.228,0.2266,0.2252,0.2215,0.2193,0.218,0.2162,0.2155,0.2155,0.2155,0.2155,0.2155,0.2155,0.2155,0.2155,0.2155,0.175,0.1077,0.0673,-0.0404,-0.148,-0.148,-0.0941,-0.0403,0.0134,0.1211,0.2155,0.2155,0.2155,0.2155,0.2155,0.2155,0.2155,0.2155,0.2155,0.2155,0.2155,0.2155,0.2155,0.2155,0.2155,0.2155,0.2155,0.2155,0.2155,0.2155,0.2155,0.2155,0.2155,0.2155,0.2155,0.2155,0.2155,0.2155,0.2155,0.2155,0.2155,0.2155,0.2155,0.2155,0.2155,0.2155,0.2155,0.2155,0.2155,0.2155,0.0,0.0,0.0,0.0,0.0,0.0,0.0,0.0,0.0,0.0,0.0,0.0,0.0,0.0,0.0,0.0,0.0,0.0,0.0,0.0,0.0,0.0,0.0,0.0,0.0,0.0,0.0,0.0,0.0,0.0,0.0,0.0,0.0,0.0,0.0,0.2155,0.2155,0.2182,0.2196,0.0,0.2223,0.2237,0.2237,0.2243,0.2244,0.2241,0.2241,0.2224,0.2196,0.2196,0.2179,0.2155,0.2155,0.2155,0.2155,0.2155,0.2155,0.2155,0.2155,0.2155,0.2155,0.2155,0.2155,0.202,0.0942,0.0538,0.0538,0.0538,0.0538,0.0673,0.175,0.2155,0.2155,0.2155,0.2155,0.2155,0.2155,0.2155,0.2155,0.2155,0.2155,0.2155,0.2155,0.2155,0.2155,0.2155,0.2155,0.2155,0.2155,0.2155,0.2155,0.2155,0.2155,0.2155,0.2155,0.2155,0.2155,0.2155,0.2155,0.2155,0.2155,0.2155,0.2155,0.2155,0.2155,0.2155,0.2155,0.2155,0.2155,0.2155,0.2155,0.2155,0.0,0.0,0.0,0.0,0.0,0.0,0.0,0.0,0.0,0.0,0.0,0.0,0.0,0.0,0.0,0.0,0.0,0.0,0.0,0.0,0.0,0.0,0.0,0.0,0.0,0.0,0.0,0.0,0.0,0.0,0.0,0.0,0.0,0.0,0.2155,0.2155,0.2155,0.2161,0.2164,0.0,0.2171,0.2174,0.2176,0.2223,0.2232,0.221,0.221,0.2193,0.2164,0.2164,0.2161,0.2155,0.2155,0.2155,0.2155,0.2155,0.2155,0.2155,0.2155,0.2155,0.2155,0.2155,0.2155,0.2155,0.1885,0.1212,0.0538,0.0538,0.0538,0.0538,0.0808,0.1481,0.2155,0.2155,0.2155,0.2155,0.2155,0.2155,0.2155,0.2155,0.2155,0.2155,0.2155,0.2155,0.2155,0.2155,0.2155,0.2155,0.2155,0.2155,0.2155,0.2155,0.2155,0.2155,0.2155,0.2155,0.2155,0.2155,0.2155,0.2155,0.2155,0.2155,0.2155,0.2155,0.2155,0.2155,0.2155,0.2155,0.2155,0.2155,0.2155,0.2155,0.0,0.0,0.0,0.0,0.0,0.0,0.0,0.0,0.0,0.0,0.0,0.0,0.0,0.0,0.0,0.0,0.0,0.0,0.0,0.0,0.0,0.0,0.0,0.0,0.0,0.0,0.0,0.0,0.0,0.0,0.0,0.0,0.0,0.0,0.2155,0.2155,0.2155,0.2155,0.2155,0.2155,0.2155,0.2155,0.2156,0.2187,0.2193,0.2178,0.2178,0.217,0.2155,0.2155,0.2155,0.2155,0.2155,0.2155,0.2155,0.2155,0.2155,0.2155,0.2155,0.2155,0.2155,0.2155,0.2155,0.2155,0.2155,0.175,0.1346,0.1346,0.1346,0.1346,0.1346,0.175,0.2155,0.2155,0.2155,0.2155,0.2155,0.2155,0.2155,0.2155,0.2155,0.2155,0.2155,0.2155,0.2155,0.2155,0.2155,0.2155,0.2155,0.2155,0.2155,0.2155,0.2155,0.2155,0.2155,0.2155,0.2155,0.2155,0.2155,0.2155,0.2155,0.2155,0.2155,0.2155,0.2155,0.2155,0.2155,0.2155,0.2155,0.2155,0.2155,0.2155,0.0,0.0,0.0,0.0,0.0,0.0,0.0,0.0,0.0,0.0,0.0,0.0,0.0,0.0,0.0,0.0,0.0,0.0,0.0,0.0,0.0,0.0,0.0,0.0,0.0,0.0,0.0,0.0,0.0,0.0,0.0,0.0,0.2155,0.2155,0.2155,0.2155,0.2155,0.2155,0.2155,0.2155,0.2155,0.2155,0.2155,0.2155,0.2155,0.2155,0.2155,0.2155,0.2155,0.2155,0.2155,0.2155,0.2155,0.2155,0.2155,0.2155,0.2155,0.2155,0.2155,0.2155,0.2155,0.2155,0.2155,0.2155,0.2155,0.2155,0.2155,0.2155,0.2155,0.2155,0.2155,0.2155,0.2155,0.2155,0.2155,0.2155,0.2155,0.2155,0.2155,0.2155,0.2155,0.2155,0.2155,0.2155,0.2155,0.2155,0.2155,0.2155,0.2155,0.2155,0.2155,0.2155,0.2155,0.2155,0.2155,0.2155,0.2155,0.2155,0.2155,0.2155,0.2155,0.2155,0.2155,0.2155,0.2155,0.2155,0.2155,0.2155,0.2155,0.2155,0.2155,0.2155,0.0,0.0,0.0,0.0,0.0,0.0,0.0,0.0,0.0,0.0,0.0,0.0,0.0,0.0,0.0,0.0,0.0,0.0,0.0,0.0,0.0,0.0,0.0,0.0,0.0,0.0,0.0,0.0,0.0,0.0,0.0,0.2155,0.2155,0.2155,0.2155,0.2155,0.2155,0.2155,0.2155,0.2155,0.2155,0.2155,0.2155,0.2155,0.2155,0.2155,0.2155,0.2155,0.2155,0.2155,0.2155,0.2155,0.2155,0.2155,0.2155,0.2155,0.2155,0.2155,0.2155,0.2155,0.2155,0.2155,0.2155,0.2155,0.2155,0.2155,0.2155,0.2155,0.2155,0.2155,0.2155,0.2155,0.2155,0.2155,0.2155,0.2155,0.2155,0.2155,0.2155,0.2155,0.2155,0.2155,0.2155,0.2155,0.2155,0.2155,0.2155,0.2155,0.2155,0.2155,0.2155,0.2155,0.2155,0.2155,0.2155,0.2155,0.2155,0.2155,0.2155,0.2155,0.2155,0.2155,0.2155,0.2155,0.2155,0.2155,0.2155,0.2155,0.2155,0.2155,0.2155,0.2155,0.0,0.0,0.0,0.0,0.0,0.0,0.0,0.0,0.0,0.0,0.0,0.0,0.0,0.0,0.0,0.0,0.0,0.0,0.0,0.0,0.0,0.0,0.0,0.0,0.0,0.0,0.0,0.0,0.0,0.0,0.2155,0.2155,0.2155,0.2155,0.2155,0.2155,0.2155,0.2155,0.2155,0.2155,0.2155,0.2155,0.2155,0.2155,0.2155,0.2155,0.2155,0.2155,0.2155,0.2155,0.2155,0.2155,0.2155,0.2155,0.2155,0.2155,0.2155,0.2155,0.2155,0.2155,0.2155,0.2155,0.2155,0.2155,0.2155,0.2155,0.2155,0.2155,0.2155,0.2155,0.2155,0.2155,0.2155,0.2155,0.2155,0.2155,0.2155,0.2155,0.2155,0.2155,0.2155,0.2155,0.2155,0.2155,0.2155,0.2155,0.2155,0.2155,0.2155,0.2155,0.2155,0.2155,0.2155,0.2155,0.2155,0.2155,0.2155,0.2155,0.2155,0.2155,0.2155,0.2155,0.2155,0.2155,0.2155,0.2155,0.2155,0.2155,0.2155,0.2155,0.2155,0.2155,0.0,0.0,0.0,0.0,0.0,0.0,0.0,0.0,0.0,0.0,0.0,0.0,0.0,0.0,0.0,0.0,0.0,0.0,0.0,0.0,0.0,0.0,0.0,0.0,0.0,0.0,0.0,0.0,0.0,0.0,0.2155,0.2155,0.2155,0.2155,0.2155,0.2155,0.2155,0.2155,0.2155,0.2155,0.2155,0.2155,0.2155,0.2155,0.2155,0.2155,0.2155,0.2155,0.2155,0.2155,0.2155,0.2155,0.2155,0.2155,0.2155,0.2155,0.2155,0.2155,0.2155,0.2155,0.2155,0.2155,0.2155,0.2155,0.2155,0.2155,0.2155,0.2155,0.2155,0.2155,0.2155,0.2155,0.2155,0.2155,0.2155,0.2155,0.2155,0.2155,0.2155,0.2155,0.2155,0.2155,0.2155,0.2155,0.2155,0.2155,0.2155,0.2155,0.2155,0.2155,0.2155,0.2155,0.2155,0.2155,0.2155,0.2155,0.2155,0.2155,0.2155,0.2155,0.2155,0.2155,0.2155,0.2155,0.2155,0.2155,0.2155,0.2155,0.2155,0.2155,0.2155,0.2155,0.0,0.0,0.0,0.0,0.0,0.0,0.0,0.0,0.0,0.0,0.0,0.0,0.0,0.0,0.0,0.0,0.0,0.0,0.0,0.0,0.0,0.0,0.0,0.0,0.0,0.0,0.0,0.0,0.0,0.0,0.2155,0.2155,0.2155,0.2155,0.2155,0.2155,0.2155,0.2155,0.2155,0.2155,0.2155,0.2155,0.2155,0.2155,0.2155,0.2155,0.2155,0.2155,0.2155,0.2155,0.2155,0.2155,0.2155,0.2155,0.2155,0.2155,0.2155,0.2155,0.2155,0.2155,0.2155,0.2155,0.2155,0.2155,0.2155,0.2155,0.2155,0.2155,0.2155,0.2155,0.2155,0.2155,0.2155,0.2155,0.2155,0.2155,0.2155,0.2155,0.2155,0.2155,0.2155,0.2155,0.2155,0.2155,0.2155,0.2155,0.2155,0.2155,0.2155,0.2155,0.2155,0.2155,0.2155,0.2155,0.2155,0.2155,0.2155,0.2155,0.2155,0.2155,0.2155,0.2155,0.2155,0.2155,0.2155,0.2155,0.2155,0.2155,0.2155,0.2155,0.2155,0.2155,0.0,0.0,0.0,0.0,0.0,0.0,0.0,0.0,0.0,0.0,0.0,0.0,0.0,0.0,0.0,0.0,0.0,0.0,0.0,0.0,0.0,0.0,0.0,0.0,0.0,0.0,0.0,0.0,0.0,0.0,0.2155,0.2155,0.2155,0.2155,0.2155,0.2155,0.2155,0.2155,0.2155,0.2155,0.2155,0.2155,0.2155,0.2155,0.2155,0.2155,0.2155,0.2155,0.2155,0.2155,0.2155,0.2155,0.2155,0.2155,0.2155,0.2155,0.2155,0.2155,0.2155,0.2155,0.2155,0.2155,0.2155,0.2155,0.2155,0.2155,0.2155,0.2155,0.2155,0.2155,0.2155,0.2155,0.2155,0.2155,0.2155,0.2155,0.2155,0.2155,0.2155,0.2155,0.2155,0.2155,0.2155,0.2155,0.2155,0.2155,0.2155,0.2155,0.2155,0.2155,0.2155,0.2155,0.2155,0.2155,0.2155,0.2155,0.2155,0.2155,0.2155,0.2155,0.2155,0.2155,0.2155,0.2155,0.2155,0.2155,0.2155,0.2155,0.2155,0.2155,0.2155,0.2155,0.0,0.0,0.0,0.0,0.0,0.0,0.0,0.0,0.0,0.0,0.0,0.0,0.0,0.0,0.0,0.0,0.0,0.0,0.0,0.0,0.0,0.0,0.0,0.0,0.0,0.0,0.0,0.0,0.0,0.0,0.2155,0.2155,0.2155,0.2155,0.2155,0.2155,0.2155,0.2155,0.2155,0.2155,0.2155,0.2155,0.2155,0.2155,0.2155,0.2155,0.2155,0.2155,0.2155,0.2155,0.2155,0.2155,0.2155,0.2155,0.2155,0.2155,0.2155,0.2155,0.2155,0.2155,0.2155,0.2155,0.2155,0.2155,0.2155,0.2155,0.2155,0.2155,0.2155,0.2155,0.2155,0.2155,0.2155,0.2155,0.2155,0.2155,0.2155,0.2155,0.2155,0.2155,0.2155,0.2155,0.2155,0.2155,0.2155,0.2155,0.2155,0.2155,0.2155,0.2155,0.2155,0.2155,0.2155,0.2155,0.2155,0.2155,0.2155,0.2155,0.2155,0.2155,0.2155,0.2155,0.2155,0.2155,0.2155,0.2155,0.2155,0.2155,0.2155,0.2155,0.2155,0.2155,0.0,0.0,0.0,0.0,0.0,0.0,0.0,0.0,0.0,0.0,0.0,0.0,0.0,0.0,0.0,0.0,0.0,0.0,0.0,0.0,0.0,0.0,0.0,0.0,0.0,0.0,0.0,0.0,0.0,0.2155,0.2155,0.2155,0.2155,0.2155,0.2155,0.2155,0.2155,0.2155,0.2155,0.2155,0.2155,0.2155,0.2155,0.2155,0.2155,0.2155,0.2155,0.2155,0.2155,0.2155,0.2155,0.2155,0.2155,0.2155,0.2155,0.2155,0.2155,0.2155,0.2155,0.2155,0.2155,0.2155,0.2155,0.2155,0.2155,0.2155,0.2155,0.2155,0.2155,0.2155,0.2155,0.2155,0.2155,0.2155,0.2155,0.2155,0.2155,0.2155,0.2155,0.2155,0.2155,0.2155,0.2155,0.2155,0.2155,0.2155,0.2155,0.2155,0.2155,0.2155,0.2155,0.2155,0.2155,0.2155,0.2155,0.2155,0.2155,0.2155,0.2155,0.2155,0.2155,0.2155,0.2155,0.2155,0.2155,0.2155,0.2155,0.2155,0.2155,0.2155,0.2155,0.2155,0.091,0.0,0.0,0.0,0.0,0.0,0.0,0.0,0.0,0.0,0.0,0.0,0.0,0.0,0.0,0.0,0.0,0.0,0.0,0.0,0.0,0.0,0.0,0.0,0.0,0.0,0.0,0.0,0.2142,0.2155,0.2155,0.2155,0.2155,0.2155,0.2155,0.2155,0.2155,0.2155,0.2155,0.2155,0.2155,0.2155,0.2155,0.2155,0.2155,0.2155,0.2155,0.2155,0.2155,0.2155,0.2155,0.2155,0.2155,0.2155,0.2155,0.2155,0.2155,0.2155,0.2155,0.2155,0.2155,0.2155,0.2155,0.2155,0.2155,0.2155,0.2155,0.2155,0.2155,0.2155,0.2155,0.2155,0.2155,0.2155,0.2155,0.2155,0.2155,0.2155,0.2155,0.2155,0.2155,0.2155,0.2155,0.2155,0.2155,0.2155,0.2155,0.2155,0.2155,0.2155,0.2155,0.2155,0.2155,0.2155,0.2155,0.2155,0.2155,0.2155,0.2155,0.2155,0.2155,0.2155,0.2155,0.2155,0.2155,0.2155,0.2155,0.2155,0.2155,0.2155,0.2155,0.2155,0.0,0.0,0.0,0.0,0.0,0.0,0.0,0.0,0.0,0.0,0.0,0.0,0.0,0.0,0.0,0.0,0.0,0.0,0.0,0.0,0.0,0.0,0.0,0.0,0.0,0.0,0.0,0.0,0.2119,0.2142,0.2154,0.2155,0.2155,0.2155,0.2155,0.2155,0.2155,0.2155,0.2155,0.2155,0.2155,0.2155,0.2155,0.2155,0.2155,0.2155,0.2155,0.2155,0.2155,0.2155,0.2155,0.2155,0.2155,0.2155,0.2155,0.2155,0.2155,0.2155,0.2155,0.2155,0.2155,0.2155,0.2155,0.2155,0.2155,0.2155,0.2155,0.2155,0.2155,0.2155,0.2155,0.2155,0.2155,0.2155,0.2155,0.2155,0.2155,0.2155,0.2155,0.2155,0.2155,0.2155,0.2155,0.2155,0.2155,0.2155,0.2155,0.2155,0.2155,0.2155,0.2155,0.2155,0.2155,0.2155,0.2155,0.2155,0.2155,0.2155,0.2155,0.2155,0.2155,0.2155,0.2155,0.2155,0.2155,0.2155,0.2155,0.2155,0.2155,0.2155,0.2155,0.2155,0.0,0.1079,0.0,0.0,0.0,0.0,0.0,0.1234,0.0,0.0,0.0,0.0,0.0,0.0,0.0,0.0,0.0,0.0,0.0,0.0,0.0,0.0,0.0,0.0,0.0,0.0,0.2056,0.2059,0.2087,0.2118,0.2148,0.215,0.2151,0.2155,0.2155,0.2155,0.2155,0.2155,0.2155,0.2155,0.2155,0.2155,0.2155,0.2155,0.2155,0.2155,0.2155,0.2155,0.2155,0.2155,0.2155,0.2155,0.2155,0.2155,0.2155,0.2155,0.2155,0.2155,0.2155,0.2155,0.2155,0.2155,0.2155,0.2155,0.2155,0.2155,0.2155,0.2155,0.2155,0.2155,0.2155,0.2155,0.2155,0.2155,0.2155,0.2155,0.2155,0.2155,0.2155,0.2155,0.2155,0.2155,0.2155,0.2155,0.2155,0.2155,0.2155,0.2155,0.2155,0.2155,0.2155,0.2155,0.2155,0.2155,0.2155,0.2155,0.2155,0.2155,0.2155,0.2155,0.2155,0.2155,0.2155,0.2155,0.2155,0.2155,0.2155,0.2155,0.2155,0.2155,0.2155,0.2155,0.1224,0.1236,0.1245,0.0,0.0,0.0,0.0,0.1113,0.0,0.0,0.0,0.0,0.0,0.0,0.0,0.0,0.0,0.0,0.0,0.0,0.0,0.0,0.0,0.0,0.0,0.0,0.2003,0.2025,0.2055,0.2086,0.2116,0.2118,0.2129,0.2154,0.2155,0.2155,0.2155,0.2155,0.2155,0.2155,0.2155,0.2155,0.2155,0.2155,0.2155,0.2155,0.2155,0.2155,0.2155,0.2155,0.2155,0.2155,0.2155,0.2155,0.2155,0.2155,0.2155,0.2155,0.2155,0.2155,0.2155,0.2155,0.2155,0.2155,0.2155,0.2155,0.2155,0.2155,0.2155,0.2155,0.2155,0.2155,0.2155,0.2155,0.2155,0.2155,0.2155,0.2155,0.2155,0.2155,0.2155,0.2155,0.2155,0.2155,0.2155,0.2155,0.2155,0.2155,0.2155,0.2155,0.2155,0.2155,0.2155,0.2155,0.2155,0.2155,0.2155,0.2155,0.2155,0.2155,0.2155,0.2155,0.2155,0.2155,0.2155,0.2155,0.2155,0.2155,0.2155,0.2155,0.2155,0.2155,0.0,0.0,0.1354,0.1293,0.0,0.0,0.0,0.0,0.0,0.0,0.0,0.0,0.0,0.0,0.0,0.0,0.0,0.0,0.0,0.0,0.0,0.0,0.0,0.0,0.0,0.0,0.1933,0.1993,0.2011,0.2039,0.2084,0.2086,0.2101,0.2131,0.2132,0.2139,0.2155,0.2155,0.2155,0.2155,0.2155,0.2155,0.2155,0.2155,0.2155,0.2155,0.2155,0.2155,0.2155,0.2155,0.2155,0.2155,0.2155,0.2155,0.2155,0.2155,0.2155,0.2155,0.2155,0.2155,0.2155,0.2155,0.2155,0.2155,0.2155,0.2155,0.2155,0.2155,0.2155,0.2155,0.2155,0.2155,0.2155,0.2155,0.2155,0.2155,0.2155,0.2155,0.2155,0.2155,0.2155,0.2155,0.2155,0.2155,0.2155,0.2155,0.2155,0.2155,0.2155,0.2155,0.2155,0.2155,0.2155,0.2155,0.2155,0.2155,0.2155,0.2155,0.2155,0.2155,0.2155,0.2155,0.2155,0.2155,0.2155,0.2155,0.2155,0.2155,0.2155,0.2155,0.2155,0.2155,0.0,0.0,0.0,0.0,0.0,0.1318,0.0,0.0,0.0,0.132,0.0,0.0,0.0,0.0,0.0,0.0,0.0,0.0,0.0,0.0,0.0,0.0,0.0,0.0,0.0,0.0,0.1847,0.1943,0.1934,0.196,0.2043,0.2047,0.2063,0.2099,0.2106,0.2121,0.2146,0.2152,0.2155,0.2155,0.2155,0.2155,0.2155,0.2155,0.2155,0.2155,0.2155,0.2155,0.2155,0.2155,0.2155,0.2155,0.2155,0.2155,0.2155,0.2155,0.2155,0.2155,0.2155,0.2155,0.2155,0.2155,0.2155,0.2155,0.2155,0.2155,0.2155,0.2155,0.2155,0.2155,0.2155,0.2155,0.2155,0.2155,0.2155,0.2155,0.2155,0.2155,0.2155,0.2155,0.2155,0.2155,0.2155,0.2155,0.2155,0.2155,0.2155,0.2155,0.2155,0.2155,0.2155,0.2155,0.2155,0.2155,0.2155,0.2155,0.2155,0.2155,0.2155,0.2155,0.2155,0.2155,0.2155,0.2155,0.2155,0.2155,0.2155,0.2155,0.2155,0.2155,0.2155,0.2155,0.0,0.0,0.0,0.0,0.1504,0.0,0.0,0.0,0.1294,0.1176,0.0,0.0,0.0,0.0,0.0,0.0,0.0,0.0,0.0,0.0,0.0,0.0,0.0,0.0,0.0,0.0,0.0,0.1847,0.1781,0.1808,0.1977,0.1986,0.2011,0.2067,0.2095,0.2111,0.2114,0.2141,0.2155,0.2155,0.2155,0.2155,0.2155,0.2155,0.2155,0.2155,0.2155,0.2155,0.2155,0.2155,0.2155,0.2155,0.2155,0.2155,0.2155,0.2155,0.2155,0.2155,0.2155,0.2155,0.2155,0.2155,0.2155,0.2155,0.2155,0.2155,0.2155,0.2155,0.2155,0.2155,0.2155,0.2155,0.2155,0.2155,0.2155,0.2155,0.2155,0.2155,0.2155,0.2155,0.2155,0.2155,0.2155,0.2155,0.2155,0.2155,0.2155,0.2155,0.2155,0.2155,0.2155,0.2155,0.2155,0.2155,0.2155,0.2155,0.2155,0.2155,0.2155,0.2155,0.2155,0.2155,0.2155,0.2155,0.2155,0.2155,0.2155,0.2155,0.2155,0.2155,0.2155,0.2155,0.0,0.0,0.0,0.0,0.0,0.0,0.1312,0.0,0.1292,0.0,0.0,0.0,0.0,0.0,0.0,0.0,0.0,0.0,0.0,0.0,0.0,0.0,0.0,0.0,0.0,0.0,0.0,0.0,0.0,0.1733,0.1914,0.1924,0.1959,0.2035,0.205,0.2074,0.2109,0.2122,0.2137,0.2155,0.2155,0.2155,0.2155,0.2155,0.2155,0.2155,0.2155,0.2155,0.2155,0.2155,0.2155,0.2155,0.2155,0.2155,0.2155,0.2155,0.2155,0.2155,0.2155,0.2155,0.2155,0.2155,0.2155,0.2155,0.2155,0.2155,0.2155,0.2155,0.2155,0.2155,0.2155,0.2155,0.2155,0.2155,0.2155,0.2155,0.2155,0.2155,0.2155,0.2155,0.2155,0.2155,0.2155,0.2155,0.2155,0.2155,0.2155,0.2155,0.2155,0.2155,0.2155,0.2155,0.2155,0.2155,0.2155,0.2155,0.2155,0.2155,0.2155,0.2155,0.2155,0.2155,0.2155,0.2155,0.2155,0.2155,0.2155,0.2155,0.2155,0.2155,0.2155,0.2155,0.1639,0.0,0.0,0.0,0.0,0.0,0.0,0.0,0.0,0.0,0.0,0.0,0.0,0.0,0.0,0.0,0.0,0.0,0.0,0.0,0.0,0.0,0.0,0.0,0.0,0.0,0.0,0.0,0.0,0.0,0.1838,0.1864,0.1911,0.1992,0.201,0.2039,0.2084,0.2101,0.2121,0.2142,0.2151,0.2155,0.2155,0.2155,0.2155,0.2155,0.2155,0.2155,0.2155,0.2155,0.2155,0.2155,0.2155,0.2155,0.2155,0.2155,0.2155,0.2155,0.2155,0.2155,0.2155,0.2155,0.2155,0.2155,0.2155,0.2155,0.2155,0.2155,0.2155,0.2155,0.2155,0.2155,0.2155,0.2155,0.2155,0.2155,0.2155,0.2155,0.2155,0.2155,0.2155,0.2155,0.2155,0.2155,0.2155,0.2155,0.2155,0.2155,0.2155,0.2155,0.2155,0.2155,0.2155,0.2155,0.2155,0.2155,0.2155,0.2155,0.2155,0.2155,0.2155,0.2155,0.2155,0.2155,0.2155,0.2155,0.2155,0.2155,0.2155,0.2155,0.2155,0.2155,0.0,0.0,0.0,0.1483,0.0,0.0,0.0,0.0,0.1414,0.0,0.0,0.0,0.0,0.0,0.0,0.0,0.0,0.0,0.0,0.0,0.0,0.0,0.0,0.0,0.0,0.0,0.0,0.0,0.0,0.0,0.1741,0.181,0.187,0.1932,0.1989,0.202,0.2021,0.208,0.211,0.2111,0.2141,0.2155,0.2155,0.2155,0.2155,0.2155,0.2155,0.2155,0.2155,0.2155,0.2155,0.2155,0.2155,0.2155,0.2155,0.2155,0.2155,0.2155,0.2155,0.2155,0.2155,0.2155,0.2155,0.2155,0.2155,0.2155,0.2155,0.2155,0.2155,0.2155,0.2155,0.2155,0.2155,0.2155,0.2155,0.2155,0.2155,0.2155,0.2155,0.2155,0.2155,0.2155,0.2155,0.2155,0.2155,0.2155,0.2155,0.2155,0.2155,0.2155,0.2155,0.2155,0.2155,0.2155,0.2155,0.2155,0.2155,0.2155,0.2155,0.2155,0.2155,0.2155,0.2155,0.2155,0.2155,0.2155,0.2155,0.2155,0.2155,0.2155,0.2155,0.2155,0.0,0.0,0.1731,0.159,0.0,0.0,0.0,0.0,0.0,0.0,0.0,0.0,0.0,0.0,0.0,0.0,0.0,0.0,0.0,0.0,0.0,0.0,0.0,0.0,0.0,0.0,0.0,0.0,0.0,0.0,0.0,0.1767,0.1838,0.1899,0.196,0.1999,0.2018,0.2059,0.2089,0.211,0.214,0.2155,0.2155,0.2155,0.2155,0.2155,0.2155,0.2155,0.2155,0.2155,0.2155,0.2155,0.2155,0.2155,0.2155,0.2155,0.2155,0.2155,0.2155,0.2155,0.2155,0.2155,0.2155,0.2155,0.2155,0.2155,0.2155,0.2155,0.2155,0.2155,0.2155,0.2155,0.2155,0.2155,0.2155,0.2155,0.2155,0.2155,0.2155,0.2155,0.2155,0.2155,0.2155,0.2155,0.2155,0.2155,0.2155,0.2155,0.2155,0.2155,0.2155,0.2155,0.2155,0.2155,0.2155,0.2155,0.2155,0.2155,0.2155,0.2155,0.2155,0.2155,0.2155,0.2155,0.2155,0.2155,0.2155,0.2155,0.2155,0.2155,0.2155,0.2155,0.1785,0.1796,0.0,0.1675,0.1633,0.0,0.1429,0.0,0.0,0.0,0.0,0.0,0.0,0.0,0.0,0.0,0.0,0.0,0.0,0.0,0.0,0.0,0.0,0.0,0.0,0.0,0.1264,0.1367,0.0,0.0,0.0,0.0,0.1807,0.1868,0.1929,0.1975,0.2003,0.2033,0.2063,0.2093,0.2124,0.2144,0.2155,0.2155,0.2155,0.2155,0.2155,0.2155,0.2155,0.2155,0.2155,0.2155,0.2155,0.2155,0.2155,0.2155,0.2155,0.2155,0.2155,0.2155,0.2155,0.2155,0.2155,0.2155,0.2155,0.2155,0.2155,0.2155,0.2155,0.2155,0.2155,0.2155,0.2155,0.2155,0.2155,0.2155,0.2155,0.2155,0.2155,0.2155,0.2155,0.2155,0.2155,0.2155,0.2155,0.2155,0.2155,0.2155,0.2155,0.2155,0.2155,0.2155,0.2155,0.2155,0.2155,0.2155,0.2155,0.2155,0.2155,0.2155,0.2155,0.2155,0.2155,0.2155,0.2155,0.2155,0.2155,0.2155,0.2155,0.2155,0.2155,0.2155]},{"header":{"parameterUnit":"m.s-1","parameterCategory":1,"la1":30.6,"la2":29.2853,"lo1":-89.7004,"lo2":-87.6739,"dy":0.0162,"dx":0.0183,"nx":112,"ny":82,"refTime":"2024-08-02T06:00:00:Z","depth":0,"parameterNumber":3,"parameterNumberName":"V-component_of_WINDS"},"data":[0.0,0.0,0.0,0.0,0.0,0.0,0.0,0.0,0.0,0.0,0.0,0.0,0.0,0.0,0.0,0.0,0.0,0.0,0.0,0.0,0.0,0.0,0.0,0.0,0.0,0.0,0.0,0.0,0.0,0.0,0.0,0.0,0.0,0.0,0.0,0.0,0.0,0.0,0.0,0.0,0.0,0.0,0.0,0.0,0.0,0.0,0.0,0.0,0.0,0.0,0.0,0.0,0.0,0.0,0.0,0.0,0.0,0.0,0.0,0.0,0.0,0.0,0.0,0.0,0.0,0.0,0.0,0.0,0.0,0.0,0.0,0.0,0.0,0.0,0.0,0.0,0.0,0.0,0.0,0.0,0.0,0.0,0.0,0.0,0.0,0.0,0.0,0.0,0.0,0.0,0.0,-3.083,-3.5993,-3.9145,-3.9011,-3.8712,-3.6213,-3.0753,0.0,0.0,0.0,0.0,0.0,0.0,0.0,0.0,0.0,0.0,0.0,0.0,0.0,0.0,0.0,0.0,0.0,0.0,0.0,0.0,0.0,0.0,0.0,0.0,0.0,0.0,0.0,0.0,0.0,0.0,0.0,0.0,0.0,0.0,0.0,0.0,0.0,0.0,0.0,0.0,0.0,0.0,0.0,0.0,0.0,0.0,0.0,0.0,0.0,0.0,0.0,0.0,0.0,0.0,0.0,0.0,0.0,0.0,0.0,0.0,0.0,0.0,0.0,0.0,0.0,0.0,0.0,0.0,0.0,0.0,0.0,0.0,0.0,0.0,0.0,0.0,0.0,0.0,0.0,0.0,0.0,0.0,0.0,0.0,0.0,0.0,0.0,0.0,0.0,0.0,0.0,0.0,0.0,0.0,0.0,0.0,0.0,0.0,0.0,0.0,0.0,0.0,0.0,0.0,-2.7995,-3.4827,-3.8285,-3.9814,-3.9069,-3.7183,-3.4691,-3.1499,0.0,0.0,0.0,0.0,0.0,0.0,0.0,0.0,0.0,0.0,0.0,0.0,0.0,0.0,0.0,0.0,0.0,0.0,0.0,0.0,0.0,0.0,0.0,0.0,0.0,0.0,0.0,0.0,0.0,0.0,0.0,0.0,0.0,0.0,0.0,0.0,0.0,0.0,0.0,0.0,0.0,0.0,0.0,0.0,0.0,0.0,0.0,0.0,0.0,0.0,0.0,0.0,0.0,0.0,0.0,0.0,0.0,0.0,0.0,0.0,0.0,0.0,0.0,0.0,0.0,0.0,0.0,0.0,0.0,0.0,0.0,0.0,0.0,0.0,0.0,0.0,0.0,0.0,0.0,0.0,0.0,0.0,0.0,0.0,0.0,0.0,0.0,0.0,0.0,0.0,0.0,0.0,0.0,0.0,0.0,0.0,0.0,0.0,0.0,0.0,0.0,0.0,0.0,-2.7586,-3.0777,-3.6547,-3.9049,-3.9966,-3.9118,-3.73,-3.4879,-3.1749,-2.7612,0.0,0.0,0.0,0.0,0.0,0.0,0.0,0.0,0.0,0.0,0.0,0.0,0.0,0.0,0.0,0.0,0.0,0.0,0.0,0.0,0.0,0.0,0.0,0.0,0.0,0.0,0.0,0.0,0.0,0.0,0.0,0.0,0.0,0.0,0.0,0.0,0.0,0.0,0.0,0.0,0.0,0.0,0.0,0.0,0.0,0.0,0.0,0.0,0.0,0.0,0.0,0.0,0.0,0.0,0.0,0.0,0.0,0.0,0.0,0.0,0.0,0.0,0.0,0.0,0.0,0.0,0.0,0.0,0.0,0.0,0.0,0.0,0.0,0.0,0.0,0.0,0.0,0.0,0.0,0.0,0.0,0.0,0.0,0.0,0.0,0.0,0.0,0.0,0.0,0.0,0.0,0.0,0.0,0.0,0.0,0.0,0.0,0.0,0.0,0.0,0.0,0.0,-3.123,-3.3727,-3.7362,-3.9104,-3.9693,-3.8923,-3.687,-3.4301,-3.1212,-2.6158,0.0,0.0,0.0,0.0,0.0,0.0,0.0,0.0,0.0,0.0,0.0,0.0,0.0,0.0,0.0,0.0,0.0,0.0,0.0,0.0,0.0,0.0,0.0,0.0,0.0,0.0,0.0,0.0,0.0,0.0,0.0,0.0,0.0,0.0,0.0,0.0,0.0,0.0,0.0,0.0,0.0,0.0,0.0,0.0,0.0,0.0,0.0,0.0,0.0,0.0,0.0,0.0,0.0,0.0,0.0,0.0,0.0,0.0,0.0,0.0,0.0,0.0,0.0,0.0,0.0,0.0,0.0,0.0,0.0,0.0,0.0,0.0,0.0,0.0,0.0,0.0,0.0,0.0,0.0,0.0,0.0,0.0,0.0,0.0,0.0,0.0,0.0,0.0,0.0,0.0,0.0,0.0,0.0,0.0,0.0,0.0,0.0,0.0,0.0,0.0,0.0,0.0,-3.2105,-3.5825,-3.7682,-3.8665,-3.8904,-3.824,-3.4461,-3.1321,-2.941,-2.3805,0.0,0.0,0.0,0.0,0.0,0.0,0.0,0.0,0.0,0.0,0.0,0.0,0.0,0.0,0.0,0.0,0.0,0.0,0.0,0.0,0.0,0.0,0.0,0.0,0.0,0.0,0.0,0.0,0.0,0.0,0.0,0.0,0.0,0.0,0.0,0.0,0.0,0.0,0.0,0.0,0.0,0.0,0.0,0.0,0.0,0.0,0.0,0.0,0.0,0.0,0.0,0.0,0.0,0.0,0.0,0.0,0.0,0.0,0.0,0.0,0.0,0.0,0.0,0.0,0.0,0.0,0.0,0.0,0.0,0.0,0.0,0.0,0.0,0.0,0.0,0.0,0.0,0.0,0.0,0.0,0.0,0.0,0.0,0.0,0.0,0.0,0.0,0.0,0.0,0.0,0.0,0.0,0.0,0.0,0.0,0.0,0.0,0.0,0.0,0.0,0.0,0.0,-3.1371,-3.4963,0.0,-3.8744,-3.894,-3.8214,-3.524,-3.2193,-2.9341,0.0,0.0,0.0,0.0,0.0,0.0,0.0,0.0,0.0,0.0,0.0,0.0,0.0,0.0,0.0,0.0,0.0,0.0,0.0,0.0,0.0,0.0,0.0,0.0,0.0,0.0,0.0,0.0,0.0,0.0,0.0,0.0,0.0,0.0,0.0,0.0,0.0,0.0,0.0,0.0,0.0,0.0,0.0,0.0,0.0,0.0,0.0,0.0,0.0,0.0,0.0,0.0,0.0,0.0,0.0,0.0,0.0,0.0,0.0,0.0,0.0,0.0,0.0,0.0,0.0,0.0,0.0,0.0,0.0,0.0,0.0,0.0,0.0,0.0,0.0,0.0,0.0,0.0,0.0,0.0,0.0,0.0,0.0,0.0,0.0,0.0,0.0,0.0,0.0,0.0,0.0,0.0,0.0,0.0,0.0,0.0,0.0,0.0,0.0,0.0,0.0,0.0,-2.7225,-3.1317,-3.4936,0.0,-3.8621,-3.8755,-3.8296,-3.5175,-3.1979,-2.9031,0.0,0.0,0.0,0.0,0.0,0.0,0.0,0.0,0.0,0.0,0.0,0.0,0.0,0.0,0.0,0.0,0.0,0.0,0.0,0.0,0.0,0.0,0.0,0.0,0.0,0.0,0.0,0.0,0.0,0.0,0.0,0.0,0.0,0.0,0.0,0.0,0.0,0.0,0.0,0.0,0.0,0.0,0.0,0.0,0.0,0.0,0.0,0.0,0.0,0.0,0.0,0.0,0.0,0.0,0.0,0.0,0.0,0.0,0.0,0.0,0.0,0.0,0.0,0.0,0.0,0.0,0.0,0.0,0.0,0.0,0.0,0.0,0.0,0.0,0.0,0.0,0.0,0.0,0.0,0.0,0.0,0.0,0.0,0.0,0.0,0.0,0.0,0.0,0.0,0.0,0.0,0.0,0.0,0.0,0.0,0.0,0.0,0.0,0.0,0.0,0.0,0.0,-2.739,-3.2375,-3.6258,-3.8012,-3.8205,-3.8276,-3.8402,-3.3682,-2.9996,0.0,0.0,0.0,0.0,0.0,0.0,0.0,0.0,0.0,0.0,0.0,0.0,0.0,0.0,0.0,0.0,0.0,0.0,0.0,0.0,0.0,0.0,0.0,0.0,0.0,0.0,0.0,0.0,0.0,0.0,0.0,0.0,0.0,0.0,0.0,0.0,0.0,0.0,0.0,0.0,0.0,0.0,0.0,0.0,0.0,0.0,0.0,0.0,0.0,0.0,0.0,0.0,0.0,0.0,0.0,0.0,0.0,0.0,0.0,0.0,0.0,0.0,0.0,0.0,0.0,0.0,0.0,0.0,0.0,0.0,0.0,0.0,0.0,0.0,0.0,0.0,0.0,0.0,0.0,0.0,0.0,0.0,0.0,0.0,0.0,0.0,0.0,0.0,0.0,0.0,0.0,0.0,0.0,0.0,0.0,0.0,0.0,0.0,0.0,0.0,0.0,0.0,0.0,-2.7517,-3.2502,-3.6405,-3.8161,-3.8889,-3.9015,-3.8441,-3.5313,-3.186,-2.8322,0.0,0.0,0.0,0.0,0.0,0.0,0.0,0.0,0.0,0.0,0.0,0.0,0.0,0.0,0.0,0.0,0.0,0.0,0.0,0.0,0.0,0.0,0.0,0.0,0.0,0.0,0.0,0.0,0.0,0.0,0.0,0.0,0.0,0.0,0.0,0.0,0.0,0.0,0.0,0.0,0.0,0.0,0.0,0.0,0.0,0.0,0.0,0.0,0.0,0.0,0.0,0.0,0.0,0.0,0.0,0.0,0.0,0.0,0.0,0.0,0.0,0.0,0.0,0.0,0.0,0.0,0.0,0.0,0.0,0.0,0.0,0.0,0.0,0.0,0.0,0.0,0.0,0.0,0.0,0.0,0.0,0.0,0.0,0.0,0.0,0.0,0.0,0.0,0.0,0.0,0.0,0.0,0.0,0.0,0.0,0.0,0.0,0.0,0.0,0.0,0.0,0.0,-2.8554,-3.3292,-3.6984,-3.8732,-3.9392,-3.9353,-3.846,-3.6323,-3.3188,-2.8888,0.0,0.0,0.0,0.0,0.0,0.0,0.0,0.0,0.0,0.0,0.0,0.0,0.0,0.0,0.0,0.0,0.0,0.0,0.0,0.0,0.0,0.0,0.0,0.0,0.0,0.0,0.0,0.0,0.0,0.0,0.0,0.0,0.0,0.0,0.0,0.0,0.0,0.0,0.0,0.0,0.0,0.0,0.0,0.0,0.0,0.0,0.0,0.0,0.0,0.0,0.0,0.0,0.0,0.0,0.0,0.0,0.0,0.0,0.0,0.0,0.0,0.0,0.0,0.0,0.0,0.0,0.0,0.0,0.0,0.0,0.0,0.0,0.0,0.0,0.0,0.0,0.0,0.0,0.0,0.0,0.0,0.0,0.0,0.0,0.0,0.0,0.0,0.0,0.0,0.0,0.0,0.0,0.0,0.0,0.0,0.0,0.0,0.0,0.0,0.0,0.0,0.0,-3.004,-3.4395,-3.778,-3.9509,-3.9781,-3.947,-3.8596,-3.6925,-3.4167,-3.003,0.0,0.0,0.0,0.0,0.0,0.0,0.0,0.0,0.0,0.0,0.0,0.0,0.0,0.0,0.0,0.0,0.0,0.0,0.0,0.0,0.0,0.0,0.0,0.0,0.0,0.0,0.0,0.0,0.0,0.0,0.0,0.0,0.0,0.0,0.0,0.0,0.0,0.0,0.0,0.0,0.0,0.0,0.0,0.0,0.0,0.0,0.0,0.0,0.0,0.0,0.0,0.0,0.0,0.0,0.0,0.0,0.0,0.0,0.0,0.0,-2.8418,0.0,0.0,0.0,0.0,0.0,0.0,0.0,0.0,0.0,0.0,0.0,0.0,0.0,0.0,0.0,0.0,0.0,0.0,0.0,0.0,0.0,0.0,0.0,0.0,0.0,0.0,0.0,0.0,0.0,0.0,0.0,0.0,0.0,0.0,0.0,0.0,0.0,0.0,0.0,0.0,0.0,-3.0048,-3.4395,-3.778,-3.9509,-4.0266,-4.0305,-3.9489,-3.7819,-3.5585,-3.2652,-2.8631,0.0,0.0,0.0,0.0,0.0,0.0,0.0,0.0,0.0,0.0,0.0,0.0,0.0,0.0,0.0,0.0,0.0,0.0,0.0,0.0,0.0,0.0,0.0,0.0,0.0,0.0,0.0,0.0,0.0,0.0,0.0,0.0,0.0,0.0,0.0,0.0,0.0,0.0,0.0,0.0,0.0,0.0,0.0,0.0,0.0,0.0,0.0,0.0,0.0,0.0,0.0,0.0,0.0,0.0,0.0,0.0,0.0,0.0,0.0,0.0,-3.1404,0.0,0.0,0.0,0.0,0.0,0.0,0.0,0.0,0.0,0.0,0.0,0.0,0.0,0.0,0.0,0.0,0.0,0.0,0.0,0.0,0.0,0.0,0.0,0.0,0.0,0.0,0.0,0.0,0.0,0.0,0.0,0.0,0.0,0.0,0.0,0.0,0.0,0.0,0.0,0.0,-3.136,-3.5305,-3.8382,-4.0092,-4.0655,-4.0577,-3.9781,-3.8868,-3.7061,-3.407,-3.1409,0.0,0.0,0.0,0.0,0.0,0.0,0.0,0.0,0.0,0.0,0.0,0.0,0.0,0.0,0.0,0.0,0.0,0.0,0.0,0.0,0.0,0.0,0.0,0.0,0.0,0.0,0.0,0.0,0.0,0.0,0.0,0.0,0.0,0.0,0.0,0.0,0.0,0.0,0.0,0.0,0.0,0.0,0.0,0.0,0.0,0.0,0.0,0.0,0.0,0.0,0.0,0.0,0.0,-3.9237,-4.0208,-4.2228,-4.1577,-4.206,-4.3191,-3.884,-3.7292,-3.7514,0.0,0.0,0.0,0.0,0.0,0.0,0.0,0.0,0.0,0.0,0.0,0.0,0.0,0.0,0.0,0.0,0.0,0.0,0.0,0.0,0.0,0.0,0.0,0.0,0.0,-3.7717,-3.7759,0.0,0.0,0.0,0.0,0.0,0.0,0.0,0.0,0.0,0.0,0.0,0.0,-3.3177,-3.6595,-3.9217,-4.0733,-4.0907,-4.0635,-3.9975,-3.9781,-3.8479,-3.5585,-3.4361,-3.2089,0.0,0.0,0.0,0.0,0.0,0.0,0.0,0.0,0.0,0.0,0.0,0.0,0.0,0.0,0.0,0.0,0.0,0.0,0.0,0.0,0.0,0.0,0.0,0.0,0.0,0.0,0.0,0.0,0.0,0.0,0.0,0.0,-2.4818,-2.5931,0.0,0.0,0.0,0.0,0.0,0.0,0.0,0.0,0.0,0.0,0.0,0.0,0.0,0.0,-3.7877,-4.1684,-4.3724,-4.3976,-4.6074,-4.7259,-4.757,-4.7544,-4.763,-4.7815,-4.7128,0.0,-4.044,-3.9875,0.0,0.0,0.0,0.0,0.0,0.0,0.0,0.0,0.0,0.0,0.0,0.0,0.0,0.0,0.0,0.0,0.0,0.0,0.0,0.0,0.0,0.0,-4.2221,-4.1454,-4.213,-4.2468,0.0,-3.6391,-3.2162,-3.0102,-2.7893,0.0,0.0,0.0,0.0,0.0,0.0,0.0,-3.4925,-3.7858,-3.9878,-4.0791,-4.0907,-4.0869,-4.0752,-4.0111,-3.9509,-3.9043,-3.6789,-3.4886,-3.3546,-3.0651,0.0,0.0,0.0,0.0,0.0,0.0,0.0,0.0,0.0,0.0,0.0,0.0,0.0,0.0,0.0,0.0,0.0,0.0,0.0,0.0,0.0,0.0,0.0,0.0,0.0,0.0,0.0,0.0,0.0,-2.5278,-2.8598,-2.8981,-3.0302,-3.0263,0.0,0.0,0.0,0.0,0.0,0.0,0.0,0.0,0.0,-4.0771,-4.2034,-4.3141,-4.4112,-4.6482,-4.7902,-4.8419,-5.0013,-5.1064,-5.158,-5.1618,-5.1624,-5.1627,-5.1622,-5.0082,-4.7352,-4.4406,-4.1242,-3.8112,0.0,0.0,0.0,0.0,-3.7418,-3.7519,-4.1207,-4.1831,0.0,0.0,0.0,0.0,0.0,0.0,0.0,0.0,0.0,0.0,0.0,0.0,0.0,-4.3792,-4.448,-4.4997,-4.4578,-4.2025,-3.8876,0.0,-3.4133,-3.1936,-2.7434,0.0,0.0,0.0,0.0,0.0,-3.6895,-3.9509,-4.1238,-4.1587,-4.1626,-4.1432,-4.0946,-4.0577,-4.0189,-3.9742,-3.8635,-3.7392,-3.6012,-3.3584,-3.1059,0.0,0.0,0.0,0.0,0.0,0.0,0.0,0.0,0.0,0.0,0.0,0.0,0.0,0.0,0.0,0.0,0.0,0.0,0.0,0.0,0.0,0.0,0.0,0.0,0.0,0.0,0.0,0.0,-2.8838,-3.1771,-3.1972,-3.4245,-3.4556,0.0,0.0,0.0,0.0,0.0,0.0,-4.015,-4.1374,-4.3355,-4.6346,-4.722,-4.825,-4.9551,-5.0448,-5.1219,-5.1882,-5.2534,-5.3223,-5.39,-5.3908,-5.391,-5.3891,-5.3922,-5.3582,-5.2702,-4.8352,-4.5191,-4.2916,-4.1429,-3.9927,-3.8951,-4.1741,-4.235,-4.2376,-4.6495,-4.7061,-4.5753,-4.4465,0.0,-4.1498,-3.8297,0.0,0.0,0.0,0.0,-4.0238,-4.1987,-4.3392,-4.4528,-4.5184,-4.5831,-4.6277,-4.6211,-4.5679,-4.4148,0.0,-3.9364,-3.7521,-3.2644,0.0,0.0,0.0,0.0,-3.7479,-3.9185,-4.1226,-4.2548,-4.2557,-4.2371,-4.1954,-4.1313,-4.1041,-4.0663,-4.0071,-4.0032,-3.9343,-3.7838,-3.609,-3.4051,-3.172,0.0,0.0,0.0,0.0,0.0,0.0,0.0,0.0,0.0,0.0,0.0,0.0,0.0,0.0,0.0,0.0,0.0,0.0,0.0,0.0,0.0,0.0,0.0,0.0,0.0,0.0,0.0,0.0,0.0,-3.5449,-3.78,0.0,0.0,0.0,0.0,-3.7955,-3.9587,-4.2015,-4.5433,-4.722,-4.8988,-5.0814,-5.1668,-5.2115,-5.2212,-5.3144,-5.3623,-5.3662,-5.3777,-5.3853,-5.39,-5.3897,-5.3891,-5.3891,-5.3977,-5.3971,-5.3795,-5.1863,-5.0015,-4.8323,-4.7463,-4.6542,-4.5826,-4.6878,-4.7256,-4.7354,-4.8388,-4.8681,-4.8584,-4.8505,-4.6807,-4.4758,-4.4543,-4.2747,0.0,0.0,-4.3391,-4.384,-4.5597,-4.6105,-4.6183,-4.6222,-4.6261,-4.6277,-4.6211,-4.6167,-4.5577,0.0,-4.1994,-4.0265,-3.8361,0.0,-3.7079,-3.778,-3.8805,-4.0129,-4.1871,-4.2883,-4.3463,-4.352,-4.2786,-4.2279,-4.2241,-4.1474,-4.0974,-4.0937,-4.0929,-4.0524,-3.9606,-3.7897,-3.6129,-3.4342,-3.0146,0.0,0.0,0.0,0.0,0.0,0.0,0.0,0.0,0.0,0.0,0.0,0.0,0.0,0.0,0.0,0.0,0.0,0.0,0.0,0.0,0.0,0.0,0.0,0.0,0.0,0.0,0.0,0.0,-3.982,-4.217,0.0,0.0,-4.1257,-4.2306,-4.3996,-4.52,-4.7104,-4.9959,-5.0717,-5.1591,-5.2776,-5.3122,-5.33,-5.33,-5.4198,-5.4663,-5.4714,-5.5287,-5.5601,-5.5645,-5.563,-5.5636,-5.5636,-5.5665,-5.5669,-5.5571,-5.44,-5.2874,-5.1288,-5.0984,-5.0336,-4.9649,-5.0555,-5.0535,-5.0165,-5.1023,-5.0575,-4.954,-4.8974,-4.8193,-4.7451,-4.7451,-4.6788,-4.6183,-4.6807,-4.6983,-4.7139,-4.7744,-4.753,-4.7139,-4.7139,-4.671,-4.63,-4.6273,-4.6249,-4.6074,-4.546,-4.4353,-4.2802,-4.0569,-4.0827,-4.0877,-3.9513,-4.1435,-4.3266,-4.3883,-4.472,-4.5032,-4.4481,-4.415,-4.3513,-4.2403,-4.2026,-4.1361,-4.0237,-4.0155,-3.9779,-3.8907,-3.7722,-3.6537,-3.5352,-3.2788,-2.9797,0.0,0.0,0.0,0.0,0.0,0.0,0.0,0.0,0.0,0.0,0.0,0.0,0.0,0.0,0.0,0.0,0.0,0.0,0.0,0.0,0.0,0.0,0.0,0.0,0.0,0.0,-4.1762,-4.2947,-4.5589,-4.6657,-4.4948,-4.6094,-4.7531,-4.893,-4.9551,-5.0872,-5.3164,-5.3305,-5.3705,-5.4541,-5.4635,-5.4685,-5.4685,-5.5275,-5.5587,-5.5646,-5.6517,-5.6957,-5.6996,-5.6996,-5.6996,-5.6996,-5.6723,-5.6606,-5.6567,-5.5981,-5.5064,-5.3951,-5.3366,-5.278,-5.2351,-5.2936,-5.2761,-5.2351,-5.2936,-5.237,-5.1277,-5.0399,-5.0126,-5.0067,-4.9774,-4.9462,-4.9247,-4.9247,-4.9032,-4.8798,-4.8798,-4.8408,-4.7998,-4.7998,-4.7569,-4.7061,-4.6807,-4.6749,-4.6651,-4.6358,-4.58,-4.4836,-4.3142,-4.379,-4.3958,-4.2212,-4.3888,-4.5351,-4.5339,-4.5845,-4.5988,-4.5435,-4.5091,-4.4325,-4.2883,-4.2208,-4.1361,-4.0217,-3.9591,-3.9138,-3.8848,-3.745,-3.6401,-3.5818,-3.4148,-3.1759,-2.8612,0.0,0.0,0.0,0.0,0.0,0.0,0.0,0.0,0.0,0.0,0.0,0.0,0.0,0.0,0.0,0.0,0.0,0.0,0.0,0.0,0.0,0.0,0.0,-3.8557,-4.0791,-4.3083,-4.4792,-4.7958,-4.9357,-4.7667,-4.9784,-5.161,-5.2426,-5.2504,-5.3261,-5.499,-5.5166,-5.5569,-5.6347,-5.6437,-5.6483,-5.6483,-5.6542,-5.6582,-5.6582,-5.7436,-5.7836,-5.7836,-5.7836,-5.7836,-5.7797,-5.7016,-5.6684,-5.6684,-5.6684,-5.6684,-5.6508,-5.4752,-5.4088,-5.4088,-5.4088,-5.4068,-5.4049,-5.401,-5.401,-5.3854,-5.3014,-5.2741,-5.2585,-5.1707,-5.0848,-5.0184,-5.0145,-4.954,-4.8876,-4.8876,-4.8857,-4.8837,-4.8837,-4.8818,-4.8584,-4.7803,-4.7647,-4.7373,-4.6515,-4.6339,-4.6339,-4.63,-4.6245,-4.6206,-4.6206,-4.6203,0.0,-4.6206,-4.6206,-4.6236,-4.6296,-4.5479,-4.4607,-4.3812,-4.2103,-4.1059,-4.0964,-3.9349,-3.8782,-3.9625,-3.7236,-3.5896,-3.5915,-3.4303,-3.3021,-3.2166,0.0,0.0,0.0,0.0,0.0,0.0,0.0,0.0,0.0,0.0,0.0,0.0,0.0,0.0,0.0,0.0,0.0,0.0,0.0,0.0,0.0,0.0,-4.2811,-4.2189,-4.5375,-4.8191,-4.9318,-5.1338,-5.2465,-5.1979,-5.2581,-5.3378,-5.4213,-5.4873,-5.5709,-5.6835,-5.745,-5.7871,-5.8104,-5.8208,-5.8295,-5.8295,-5.8344,-5.8392,-5.8392,-5.8631,-5.8734,-5.8734,-5.8734,-5.8734,-5.8734,-5.8519,-5.8402,-5.8402,-5.8402,-5.8402,-5.8246,-5.6547,-5.5884,-5.5884,-5.5884,-5.5493,-5.4849,-5.4225,-5.401,-5.3951,-5.3717,-5.3639,-5.3483,-5.2605,-5.2175,-5.1843,-5.1219,-5.0867,-5.0692,-5.0692,-5.0223,-4.9735,-4.9735,-4.9267,-4.874,-4.8525,-4.8466,-4.8232,-4.7393,-4.7237,-4.7042,-4.6417,-4.6277,-4.6273,-4.6273,-4.6269,0.0,-4.6273,-4.6273,-4.6269,-4.624,-4.5997,-4.5504,-4.4646,-4.3526,-4.2091,-4.0257,-3.9084,-3.8579,-3.8825,-3.8144,-3.8053,-3.8695,-3.7585,-3.6572,0.0,0.0,0.0,0.0,0.0,0.0,0.0,0.0,0.0,0.0,0.0,0.0,0.0,0.0,0.0,0.0,0.0,0.0,0.0,0.0,0.0,0.0,-4.4384,-4.7007,-4.7201,-4.9376,-5.126,-5.2135,-5.3436,-5.4232,-5.4232,-5.4912,-5.5534,-5.6039,-5.6874,-5.7573,-5.8078,-5.8571,-5.8849,-5.8885,-5.8968,-5.9011,-5.9033,-5.909,-5.9104,-5.9104,-5.9475,-5.9631,-5.9631,-5.9631,-5.9631,0.0,-5.9261,-5.9104,-5.9104,-5.9104,-5.9104,0.0,0.0,0.0,0.0,0.0,-5.6274,-5.5767,-5.5259,-5.5083,-5.5025,-5.4654,-5.4537,-5.4381,-5.3502,-5.3249,-5.3053,-5.2195,-5.1941,-5.1863,-5.1492,-5.1023,-5.0633,-5.0633,-5.0262,-4.9794,-4.9423,-4.9345,-4.9091,-4.8252,-4.8096,0.0,-4.6983,-4.6534,-4.63,-4.63,-4.63,-4.63,-4.63,-4.63,-4.6296,-4.6245,-4.6216,-4.585,-4.498,-4.4072,0.0,0.0,0.0,-3.9349,-3.9026,-3.9,0.0,0.0,0.0,0.0,0.0,0.0,0.0,0.0,-3.7519,-3.7734,0.0,0.0,0.0,0.0,0.0,0.0,0.0,0.0,0.0,0.0,0.0,0.0,0.0,0.0,0.0,0.0,-4.8107,-5.0875,-5.248,-5.278,-5.3098,-5.3778,-5.4614,-5.5197,-5.5274,-5.6693,-5.7645,-5.7729,-5.85,-5.8966,-5.8966,0.0,0.0,0.0,0.0,-5.9326,-5.9373,-5.9393,-5.9397,-5.9397,-6.0178,-6.0549,-6.0549,-6.0549,-6.0549,-6.049,-5.9729,-5.9397,-5.9397,-5.9397,-5.9339,-5.9163,-5.8285,-5.7953,-5.7855,-5.7035,-5.6743,-5.6723,-5.6626,0.0,0.0,-5.5708,-5.5454,-5.5279,-5.44,-5.4147,-5.3951,-5.3093,-5.2858,-5.2644,-5.1765,-5.155,-5.1511,-5.1414,-5.1394,-5.1199,-5.0418,-5.0243,-4.9989,-4.9111,-4.8954,-4.8681,-4.7881,-4.7022,-4.6417,-4.63,-4.63,-4.63,-4.63,-4.63,-4.63,-4.6296,0.0,0.0,-4.5118,-4.4187,-4.3619,-4.353,-4.2069,-4.0876,-4.0177,-4.0326,-4.0715,-4.1334,-4.1441,-4.2588,-4.4802,-4.4986,-4.5453,-4.6016,-4.0785,-4.0349,0.0,0.0,0.0,0.0,0.0,0.0,0.0,0.0,0.0,0.0,0.0,0.0,0.0,0.0,0.0,-4.7502,-5.0803,-5.3396,-5.4429,-5.5142,-5.5364,-5.4897,-5.5558,-5.6306,-5.7025,-5.7395,-5.7857,-5.8525,-5.9413,-5.9935,-5.9935,-6.0613,0.0,-6.1023,-6.1066,-6.1095,-6.1121,-6.1164,-6.1193,-6.1193,0.0,0.0,-6.1447,-6.1447,-6.1447,-6.1447,-6.1271,-6.1193,-6.1193,-6.1193,-6.0783,-6.0061,-5.9183,-5.8851,-5.8734,-5.7875,-5.7562,-5.7484,-5.6821,-5.6606,-5.6567,-5.6391,-5.6352,-5.6196,-5.5318,-5.5044,0.0,-5.399,-5.3756,-5.3541,-5.2663,-5.2448,-5.2273,-5.157,-5.1394,-5.1355,-5.118,-5.116,-5.0887,-5.0028,-4.9852,-4.9579,-4.872,-4.7881,-4.712,-4.6417,-4.63,-4.63,-4.63,-4.63,-4.6277,-4.6236,-4.6211,-4.6128,-4.5967,-4.5136,-4.4348,-4.3704,-4.329,-4.3,-4.2844,-4.4196,-4.4681,-4.4148,-4.4759,-4.4995,-4.4811,-4.6153,-4.6909,-4.7026,-4.589,-4.5774,0.0,0.0,0.0,0.0,0.0,0.0,0.0,0.0,0.0,0.0,0.0,-4.2322,0.0,0.0,-4.8939,-5.1483,-5.3338,-5.4738,-5.5638,-5.6093,-5.6193,-5.5804,-5.6485,-5.7157,-5.7553,-5.8412,-5.9093,-5.9483,-6.0328,-6.0847,-6.0847,-6.1267,-6.1519,-6.1545,-6.1588,-6.1621,-6.166,-6.1671,-6.1701,-6.1701,-6.1701,-6.1701,-6.1701,-6.1701,-6.1701,-6.1701,-6.1701,-6.1701,-6.1701,-6.1701,-6.1447,-6.1017,-6.0568,-5.9866,-5.9046,-5.8616,-5.8441,-5.8382,-5.7992,-5.7562,-5.7192,-5.7192,-5.6938,-5.6528,-5.6079,-5.5942,-5.5767,-5.4908,-5.4654,-5.4459,-5.358,-5.3346,-5.3132,-5.2253,-5.2058,-5.1921,-5.1492,-5.1394,-5.1277,-5.0848,-5.075,-5.0477,-4.9599,-4.913,-4.8427,-4.7139,-4.6944,-4.6788,-4.6358,-4.63,-4.6296,-4.6245,-4.6245,-4.624,-4.6206,-4.5796,-4.5387,-4.4977,-4.4953,-4.4948,-4.4896,-4.5735,-4.6001,-4.5553,-4.6329,-4.6536,-4.6107,-4.7376,-4.7991,-4.8001,-4.8458,-4.8633,0.0,0.0,0.0,0.0,0.0,0.0,0.0,0.0,-4.1437,-4.3828,-4.5801,-4.7909,-5.0549,-5.1877,-5.3237,-5.5295,-5.5763,-5.6121,-5.6816,-5.6771,-5.6654,-5.666,-5.7271,-5.7747,-5.7868,-5.9334,-6.0336,-6.0448,-6.1108,-6.1522,-6.1526,-6.1534,-6.1568,-6.1628,-6.1628,-6.166,-6.1701,-6.1701,-6.1701,-6.1701,-6.1701,-6.1701,-6.1701,-6.1701,-6.1701,-6.1701,-6.1701,-6.1701,-6.1701,-6.1701,-6.1701,-6.1701,-6.1701,-6.0842,-5.9573,-5.9417,-5.9358,-5.9339,-5.9163,-5.8636,-5.805,-5.805,-5.7504,-5.6821,-5.6821,-5.6723,-5.645,-5.5747,-5.5552,-5.5357,-5.4478,-5.4244,-5.4029,-5.3151,-5.2956,-5.2702,-5.1843,-5.1648,-5.1609,-5.1433,-5.1394,-5.118,-5.0477,-5.036,-4.9774,-4.8096,-4.7822,-4.753,-4.6651,-4.6554,-4.6495,-4.6319,-4.63,-4.6273,-4.6216,-4.6216,-4.6226,-4.6222,-4.6255,-4.626,-4.619,-4.6345,-4.6423,-4.6429,-4.724,-4.765,-4.765,-4.8518,-4.8922,-4.8944,-4.9837,-5.0111,-3.2518,-3.3961,0.0,-3.9414,-3.98,-4.1179,0.0,0.0,-4.9324,-5.1151,-5.3535,-5.5156,-5.4784,-5.5994,-5.7163,-5.744,-5.8105,-5.8611,-5.8789,-5.8085,-5.7578,-5.7634,-5.7671,-5.8,-5.8777,-5.9737,-6.0581,-6.131,-6.1497,-6.1594,-6.1592,-6.1645,-6.1684,-6.1696,-6.1696,-6.1696,-6.1701,-6.1701,-6.1701,-6.1701,-6.1701,-6.1701,-6.1701,-6.1701,-6.1701,-6.1701,-6.1701,-6.1701,-6.1701,-6.1701,-6.1701,-6.1701,-6.1701,-6.1583,-6.133,-6.0549,-6.0256,-6.0139,-5.9378,-5.9046,-5.8948,-5.8948,-5.8363,-5.766,-5.766,-5.7172,-5.6586,-5.6489,-5.645,-5.6255,-5.5376,-5.5142,-5.4927,-5.4068,-5.3854,-5.362,-5.2741,-5.2546,-5.2331,-5.155,-5.1394,-5.1375,-5.1277,-5.1258,-5.0672,-4.8935,-4.8662,-4.8369,-4.7569,-4.7451,-4.7159,-4.6378,-4.63,-4.63,-4.6296,-4.6296,-4.6296,-4.6292,-4.624,-4.6211,-4.6201,-4.6898,-4.7274,-4.7267,-4.8113,-4.8554,-4.8554,-4.9372,-4.9768,-4.9796,-5.0662,-5.0645,-3.8476,0.0,0.0,0.0,-4.6488,-4.8769,-5.1522,-5.2633,-5.3553,-5.5304,-5.6139,-5.6591,-5.6735,-5.7327,-5.7809,0.0,-5.8513,-5.9071,-5.9095,-5.8335,-5.7573,-5.7101,-5.7472,-5.8084,-5.8923,-5.9824,-6.0683,-6.1502,-6.1581,-6.16,-6.1601,-6.162,-6.166,-6.1707,-6.1658,-6.1658,-6.1707,-6.1707,-6.1707,-6.1707,-6.1709,-6.1701,-6.1701,-6.1701,-6.1701,-6.1701,-6.1701,-6.1701,-6.1701,-6.1701,-6.1701,-6.1701,-6.1701,-6.1701,-6.1661,-6.1291,-6.1154,-6.1095,-6.0744,-6.0276,-5.9866,-5.9866,-5.9261,-5.846,-5.7953,-5.7562,-5.7192,-5.6723,-5.6606,-5.6528,-5.6157,-5.6059,-5.5845,-5.4966,-5.4752,-5.4517,-5.3639,-5.3053,-5.2585,-5.2234,-5.1746,-5.1394,-5.1394,-5.1394,-5.1141,-5.0418,-4.9872,-4.9247,-4.8408,-4.8291,-4.8154,-4.7783,-4.7744,-4.7569,-4.71,-4.749,-4.7569,-4.71,-4.7463,-4.7713,-4.7713,-4.8035,-4.8201,-4.8201,-4.9067,-4.951,-4.951,-5.0355,-5.1016,-5.1487,-5.19,-5.2141,-4.2381,0.0,0.0,-4.8213,-5.1681,-5.4591,-5.4194,-5.5423,-5.6911,-5.7942,-5.784,-5.7706,-5.8082,-5.8164,0.0,-5.8476,-5.9031,-5.9519,-5.9761,-5.8625,-5.7625,-5.7235,-5.7133,-5.7484,-5.8541,-5.9686,-6.0718,-6.1531,-6.1596,-6.1592,-6.16,-6.1603,-6.1612,-6.168,-6.1637,-6.1617,-6.168,-6.168,-6.1679,-6.1697,-6.1704,-6.1709,-6.1701,-6.1701,-6.1701,-6.1701,-6.1701,-6.1701,-6.1701,-6.1701,-6.1701,-6.1701,-6.1701,-6.1701,-6.1701,-6.1701,-6.1701,-6.1701,-6.1701,-6.1291,-6.0764,-6.0764,-6.0178,-5.9339,-5.8714,-5.8187,-5.768,-5.7094,-5.6762,-5.6606,-5.6606,-5.6606,-5.645,-5.5806,-5.5669,-5.5415,-5.4556,-5.3854,-5.3346,-5.3112,-5.2351,-5.1765,-5.1765,-5.155,-5.1394,-5.1394,-5.0867,-5.0145,-4.9267,-4.8954,-4.8798,-4.8798,-4.8798,-4.8564,-4.7978,-4.8466,-4.8545,-4.7978,-4.8486,-4.8798,-4.8798,-4.9032,-4.9169,-4.9169,-5.0,-5.0464,-5.0464,-5.1318,-5.203,-5.261,-5.2908,-5.3454,0.0,0.0,-4.9099,-5.0857,-5.3886,-5.6634,-5.7456,-5.8987,-6.0022,-5.9226,-5.9714,-6.0034,-5.9214,-5.9061,-5.9346,-6.0188,-6.0288,-6.057,-6.14,-5.9318,-5.8011,-5.883,-5.6775,-5.5918,0.0,-5.9298,-6.0662,-6.1539,-6.1597,-6.1603,-6.1601,-6.1601,-6.1603,-6.1592,-6.1592,-6.1592,-6.1592,-6.1592,-6.1638,-6.1697,-6.1697,-6.1709,-6.1701,-6.1701,-6.1701,-6.1701,-6.1701,-6.1701,-6.1701,-6.1701,-6.1701,-6.1701,-6.1701,-6.1701,-6.1701,-6.1701,-6.1701,-6.1701,-6.1701,-6.1681,-6.1661,-6.1661,-6.1076,-6.0354,-6.0334,-5.9143,-5.7797,-5.7777,-5.7192,-5.6606,-5.6606,-5.6606,-5.6586,-5.6567,-5.6567,-5.6313,-5.5454,-5.524,-5.4966,-5.4127,-5.3268,-5.2663,-5.2663,-5.196,-5.1394,-5.1394,-5.1375,-5.1043,-5.0165,-4.9325,-4.8798,-4.8798,-4.8798,-4.8798,-4.8779,-4.8798,-4.8798,-4.8779,-4.8798,-4.8798,-4.8798,-4.9618,-5.0067,-5.0067,-5.0923,-5.1355,-5.1355,-5.2161,-5.2575,-5.2614,-5.3471,-5.429,0.0,0.0,-5.3339,-5.4492,-5.6946,-5.9163,-5.9467,-5.9986,-6.0135,-5.9216,-5.7929,-5.6677,-5.5809,-5.5657,-5.6114,-5.7582,-5.8721,-5.9941,-6.1409,-6.0339,-5.9094,-5.8237,-5.7886,0.0,0.0,0.0,0.0,-6.0633,-6.073,-6.0993,-6.1564,-6.1603,-6.1609,-6.159,-6.1596,-6.1623,-6.168,-6.168,-6.1679,-6.1697,-6.1707,-6.169,-6.1701,-6.1701,-6.1701,-6.1701,-6.1701,-6.1701,-6.1701,-6.1701,-6.1701,-6.1701,-6.1701,-6.1701,-6.1701,-6.1701,-6.1701,-6.1701,-6.1701,-6.1701,-6.1701,-6.1701,-6.1505,-6.1154,-6.0588,-5.9983,-5.9397,-5.8831,-5.805,-5.7406,-5.7406,-5.6996,-5.6606,-5.6606,-5.6606,-5.6528,-5.6235,-5.5708,-5.5201,-5.4927,-5.4166,-5.3561,-5.3561,-5.3327,-5.2936,-5.2351,-5.1765,-5.1297,-5.1004,-5.0711,-5.0535,-5.0535,-5.0535,-5.0282,-4.9716,-5.0184,-5.0282,-4.9696,-5.0204,-5.0535,-5.0535,-5.0809,-5.0965,-5.0965,-5.1815,-5.2264,-5.2264,-5.3113,-5.383,-5.4396,-5.4689,-5.5262,0.0,-5.3527,-5.6015,-5.7518,-5.9371,-6.0754,-6.0479,-6.0161,-5.9505,-5.796,-5.5858,-5.4023,-5.3132,-5.2743,-5.3415,-5.6075,-5.7385,-5.8899,-6.1276,-6.0575,-5.9542,-5.8724,-5.8568,0.0,0.0,0.0,0.0,-6.0633,-6.075,-6.1012,-6.1564,-6.1603,-6.1589,-6.159,-6.1596,-6.1623,-6.166,-6.166,-6.1679,-6.1697,-6.1697,-6.1701,-6.1701,-6.1701,-6.1701,-6.1701,-6.1701,-6.1701,-6.1701,-6.1701,-6.1701,-6.1701,-6.1701,-6.1701,-6.1701,-6.1701,-6.1701,-6.1701,-6.1701,-6.1701,-6.1701,-6.1701,-6.1701,-6.1603,-6.1037,-6.0646,-6.0276,-5.9729,-5.8948,-5.8265,-5.8265,-5.7641,-5.7035,-5.7035,-5.6801,-5.6606,-5.6606,-5.6157,-5.5767,-5.5767,-5.5064,-5.4459,-5.4459,-5.4205,-5.3815,-5.3249,-5.2683,-5.2097,-5.1472,-5.1394,-5.1394,-5.1394,-5.1394,-5.118,-5.0614,-5.1082,-5.116,-5.0594,-5.1082,-5.1394,-5.1394,-5.1707,-5.1863,-5.1863,-5.2722,-5.3151,-5.3171,-5.4049,-5.4752,-5.5318,-5.5611,-5.6031,-5.3395,-5.5401,-5.7352,-5.9843,-6.0995,-6.1326,-6.0529,-5.96,-5.8143,-5.5486,-5.357,-5.2031,0.0,0.0,-5.1269,-5.5486,-5.6288,-5.7613,-6.1101,-6.0185,-5.9425,0.0,0.0,0.0,0.0,0.0,0.0,-6.1539,0.0,-6.1545,-6.1601,-6.1607,-6.1622,-6.167,-6.167,-6.1672,-6.1672,-6.1633,-6.1639,-6.1697,-6.1697,-6.1701,-6.1701,-6.1701,-6.1701,-6.1701,-6.1701,-6.1701,-6.1701,-6.1701,-6.1701,-6.1701,-6.1701,-6.1701,-6.1701,-6.1701,-6.1701,-6.1701,-6.1701,-6.1701,-6.1701,-6.1701,-6.1701,-6.1701,-6.1701,-6.1115,-6.0471,-6.0471,-5.9846,-5.9163,-5.9163,-5.8519,-5.7855,-5.7816,-5.7211,-5.6645,-5.6606,-5.6606,-5.6606,-5.6606,-5.5923,-5.5376,-5.5376,-5.4674,-5.4127,-5.4068,-5.4068,-5.3444,-5.1746,-5.1531,-5.1531,-5.1531,-5.1531,-5.1531,-5.1531,-5.1531,-5.1531,-5.1531,-5.1531,-5.1531,-5.1531,-5.2331,-5.2761,-5.2761,-5.362,-5.4068,-5.4068,-5.4947,-5.5376,-5.5396,-5.6216,-5.6582,-5.6263,-5.8519,-6.0451,-6.1124,-6.0998,-6.0481,-5.9626,-5.7753,-5.5288,-5.2052,-4.9506,-4.7006,-4.4211,0.0,0.0,-5.1172,-5.4359,0.0,-6.112,-6.1218,0.0,0.0,0.0,-6.0432,-6.0002,-6.0564,0.0,0.0,-6.1373,-6.0905,-6.1561,-6.1603,-6.1926,-6.2617,-6.2636,-6.2634,-6.2641,-6.1997,-6.1681,-6.1694,-6.1705,-6.1701,-6.1701,-6.1701,-6.1701,-6.1701,-6.1701,-6.1701,-6.1701,-6.1701,-6.1701,-6.1701,-6.1701,-6.1701,-6.1701,-6.1701,-6.1701,-6.1701,-6.1701,-6.1701,-6.1701,-6.1701,-6.1701,-6.1701,-6.1701,-6.1544,-6.1369,-6.1369,-6.0744,-6.0061,-6.0061,-5.9417,-5.8597,-5.7953,-5.7641,-5.7328,-5.6723,-5.6606,-5.6606,-5.6606,-5.6411,-5.6274,-5.6274,-5.6079,-5.5728,-5.5064,-5.4966,-5.4576,-5.3483,-5.3346,-5.3346,-5.3346,-5.3346,-5.3346,-5.3346,-5.3346,-5.3346,-5.3346,-5.3346,-5.3346,-5.3346,-5.3541,-5.3678,-5.3678,-5.4517,-5.4966,-5.4966,-5.5845,-5.6274,-5.6274,-5.645,-5.6536,-5.8421,-6.0217,-6.1607,-6.1601,-6.069,-5.9261,-5.7271,-5.4811,-5.1776,-4.758,-4.494,0.0,0.0,0.0,0.0,0.0,0.0,0.0,-6.0497,-6.1354,-6.1422,0.0,-6.1648,0.0,-6.149,-6.2231,-6.2944,0.0,-6.2212,-6.1818,-6.2694,-6.2733,-6.3008,-6.3542,-6.3562,-6.3575,-6.3574,-6.3086,-6.2657,-6.2267,-6.2267,-6.2071,-6.1701,-6.1701,-6.1701,-6.1701,0.0,-6.1701,-6.1701,-6.1701,-6.1701,-6.1701,-6.1701,-6.1701,-6.1701,-6.1701,-6.1701,-6.1701,-6.1701,-6.1701,-6.1701,-6.1701,-6.1701,-6.1701,-6.1701,-6.1701,-6.1701,-6.1701,-6.1349,-6.0978,-6.0978,-6.0315,-5.9553,-5.9065,-5.8656,-5.8148,-5.7309,-5.7133,-5.7016,-5.6665,-5.6606,-5.6606,-5.6606,-5.6606,-5.643,-5.5942,-5.5864,-5.5689,-5.5201,-5.4478,-5.401,-5.401,-5.401,-5.401,-5.401,-5.401,-5.401,-5.401,-5.401,-5.401,-5.401,-5.4361,-5.4576,-5.4576,-5.5435,-5.5864,-5.5864,-5.6352,-5.6606,-5.6606,-5.6553,-5.6737,-5.999,-6.1023,-6.1567,-6.1465,-6.0032,-5.7763,-5.4337,-5.1418,-4.7977,-4.292,0.0,0.0,-3.7848,0.0,-4.2533,-4.7482,0.0,-5.5275,-5.9677,-6.0943,-6.1475,-6.1588,-6.2379,-6.2904,-6.2905,-6.3707,-6.4258,-6.4371,-6.3691,-6.3535,-6.4176,-6.4213,-6.4284,-6.4472,-6.4472,-6.4472,-6.4472,-6.4355,-6.3926,-6.3164,-6.3164,-6.2716,-6.1876,-6.1876,-6.1818,-6.1701,0.0,0.0,-6.1701,-6.1701,-6.1701,-6.1701,-6.1701,-6.1701,-6.1701,-6.1701,-6.1701,-6.1701,-6.1701,-6.1701,-6.1701,-6.1701,-6.1701,-6.1701,-6.1701,-6.1701,-6.1701,-6.1701,-6.1701,-6.1701,-6.1701,-6.1134,-6.0549,-6.0432,-5.9827,-5.9026,-5.8168,-5.7875,-5.7582,-5.6899,-5.6665,-5.6606,-5.6606,-5.6606,-5.6606,-5.6606,-5.6606,-5.6606,-5.6606,-5.5279,-5.4342,-5.4342,-5.4342,-5.4342,-5.4342,-5.4342,-5.4342,-5.4342,-5.4342,-5.4342,-5.4342,-5.5064,-5.5474,-5.5474,-5.6216,-5.6606,-5.6606,-5.6606,-5.6606,-5.6606,-5.6719,-5.7129,-6.0906,-6.1471,-6.1432,-6.0709,-5.8713,-5.602,-5.2547,-4.8669,0.0,0.0,0.0,-3.5885,-3.3634,0.0,0.0,-4.4968,0.0,0.0,0.0,0.0,-6.0787,0.0,0.0,0.0,0.0,0.0,0.0,0.0,0.0,0.0,-6.4306,-6.4286,-6.4618,-6.5351,-6.537,-6.537,-6.537,-6.4667,-6.4219,-6.4062,-6.4062,-6.3613,-6.2774,-6.2774,-6.2384,-6.1701,-6.1701,0.0,-6.1701,-6.1701,-6.1701,-6.1701,-6.1701,-6.1701,-6.1701,-6.1701,-6.1701,-6.1701,-6.1701,-6.1701,-6.1701,-6.1701,-6.1701,-6.1701,-6.1701,-6.1701,-6.1701,-6.1701,-6.1701,-6.1701,-6.1701,-6.1583,-6.1291,-6.0568,-6.0276,-5.9944,-5.9065,-5.8304,-5.7758,-5.7621,-5.7055,-5.6606,-5.6606,-5.6606,-5.6606,-5.6606,-5.6606,-5.6606,-5.6606,-5.6333,-5.6157,-5.6157,-5.6157,-5.6157,-5.6157,-5.6157,-5.6157,-5.6157,-5.6157,-5.6157,-5.6157,-5.6294,-5.6372,-5.6372,-5.6528,-5.6606,-5.6606,-5.6606,-5.6606,-5.6626,-5.7283,-5.7679,-6.112,-6.1607,-6.1393,-6.0516,-5.8042,-5.4679,-5.0323,0.0,0.0,0.0,0.0,-3.2732,-3.1057,0.0,0.0,0.0,0.0,0.0,0.0,0.0,0.0,0.0,0.0,0.0,0.0,0.0,0.0,0.0,0.0,0.0,-6.5624,-6.5604,-6.578,-6.6209,-6.6229,-6.6229,-6.6229,-6.58,-6.539,-6.498,-6.498,-6.4511,-6.3652,-6.3204,-6.2774,-6.2345,-6.1896,0.0,-6.1701,-6.1701,-6.1701,-6.1701,-6.1701,-6.1701,-6.1701,-6.1701,-6.1701,-6.1701,-6.1701,-6.1701,-6.1701,-6.1701,-6.1701,-6.1701,-6.1701,-6.1701,-6.1701,-6.1701,-6.1701,-6.1701,-6.1701,-6.1701,-6.1583,-6.1174,-6.0725,-6.0295,-5.9866,-5.9085,-5.848,-5.848,-5.7797,-5.7211,-5.7211,-5.6879,-5.6606,-5.6606,-5.6606,-5.6606,-5.6606,-5.6606,-5.6606,-5.6606,-5.6606,-5.6606,-5.6606,-5.6606,-5.6606,-5.6606,-5.6606,-5.6606,-5.6606,-5.6606,-5.6606,-5.6606,-5.6606,-5.6606,-5.6606,-5.7016,-5.7211,-5.7231,-5.8094,-5.8724,-6.0847,-6.1451,-6.1354,-6.0282,-5.7457,-5.3522,-4.8164,-4.2942,0.0,0.0,0.0,-3.0312,-2.963,0.0,0.0,0.0,0.0,0.0,0.0,0.0,0.0,0.0,0.0,0.0,0.0,0.0,0.0,0.0,0.0,0.0,-6.6795,-6.6795,-6.6795,-6.6795,-6.6795,-6.6795,-6.6795,-6.6795,-6.6483,-6.5858,-6.5858,-6.5409,-6.455,-6.3867,-6.3457,-6.3223,-6.2364,0.0,0.0,-6.1779,-6.1701,-6.1701,-6.1701,-6.1701,-6.1701,-6.1701,-6.1701,-6.1701,-6.1701,-6.1701,-6.1701,-6.1701,-6.1701,-6.1701,-6.1701,-6.1701,-6.1701,-6.1701,-6.1701,-6.1701,-6.1701,-6.1701,-6.1701,-6.1701,-6.1174,-6.0686,-6.0686,-5.9983,-5.9378,-5.9378,-5.8675,-5.807,-5.807,-5.7543,-5.7133,-5.7133,-5.6977,-5.686,-5.686,-5.6704,-5.6606,-5.6606,-5.6606,-5.6606,-5.6606,-5.6606,-5.6606,-5.6606,-5.6606,-5.6606,-5.6606,-5.6606,-5.6606,-5.6606,-5.6762,-5.686,-5.686,-5.768,-5.807,-5.8109,-5.8968,-5.9749,-5.9951,-6.1003,-6.1198,-5.9522,-5.6541,-5.2469,-4.6507,0.0,0.0,0.0,-3.0234,-2.9591,-2.9513,0.0,0.0,0.0,0.0,0.0,0.0,0.0,0.0,0.0,0.0,0.0,0.0,0.0,0.0,0.0,0.0,0.0,0.0,-6.6795,-6.6795,-6.6795,-6.6795,-6.6795,-6.6795,-6.6795,-6.6756,-6.6697,-6.6697,-6.6268,-6.5487,-6.5409,-6.4921,-6.4121,-6.3262,0.0,0.0,-6.2032,-6.1701,-6.1701,-6.1701,-6.1701,-6.1701,-6.1701,-6.1701,-6.1701,-6.1701,-6.1701,-6.1701,-6.1701,-6.1701,-6.1701,-6.1701,-6.1701,-6.1701,-6.1701,-6.1701,-6.1701,-6.1701,-6.1701,-6.1701,-6.1701,-6.1642,-6.1583,-6.1583,-6.09,-6.0276,-6.0276,-5.9573,-5.8987,-5.8987,-5.8929,-5.887,-5.887,-5.8207,-5.7699,-5.7699,-5.7055,-5.6606,-5.6606,-5.6606,-5.6606,-5.6606,-5.6606,-5.6606,-5.6606,-5.6606,-5.6606,-5.6606,-5.6606,-5.6606,-5.6606,-5.7328,-5.7699,-5.7699,-5.8558,-5.8987,-5.9007,-5.9866,-6.0315,-5.7983,-5.9367,-5.962,-5.7925,-5.5295,-5.1534,-4.5494,0.0,0.0,-3.1675,-3.0117,-2.9494,-2.9494,-3.1213,-3.3687,0.0,-3.8733,0.0,0.0,0.0,0.0,0.0,0.0,0.0,0.0,0.0,0.0,0.0,0.0,0.0,0.0,-6.6795,-6.6795,-6.6795,-6.6795,-6.6795,-6.6795,-6.6795,-6.6795,-6.6795,-6.6795,-6.6619,-6.6307,-6.5819,-6.5409,-6.5038,-6.416,0.0,0.0,-6.2627,-6.2162,-6.1707,-6.1709,-6.1701,-6.1701,-6.1701,-6.1701,-6.1701,-6.1701,-6.1701,-6.1701,-6.1701,-6.1701,-6.1701,-6.1701,-6.1701,-6.1701,-6.1701,-6.1701,-6.1701,-6.1701,-6.1701,-6.1701,-6.1701,-6.1701,-6.1701,-6.1701,-6.1427,-6.1174,-6.1174,-6.0471,-5.9885,-5.9885,-5.9456,-5.9104,-5.9104,-5.8792,-5.8577,-5.8577,-5.7836,-5.7328,-5.7328,-5.6899,-5.6606,-5.6606,-5.6606,-5.6606,-5.6606,-5.6606,-5.6606,-5.6606,-5.7074,-5.7328,-5.7328,-5.8148,-5.8577,-5.8577,-5.9456,-5.9885,-5.9905,-6.0783,-6.1174,-5.5645,-5.7204,-5.7535,-5.6093,-5.3775,-5.0268,0.0,0.0,-3.5597,-3.1305,-2.9922,-2.9494,-2.9494,-3.0706,-3.2557,0.0,-3.6454,-3.9301,0.0,0.0,0.0,0.0,0.0,0.0,0.0,0.0,0.0,0.0,0.0,0.0,0.0,-6.6795,-6.6795,-6.6795,-6.6795,-6.6795,-6.6795,-6.6795,-6.6795,-6.6795,-6.6809,-6.6793,-6.6774,-6.6208,-6.5957,-6.5905,0.0,0.0,0.0,-6.3178,-6.2613,-6.2031,-6.177,-6.1681,-6.1694,-6.1694,-6.1694,-6.1694,-6.1694,-6.1694,-6.1694,-6.1694,-6.1709,-6.1701,-6.1701,-6.1701,-6.1701,-6.1701,-6.1701,-6.1701,-6.1701,-6.1701,-6.1701,-6.1701,-6.1701,-6.1701,-6.1701,-6.1701,-6.1701,-6.1701,-6.1193,-6.0783,-6.0783,-6.0276,-5.9866,-5.9866,-5.9651,-5.9475,-5.9475,-5.8714,-5.8187,-5.8187,-5.768,-5.7133,-5.6645,-5.6606,-5.6704,-5.6938,-5.6957,-5.7074,-5.7328,-5.7875,-5.8187,-5.8187,-5.9046,-5.9475,-5.9495,-6.0354,-6.0783,-6.0803,-6.1408,-6.1701,-5.3015,-5.4574,-5.5041,-5.4145,-5.1963,-4.8456,0.0,-3.8422,-3.47,-3.0394,-2.9513,-2.9494,-2.9494,-3.0214,-3.1661,-3.4194,-3.6064,-3.9301,0.0,0.0,0.0,0.0,0.0,0.0,0.0,0.0,0.0,0.0,0.0,0.0,0.0,-6.6795,-6.6795,-6.6795,-6.6795,-6.6795,-6.6795,-6.6795,-6.6795,-6.6795,-6.6806,-6.6794,-6.6794,-6.6794,-6.6797,0.0,0.0,0.0,0.0,-6.3603,-6.2898,-6.28,-6.1944,-6.1639,-6.1697,-6.1697,-6.1697,-6.1697,-6.1697,-6.1697,-6.1697,-6.1697,-6.1704,-6.1701,-6.1701,-6.1701,-6.1701,-6.1701,-6.1701,-6.1701,-6.1701,-6.1701,-6.1701,-6.1701,-6.1701,-6.1701,-6.1701,-6.1701,-6.1701,-6.1701,-6.1701,-6.1701,-6.1701,-6.1681,-6.1681,-6.1681,-6.0939,-6.0393,-6.0393,-5.9631,-5.9085,-5.9085,-5.9085,-5.8402,-5.6743,-5.6606,-5.6938,-5.7738,-5.7797,-5.8168,-5.9046,-5.9085,-5.9085,-5.9085,-5.9944,-6.0393,-6.0393,-6.1252,-6.1701,-6.1701,-6.1701,-6.1701,-4.641,-4.793,-4.8553,-4.6488,-4.5358,-4.3468,-3.8656,-3.6688,-3.4856,-3.1149,-3.039,-3.039,-3.039,-3.0604,-3.2416,-3.735,0.0,0.0,0.0,0.0,0.0,0.0,0.0,0.0,0.0,0.0,0.0,0.0,0.0,0.0,0.0,-6.6795,-6.6795,-6.6795,-6.6795,-6.6795,-6.6795,-6.6795,-6.6795,-6.6795,-6.6809,-6.6793,-6.6793,-6.6808,0.0,0.0,0.0,0.0,0.0,-6.4262,-6.3439,-6.2813,-6.1938,-6.1614,-6.1638,-6.1638,-6.1638,-6.1638,-6.1638,-6.1638,-6.1638,-6.1698,-6.1694,-6.1707,-6.1705,-6.1701,-6.1701,-6.1701,-6.1701,-6.1701,-6.1701,-6.1701,-6.1701,-6.1701,-6.1701,-6.1701,-6.1701,-6.1701,-6.1701,-6.1701,-6.1701,-6.1701,-6.1701,-6.1701,-6.1701,-6.1701,-6.1466,-6.1291,-6.1291,-6.0529,-5.9983,-5.9983,-5.9456,-5.889,-5.8343,-5.8304,-5.8421,-5.8675,-5.8695,-5.8812,-5.9085,-5.9671,-5.9983,-5.9983,-6.0842,-6.1291,-6.1291,-6.1564,-6.1701,-6.1701,-6.1701,-6.1701,0.0,-4.2708,-4.339,-4.1753,-4.111,-3.9902,-3.624,-3.5168,-3.4179,-3.1367,-3.0802,-3.0802,-3.0802,-3.0802,-3.224,-3.6668,0.0,0.0,0.0,0.0,0.0,0.0,0.0,0.0,0.0,0.0,0.0,0.0,0.0,0.0,0.0,0.0,-6.6795,-6.6795,-6.6795,-6.6795,-6.6795,-6.6795,-6.6795,-6.6795,-6.6789,-6.6797,-6.6797,-6.6791,0.0,0.0,0.0,0.0,0.0,-6.5003,-6.4138,-6.3272,-6.2427,-6.19,-6.1596,-6.1596,-6.1596,-6.1596,-6.1596,-6.1596,-6.16,-6.1653,-6.1659,-6.1679,-6.1687,-6.169,-6.1701,-6.1701,-6.1701,-6.1701,-6.1701,-6.1701,-6.1701,-6.1701,-6.1701,-6.1701,-6.1701,-6.1701,-6.1701,-6.1701,-6.1701,-6.1701,-6.1701,-6.1701,-6.1701,-6.1701,-6.1701,-6.1701,-6.1701,-6.1232,-6.0881,-6.0881,-6.0393,-6.008,-6.008,-5.9475,-5.9241,-5.9573,-5.9592,-5.9749,-6.008,-6.0607,-6.0881,-6.0881,-6.1427,-6.1701,-6.1701,-6.1701,-6.1701,-6.1701,-6.1701,-6.1701,0.0,-3.8402,-3.9123,-3.9006,-3.8402,-3.7214,-3.47,-3.3609,0.0,-3.1042,-3.0716,-3.0774,-3.1031,-3.1031,-3.1685,-3.3862,0.0,0.0,0.0,0.0,0.0,0.0,0.0,0.0,0.0,0.0,0.0,0.0,0.0,0.0,0.0,0.0,-6.6795,-6.6795,-6.6795,-6.6795,-6.6795,-6.6795,-6.6795,-6.6795,-6.6806,-6.6793,-6.6793,-6.6794,0.0,0.0,0.0,0.0,0.0,-6.5757,-6.4919,-6.4121,-6.3244,-6.2403,-6.1673,-6.1615,-6.1595,-6.1595,-6.1595,-6.1595,-6.1595,-6.1601,-6.1607,-6.1614,-6.1679,-6.1707,-6.1701,-6.1701,-6.1701,-6.1701,-6.1701,-6.1701,-6.1701,-6.1701,-6.1701,-6.1701,-6.1701,-6.1701,-6.1701,-6.1701,-6.1701,-6.1701,-6.1701,-6.1701,-6.1701,-6.1701,-6.1701,-6.1701,-6.1701,-6.1701,-6.1701,-6.1701,-6.1701,-6.1701,-6.1701,-6.0217,-5.9631,-6.0432,-6.049,-6.0861,-6.1681,-6.1701,-6.1701,-6.1701,-6.1701,-6.1701,-6.1701,-6.1701,-6.1701,-6.1701,-6.1701,-6.1701,-2.9303,0.0,-3.2591,-3.1271,-3.1271,-3.1291,0.0,-3.0063,-3.0306,0.0,0.0,0.0,0.0,0.0,0.0,0.0,0.0,0.0,0.0,0.0,0.0,0.0,0.0,0.0,0.0,0.0,0.0,0.0,0.0,0.0,0.0,0.0,-6.6795,-6.6795,-6.6795,-6.6795,-6.6795,-6.6795,-6.6795,-6.6795,-6.6805,-6.6809,-6.6789,-6.6797,0.0,0.0,0.0,0.0,-6.6634,-6.5757,-6.529,-6.4958,-6.3478,-6.2766,-6.2511,-6.1849,-6.1595,-6.1595,-6.1595,-6.1595,-6.1603,-6.1609,-6.1607,-6.1592,-6.1616,-6.166,-6.1709,-6.1705,-6.1701,-6.1701,-6.1701,-6.1701,-6.1701,-6.1701,-6.1701,-6.1701,-6.1701,-6.1701,-6.1701,-6.1701,-6.1701,-6.1701,-6.1701,-6.1701,-6.1701,-6.1701,-6.1701,-6.1701,-6.1701,-6.1701,-6.1701,-6.1701,-6.1701,-6.1701,-6.1701,-6.133,-6.1174,-6.1388,-6.1388,-6.1486,-6.1701,-6.1701,-6.1701,-6.1701,-6.1701,-6.1701,-6.1701,-6.1701,-6.1701,-6.1701,-6.1701,-6.1701,-2.6342,-2.9109,-3.1778,-3.0823,-3.1213,-3.1724,-3.127,0.0,0.0,0.0,0.0,0.0,0.0,0.0,0.0,0.0,0.0,0.0,0.0,0.0,0.0,0.0,0.0,0.0,0.0,0.0,0.0,0.0,0.0,0.0,0.0,0.0,-6.6795,-6.6795,-6.6795,-6.6795,-6.6795,-6.6795,-6.6805,-6.68,-6.6805,-6.6805,-6.68,-6.6797,-6.6793,0.0,0.0,0.0,-6.6653,-6.6186,-6.5757,-6.5309,-6.4393,-6.3575,-6.2835,-6.2367,-6.1938,-6.1607,-6.1607,-6.1607,-6.1597,-6.1592,-6.1602,-6.1593,-6.1607,-6.1623,-6.1656,-6.1692,-6.1701,-6.1701,-6.1705,-6.1701,-6.1701,-6.1701,-6.1701,-6.1701,-6.1701,-6.1701,-6.1701,-6.1701,-6.1701,-6.1701,-6.1701,-6.1701,-6.1701,-6.1701,-6.1701,-6.1701,-6.1701,-6.1701,-6.1701,-6.1701,-6.1701,-6.1701,-6.1701,-6.1701,-6.1701,-6.1701,-6.1701,-6.1701,-6.1701,-6.1701,-6.1701,-6.1701,-6.1701,-6.1701,-6.1701,-6.1701,-6.1701,-6.1701,-6.1701,-6.1701,-2.6342,-3.0053,-3.3585,-3.2805,-3.3619,-3.4564,-3.4342,0.0,0.0,0.0,0.0,0.0,0.0,0.0,0.0,0.0,0.0,0.0,0.0,0.0,0.0,0.0,0.0,0.0,0.0,0.0,0.0,0.0,0.0,0.0,0.0,0.0,0.0,-6.6795,-6.6795,-6.6795,-6.6795,-6.6795,-6.6793,-6.6791,-6.6789,-6.6793,-6.6791,-6.6793,-6.6797,0.0,0.0,0.0,-6.6712,-6.6712,-6.6264,-6.5562,-6.5309,-6.4335,-6.3049,-6.2796,-6.2231,-6.1607,-6.1607,-6.1607,-6.1607,-6.1607,-6.1607,-6.1597,-6.1595,-6.1609,-6.1607,-6.1677,-6.1698,-6.1694,-6.1709,-6.1701,-6.1701,-6.1701,-6.1701,-6.1701,-6.1701,-6.1701,-6.1701,-6.1701,-6.1701,-6.1701,-6.1701,-6.1701,-6.1701,-6.1701,-6.1701,-6.1701,-6.1701,-6.1701,-6.1701,-6.1701,-6.1701,-6.1701,-6.1701,-6.1701,-6.1701,-6.1701,-6.1701,-6.1701,-6.1701,-6.1701,-6.1701,-6.1701,-6.1701,-6.1701,-6.1701,-6.1701,-6.1701,-6.1701,-6.1701,-6.1701,-2.9221,-3.2705,-3.4462,-3.0091,-3.1867,-3.4293,0.0,0.0,0.0,0.0,0.0,0.0,0.0,0.0,0.0,0.0,0.0,0.0,0.0,0.0,0.0,0.0,0.0,0.0,0.0,0.0,0.0,0.0,0.0,0.0,0.0,0.0,0.0,-6.6795,-6.6795,-6.6795,-6.6795,-6.6795,-6.68,-6.6805,-6.68,-6.68,-6.6805,-6.6808,-6.6797,0.0,0.0,-6.6697,-6.6712,-6.6712,-6.6615,-6.6361,-6.488,-6.414,-6.375,-6.2328,-6.1705,-6.1607,-6.1607,-6.1607,-6.1607,-6.1607,-6.1607,-6.1588,-6.1606,-6.1606,-6.1603,-6.1607,-6.1653,-6.1694,-6.1709,-6.1701,-6.1701,-6.1701,-6.1701,-6.1701,-6.1701,-6.1701,-6.1701,-6.1701,-6.1701,-6.1701,-6.1701,-6.1701,-6.1701,-6.1701,-6.1701,-6.1701,-6.1701,-6.1701,-6.1701,-6.1701,-6.1701,-6.1701,-6.1701,-6.1701,-6.1701,-6.1701,-6.1701,-6.1701,-6.1701,-6.1701,-6.1701,-6.1701,-6.1701,-6.1701,-6.1701,-6.1701,-6.1701,-6.1701,-6.1701,-6.1701,-2.7612,-3.1223,-3.3975,-3.16,-3.4976,-3.8764,0.0,0.0,0.0,0.0,0.0,0.0,0.0,0.0,0.0,0.0,0.0,0.0,0.0,0.0,0.0,0.0,0.0,0.0,0.0,0.0,0.0,0.0,0.0,0.0,0.0,0.0,0.0,0.0,-6.6795,-6.6795,-6.6795,-6.6795,-6.6805,-6.68,-6.6805,-6.6805,-6.6803,-6.6791,-6.6797,-6.6803,0.0,-6.67,-6.6689,-6.6689,-6.6713,-6.6622,-6.5354,-6.4573,-6.3949,-6.2232,-6.1609,-6.16,-6.16,-6.1603,-6.1607,-6.1607,-6.1607,-6.1607,-6.1607,-6.1607,-6.1606,-6.1609,-6.1619,-6.164,-6.1692,-6.1694,-6.1701,-6.1701,-6.1701,-6.1701,-6.1701,-6.1701,-6.1701,-6.1701,-6.1701,-6.1701,-6.1701,-6.1701,-6.1701,-6.1701,-6.1701,-6.1701,-6.1701,-6.1701,-6.1701,-6.1701,-6.1701,-6.1701,-6.1701,-6.1701,-6.1701,-6.1701,-6.1701,-6.1701,-6.1701,-6.1701,-6.1701,-6.1701,-6.1701,-6.1701,-6.1701,-6.1701,-6.1701,-6.1701,-6.1701,-6.1701,-2.6681,-3.0089,-3.3592,0.0,0.0,0.0,0.0,0.0,0.0,0.0,0.0,0.0,0.0,0.0,0.0,0.0,0.0,0.0,0.0,0.0,0.0,0.0,0.0,0.0,0.0,0.0,0.0,0.0,0.0,0.0,0.0,0.0,0.0,0.0,-6.6795,-6.6795,-6.6795,-6.6795,-6.6789,-6.6808,-6.6809,-6.6789,-6.6808,-6.6808,-6.6796,-6.6791,-6.6754,-6.6722,-6.6712,-6.6712,-6.6746,-6.6689,-6.5615,-6.4541,-6.3428,-6.21,-6.16,-6.1598,-6.1598,-6.1602,-6.1595,-6.1595,-6.1606,-6.1607,-6.1607,-6.1607,-6.1597,-6.1588,-6.1603,-6.1616,-6.1679,-6.1704,-6.1701,-6.1701,-6.1701,-6.1701,-6.1701,-6.1701,-6.1701,-6.1701,-6.1701,-6.1701,-6.1701,-6.1701,-6.1701,-6.1701,-6.1701,-6.1701,-6.1701,-6.1701,-6.1701,-6.1701,-6.1701,-6.1701,-6.1701,-6.1701,-6.1701,-6.1701,-6.1701,-6.1701,-6.1701,-6.1701,-6.1701,-6.1701,-6.1701,-6.1701,-6.1701,-6.1701,-6.1701,-6.1701,-6.1701,-6.1701,-2.956,-3.1894,-3.4158,-3.7343,0.0,0.0,0.0,0.0,0.0,0.0,0.0,0.0,0.0,0.0,0.0,0.0,0.0,0.0,0.0,0.0,0.0,0.0,0.0,0.0,0.0,0.0,0.0,0.0,0.0,0.0,0.0,0.0,0.0,0.0,0.0,-6.6795,-6.6795,-6.6795,-6.68,-6.68,-6.6795,-6.68,-6.68,-6.68,-6.6797,-6.6795,-6.6795,-6.6796,-6.6784,-6.6784,-6.6803,-6.663,-6.4951,-6.3271,-6.1768,-6.1651,-6.159,-6.1609,-6.1609,-6.1592,-6.1595,-6.1595,-6.16,-6.1607,-6.1607,-6.1607,-6.1607,-6.1597,-6.1601,-6.1616,-6.1679,-6.1704,-6.1701,-6.1701,-6.1701,-6.1701,-6.1701,-6.1701,-6.1701,-6.1701,-6.1701,-6.1701,-6.1701,-6.1701,-6.1701,-6.1701,-6.1701,-6.1701,-6.1701,-6.1701,-6.1701,-6.1701,-6.1701,-6.1701,-6.1701,-6.1701,-6.1701,-6.1701,-6.1701,-6.1701,-6.1701,-6.1701,-6.1701,-6.1701,-6.1701,-6.1701,-6.1701,-6.1701,-6.1701,-6.1701,-6.1701,-6.1701,-2.7285,-3.0857,-3.4656,-3.6493,0.0,0.0,0.0,0.0,0.0,0.0,0.0,0.0,0.0,0.0,0.0,0.0,0.0,0.0,0.0,0.0,0.0,0.0,0.0,0.0,0.0,0.0,0.0,0.0,0.0,0.0,0.0,0.0,0.0,0.0,0.0,-6.6795,-6.6795,-6.6795,-6.6795,-6.6795,-6.6795,-6.6795,-6.6795,-6.6795,-6.6793,-6.6794,-6.6794,-6.6796,-6.6797,-6.6797,-6.6503,-6.5871,-6.4133,-6.2727,-6.1653,-6.1653,-6.1658,-6.166,-6.166,-6.1635,-6.1596,-6.1596,-6.1593,-6.1588,-6.1588,-6.1603,-6.1607,-6.1607,-6.1601,-6.1614,-6.1638,-6.1674,-6.1701,-6.1701,-6.1701,-6.1701,-6.1701,-6.1701,-6.1701,-6.1701,-6.1701,-6.1701,-6.1701,-6.1701,-6.1701,-6.1701,-6.1701,-6.1701,-6.1701,-6.1701,-6.1701,-6.1701,-6.1701,-6.1701,-6.1701,-6.1701,-6.1701,-6.1701,-6.1701,-6.1701,-6.1701,-6.1701,-6.1701,-6.1701,-6.1701,-6.1701,-6.1701,-6.1701,-6.1701,-6.1701,-6.1701,-6.1701,-2.7242,-3.112,-3.5447,0.0,0.0,0.0,0.0,0.0,0.0,0.0,0.0,0.0,0.0,0.0,0.0,0.0,0.0,0.0,0.0,0.0,0.0,0.0,0.0,0.0,0.0,0.0,0.0,0.0,0.0,0.0,0.0,0.0,0.0,0.0,0.0,-6.6014,-6.6014,-6.6288,-6.6424,-6.6424,-6.6678,-6.6795,-6.6795,-6.6795,-6.6809,-6.6806,-6.6806,-6.6806,-6.6787,-6.6533,-6.5762,-6.4667,-6.3477,-6.2462,-6.1701,-6.1701,-6.1694,-6.169,-6.169,-6.1679,-6.1638,-6.1638,-6.1626,-6.1598,-6.1607,-6.1595,-6.1603,-6.1603,-6.1607,-6.1592,-6.1637,-6.1674,-6.1701,-6.1701,-6.1701,-6.1701,-6.1701,-6.1701,-6.1701,-6.1701,-6.1701,-6.1701,-6.1701,-6.1701,-6.1701,-6.1701,-6.1701,-6.1701,-6.1701,-6.1701,-6.1701,-6.1701,-6.1701,-6.1701,-6.1701,-6.1701,-6.1701,-6.1701,-6.1701,-6.1701,-6.1701,-6.1701,-6.1701,-6.1701,-6.1701,-6.1701,-6.1701,-6.1701,-6.1701,-6.1701,-6.1701,-6.1701,-3.0567,-3.3358,0.0,0.0,0.0,0.0,0.0,0.0,0.0,0.0,0.0,0.0,0.0,0.0,0.0,0.0,0.0,0.0,0.0,0.0,0.0,0.0,0.0,0.0,0.0,0.0,0.0,0.0,0.0,0.0,0.0,0.0,0.0,0.0,0.0,0.0,-6.4297,-6.5155,-6.5585,-6.5604,-6.6405,-6.6776,-6.6795,-6.6795,-6.6795,-6.6795,-6.6795,-6.6795,-6.6737,-6.5917,-6.455,-6.3008,-6.2989,-6.2462,-6.1701,-6.1701,-6.1701,-6.1701,-6.1701,-6.1701,-6.1697,-6.1697,-6.1659,-6.1606,-6.1598,-6.1601,-6.1601,-6.1601,-6.1592,-6.1616,-6.1679,-6.1704,-6.1701,-6.1701,-6.1701,-6.1701,-6.1701,-6.1701,-6.1701,-6.1701,-6.1701,-6.1701,-6.1701,-6.1701,-6.1701,-6.1701,-6.1701,-6.1701,-6.1701,-6.1701,-6.1701,-6.1701,-6.1701,-6.1701,-6.1701,-6.1701,-6.1701,-6.1701,-6.1701,-6.1701,-6.1701,-6.1701,-6.1701,-6.1701,-6.1701,-6.1701,-6.1701,-6.1701,-6.1701,-6.1701,-6.1701,-6.1701,-3.004,0.0,0.0,0.0,0.0,0.0,0.0,0.0,0.0,0.0,0.0,0.0,0.0,0.0,0.0,0.0,0.0,0.0,0.0,0.0,0.0,0.0,0.0,0.0,0.0,0.0,0.0,0.0,0.0,0.0,0.0,0.0,0.0,0.0,0.0,0.0,-6.4297,-6.455,-6.4687,-6.4687,-6.4921,-6.5663,-6.6795,-6.6795,-6.6795,-6.6776,-6.619,-6.5956,-6.5839,-6.4375,-6.3477,-6.293,-6.2325,-6.1935,-6.1701,-6.1701,-6.1701,-6.1701,-6.1701,-6.1705,-6.1694,-6.1694,-6.1692,-6.168,-6.1678,-6.1642,-6.1601,-6.1601,-6.1592,-6.1592,-6.1617,-6.1655,-6.1701,-6.1701,-6.1701,-6.1701,-6.1701,-6.1701,-6.1701,-6.1701,-6.1701,-6.1701,-6.1701,-6.1701,-6.1701,-6.1701,-6.1701,-6.1701,-6.1701,-6.1701,-6.1701,-6.1701,-6.1701,-6.1701,-6.1701,-6.1701,-6.1701,-6.1701,-6.1701,-6.1701,-6.1701,-6.1701,-6.1701,-6.1701,-6.1701,-6.1701,-6.1701,-6.1701,-6.1701,-6.1701,-6.1701,-6.1701,-3.3319,0.0,0.0,0.0,0.0,0.0,0.0,0.0,0.0,0.0,0.0,0.0,0.0,0.0,0.0,0.0,0.0,0.0,0.0,0.0,0.0,0.0,0.0,0.0,0.0,0.0,0.0,0.0,0.0,0.0,0.0,0.0,0.0,0.0,0.0,0.0,-6.3262,-6.3613,-6.377,-6.3789,-6.4121,-6.4824,-6.58,-6.58,-6.58,-6.578,-6.5292,-6.4882,-6.4492,-6.3438,-6.2794,-6.2423,-6.1915,-6.1701,-6.1701,-6.1701,-6.1701,-6.1701,-6.1701,-6.1701,-6.1701,-6.1701,-6.1694,-6.1709,-6.1695,-6.1678,-6.1642,-6.1642,-6.1633,-6.1639,-6.164,-6.1668,-6.1701,-6.1701,-6.1701,-6.1701,-6.1701,-6.1701,-6.1701,-6.1701,-6.1701,-6.1701,-6.1701,-6.1701,-6.1701,-6.1701,-6.1701,-6.1701,-6.1701,-6.1701,-6.1701,-6.1701,-6.1701,-6.1701,-6.1701,-6.1701,-6.1701,-6.1701,-6.1701,-6.1701,-6.1701,-6.1701,-6.1701,-6.1701,-6.1701,-6.1701,-6.1701,-6.1701,-6.1701,-6.1701,-6.1701,-6.1701,0.0,0.0,0.0,0.0,0.0,0.0,0.0,0.0,0.0,0.0,0.0,0.0,0.0,0.0,0.0,0.0,0.0,0.0,0.0,0.0,0.0,0.0,0.0,0.0,0.0,0.0,0.0,0.0,0.0,0.0,0.0,0.0,0.0,0.0,0.0,-6.1701,-6.1701,-6.2481,-6.2872,0.0,-6.3672,-6.4062,-6.4062,-6.4238,-6.4258,-6.4179,-6.4179,-6.3691,-6.2872,-6.2872,-6.2403,-6.1701,-6.1701,-6.1701,-6.1701,-6.1701,-6.1701,-6.1701,-6.1701,-6.1701,-6.1701,-6.1701,-6.1701,-6.1705,-6.1692,-6.1697,-6.1697,-6.1697,-6.1697,-6.1695,-6.1694,-6.1701,-6.1701,-6.1701,-6.1701,-6.1701,-6.1701,-6.1701,-6.1701,-6.1701,-6.1701,-6.1701,-6.1701,-6.1701,-6.1701,-6.1701,-6.1701,-6.1701,-6.1701,-6.1701,-6.1701,-6.1701,-6.1701,-6.1701,-6.1701,-6.1701,-6.1701,-6.1701,-6.1701,-6.1701,-6.1701,-6.1701,-6.1701,-6.1701,-6.1701,-6.1701,-6.1701,-6.1701,-6.1701,-6.1701,-6.1701,-6.1701,0.0,0.0,0.0,0.0,0.0,0.0,0.0,0.0,0.0,0.0,0.0,0.0,0.0,0.0,0.0,0.0,0.0,0.0,0.0,0.0,0.0,0.0,0.0,0.0,0.0,0.0,0.0,0.0,0.0,0.0,0.0,0.0,0.0,0.0,-6.1701,-6.1701,-6.1701,-6.1896,-6.1974,0.0,-6.2169,-6.2267,-6.2306,-6.3672,-6.3926,-6.3282,-6.3282,-6.2794,-6.1974,-6.1974,-6.1876,-6.1701,-6.1701,-6.1701,-6.1701,-6.1701,-6.1701,-6.1701,-6.1701,-6.1701,-6.1701,-6.1701,-6.1701,-6.1701,-6.1709,-6.1707,-6.1697,-6.1697,-6.1697,-6.1697,-6.1694,-6.1701,-6.1701,-6.1701,-6.1701,-6.1701,-6.1701,-6.1701,-6.1701,-6.1701,-6.1701,-6.1701,-6.1701,-6.1701,-6.1701,-6.1701,-6.1701,-6.1701,-6.1701,-6.1701,-6.1701,-6.1701,-6.1701,-6.1701,-6.1701,-6.1701,-6.1701,-6.1701,-6.1701,-6.1701,-6.1701,-6.1701,-6.1701,-6.1701,-6.1701,-6.1701,-6.1701,-6.1701,-6.1701,-6.1701,-6.1701,-6.1701,0.0,0.0,0.0,0.0,0.0,0.0,0.0,0.0,0.0,0.0,0.0,0.0,0.0,0.0,0.0,0.0,0.0,0.0,0.0,0.0,0.0,0.0,0.0,0.0,0.0,0.0,0.0,0.0,0.0,0.0,0.0,0.0,0.0,0.0,-6.1701,-6.1701,-6.1701,-6.1701,-6.1701,-6.1701,-6.1701,-6.1701,-6.174,-6.2637,-6.2813,-6.2384,-6.2384,-6.213,-6.1701,-6.1701,-6.1701,-6.1701,-6.1701,-6.1701,-6.1701,-6.1701,-6.1701,-6.1701,-6.1701,-6.1701,-6.1701,-6.1701,-6.1701,-6.1701,-6.1701,-6.1694,-6.1704,-6.1704,-6.1704,-6.1704,-6.1704,-6.1694,-6.1701,-6.1701,-6.1701,-6.1701,-6.1701,-6.1701,-6.1701,-6.1701,-6.1701,-6.1701,-6.1701,-6.1701,-6.1701,-6.1701,-6.1701,-6.1701,-6.1701,-6.1701,-6.1701,-6.1701,-6.1701,-6.1701,-6.1701,-6.1701,-6.1701,-6.1701,-6.1701,-6.1701,-6.1701,-6.1701,-6.1701,-6.1701,-6.1701,-6.1701,-6.1701,-6.1701,-6.1701,-6.1701,-6.1701,-6.1701,0.0,0.0,0.0,0.0,0.0,0.0,0.0,0.0,0.0,0.0,0.0,0.0,0.0,0.0,0.0,0.0,0.0,0.0,0.0,0.0,0.0,0.0,0.0,0.0,0.0,0.0,0.0,0.0,0.0,0.0,0.0,0.0,-6.1701,-6.1701,-6.1701,-6.1701,-6.1701,-6.1701,-6.1701,-6.1701,-6.1701,-6.1701,-6.1701,-6.1701,-6.1701,-6.1701,-6.1701,-6.1701,-6.1701,-6.1701,-6.1701,-6.1701,-6.1701,-6.1701,-6.1701,-6.1701,-6.1701,-6.1701,-6.1701,-6.1701,-6.1701,-6.1701,-6.1701,-6.1701,-6.1701,-6.1701,-6.1701,-6.1701,-6.1701,-6.1701,-6.1701,-6.1701,-6.1701,-6.1701,-6.1701,-6.1701,-6.1701,-6.1701,-6.1701,-6.1701,-6.1701,-6.1701,-6.1701,-6.1701,-6.1701,-6.1701,-6.1701,-6.1701,-6.1701,-6.1701,-6.1701,-6.1701,-6.1701,-6.1701,-6.1701,-6.1701,-6.1701,-6.1701,-6.1701,-6.1701,-6.1701,-6.1701,-6.1701,-6.1701,-6.1701,-6.1701,-6.1701,-6.1701,-6.1701,-6.1701,-6.1701,-6.1701,0.0,0.0,0.0,0.0,0.0,0.0,0.0,0.0,0.0,0.0,0.0,0.0,0.0,0.0,0.0,0.0,0.0,0.0,0.0,0.0,0.0,0.0,0.0,0.0,0.0,0.0,0.0,0.0,0.0,0.0,0.0,-6.1701,-6.1701,-6.1701,-6.1701,-6.1701,-6.1701,-6.1701,-6.1701,-6.1701,-6.1701,-6.1701,-6.1701,-6.1701,-6.1701,-6.1701,-6.1701,-6.1701,-6.1701,-6.1701,-6.1701,-6.1701,-6.1701,-6.1701,-6.1701,-6.1701,-6.1701,-6.1701,-6.1701,-6.1701,-6.1701,-6.1701,-6.1701,-6.1701,-6.1701,-6.1701,-6.1701,-6.1701,-6.1701,-6.1701,-6.1701,-6.1701,-6.1701,-6.1701,-6.1701,-6.1701,-6.1701,-6.1701,-6.1701,-6.1701,-6.1701,-6.1701,-6.1701,-6.1701,-6.1701,-6.1701,-6.1701,-6.1701,-6.1701,-6.1701,-6.1701,-6.1701,-6.1701,-6.1701,-6.1701,-6.1701,-6.1701,-6.1701,-6.1701,-6.1701,-6.1701,-6.1701,-6.1701,-6.1701,-6.1701,-6.1701,-6.1701,-6.1701,-6.1701,-6.1701,-6.1701,-6.1701,0.0,0.0,0.0,0.0,0.0,0.0,0.0,0.0,0.0,0.0,0.0,0.0,0.0,0.0,0.0,0.0,0.0,0.0,0.0,0.0,0.0,0.0,0.0,0.0,0.0,0.0,0.0,0.0,0.0,0.0,-6.1701,-6.1701,-6.1701,-6.1701,-6.1701,-6.1701,-6.1701,-6.1701,-6.1701,-6.1701,-6.1701,-6.1701,-6.1701,-6.1701,-6.1701,-6.1701,-6.1701,-6.1701,-6.1701,-6.1701,-6.1701,-6.1701,-6.1701,-6.1701,-6.1701,-6.1701,-6.1701,-6.1701,-6.1701,-6.1701,-6.1701,-6.1701,-6.1701,-6.1701,-6.1701,-6.1701,-6.1701,-6.1701,-6.1701,-6.1701,-6.1701,-6.1701,-6.1701,-6.1701,-6.1701,-6.1701,-6.1701,-6.1701,-6.1701,-6.1701,-6.1701,-6.1701,-6.1701,-6.1701,-6.1701,-6.1701,-6.1701,-6.1701,-6.1701,-6.1701,-6.1701,-6.1701,-6.1701,-6.1701,-6.1701,-6.1701,-6.1701,-6.1701,-6.1701,-6.1701,-6.1701,-6.1701,-6.1701,-6.1701,-6.1701,-6.1701,-6.1701,-6.1701,-6.1701,-6.1701,-6.1701,-6.1701,0.0,0.0,0.0,0.0,0.0,0.0,0.0,0.0,0.0,0.0,0.0,0.0,0.0,0.0,0.0,0.0,0.0,0.0,0.0,0.0,0.0,0.0,0.0,0.0,0.0,0.0,0.0,0.0,0.0,0.0,-6.1701,-6.1701,-6.1701,-6.1701,-6.1701,-6.1701,-6.1701,-6.1701,-6.1701,-6.1701,-6.1701,-6.1701,-6.1701,-6.1701,-6.1701,-6.1701,-6.1701,-6.1701,-6.1701,-6.1701,-6.1701,-6.1701,-6.1701,-6.1701,-6.1701,-6.1701,-6.1701,-6.1701,-6.1701,-6.1701,-6.1701,-6.1701,-6.1701,-6.1701,-6.1701,-6.1701,-6.1701,-6.1701,-6.1701,-6.1701,-6.1701,-6.1701,-6.1701,-6.1701,-6.1701,-6.1701,-6.1701,-6.1701,-6.1701,-6.1701,-6.1701,-6.1701,-6.1701,-6.1701,-6.1701,-6.1701,-6.1701,-6.1701,-6.1701,-6.1701,-6.1701,-6.1701,-6.1701,-6.1701,-6.1701,-6.1701,-6.1701,-6.1701,-6.1701,-6.1701,-6.1701,-6.1701,-6.1701,-6.1701,-6.1701,-6.1701,-6.1701,-6.1701,-6.1701,-6.1701,-6.1701,-6.1701,0.0,0.0,0.0,0.0,0.0,0.0,0.0,0.0,0.0,0.0,0.0,0.0,0.0,0.0,0.0,0.0,0.0,0.0,0.0,0.0,0.0,0.0,0.0,0.0,0.0,0.0,0.0,0.0,0.0,0.0,-6.1701,-6.1701,-6.1701,-6.1701,-6.1701,-6.1701,-6.1701,-6.1701,-6.1701,-6.1701,-6.1701,-6.1701,-6.1701,-6.1701,-6.1701,-6.1701,-6.1701,-6.1701,-6.1701,-6.1701,-6.1701,-6.1701,-6.1701,-6.1701,-6.1701,-6.1701,-6.1701,-6.1701,-6.1701,-6.1701,-6.1701,-6.1701,-6.1701,-6.1701,-6.1701,-6.1701,-6.1701,-6.1701,-6.1701,-6.1701,-6.1701,-6.1701,-6.1701,-6.1701,-6.1701,-6.1701,-6.1701,-6.1701,-6.1701,-6.1701,-6.1701,-6.1701,-6.1701,-6.1701,-6.1701,-6.1701,-6.1701,-6.1701,-6.1701,-6.1701,-6.1701,-6.1701,-6.1701,-6.1701,-6.1701,-6.1701,-6.1701,-6.1701,-6.1701,-6.1701,-6.1701,-6.1701,-6.1701,-6.1701,-6.1701,-6.1701,-6.1701,-6.1701,-6.1701,-6.1701,-6.1701,-6.1701,0.0,0.0,0.0,0.0,0.0,0.0,0.0,0.0,0.0,0.0,0.0,0.0,0.0,0.0,0.0,0.0,0.0,0.0,0.0,0.0,0.0,0.0,0.0,0.0,0.0,0.0,0.0,0.0,0.0,0.0,-6.1701,-6.1701,-6.1701,-6.1701,-6.1701,-6.1701,-6.1701,-6.1701,-6.1701,-6.1701,-6.1701,-6.1701,-6.1701,-6.1701,-6.1701,-6.1701,-6.1701,-6.1701,-6.1701,-6.1701,-6.1701,-6.1701,-6.1701,-6.1701,-6.1701,-6.1701,-6.1701,-6.1701,-6.1701,-6.1701,-6.1701,-6.1701,-6.1701,-6.1701,-6.1701,-6.1701,-6.1701,-6.1701,-6.1701,-6.1701,-6.1701,-6.1701,-6.1701,-6.1701,-6.1701,-6.1701,-6.1701,-6.1701,-6.1701,-6.1701,-6.1701,-6.1701,-6.1701,-6.1701,-6.1701,-6.1701,-6.1701,-6.1701,-6.1701,-6.1701,-6.1701,-6.1701,-6.1701,-6.1701,-6.1701,-6.1701,-6.1701,-6.1701,-6.1701,-6.1701,-6.1701,-6.1701,-6.1701,-6.1701,-6.1701,-6.1701,-6.1701,-6.1701,-6.1701,-6.1701,-6.1701,-6.1701,0.0,0.0,0.0,0.0,0.0,0.0,0.0,0.0,0.0,0.0,0.0,0.0,0.0,0.0,0.0,0.0,0.0,0.0,0.0,0.0,0.0,0.0,0.0,0.0,0.0,0.0,0.0,0.0,0.0,0.0,-6.1701,-6.1701,-6.1701,-6.1701,-6.1701,-6.1701,-6.1701,-6.1701,-6.1701,-6.1701,-6.1701,-6.1701,-6.1701,-6.1701,-6.1701,-6.1701,-6.1701,-6.1701,-6.1701,-6.1701,-6.1701,-6.1701,-6.1701,-6.1701,-6.1701,-6.1701,-6.1701,-6.1701,-6.1701,-6.1701,-6.1701,-6.1701,-6.1701,-6.1701,-6.1701,-6.1701,-6.1701,-6.1701,-6.1701,-6.1701,-6.1701,-6.1701,-6.1701,-6.1701,-6.1701,-6.1701,-6.1701,-6.1701,-6.1701,-6.1701,-6.1701,-6.1701,-6.1701,-6.1701,-6.1701,-6.1701,-6.1701,-6.1701,-6.1701,-6.1701,-6.1701,-6.1701,-6.1701,-6.1701,-6.1701,-6.1701,-6.1701,-6.1701,-6.1701,-6.1701,-6.1701,-6.1701,-6.1701,-6.1701,-6.1701,-6.1701,-6.1701,-6.1701,-6.1701,-6.1701,-6.1701,-6.1701,0.0,0.0,0.0,0.0,0.0,0.0,0.0,0.0,0.0,0.0,0.0,0.0,0.0,0.0,0.0,0.0,0.0,0.0,0.0,0.0,0.0,0.0,0.0,0.0,0.0,0.0,0.0,0.0,0.0,-6.1701,-6.1701,-6.1701,-6.1701,-6.1701,-6.1701,-6.1701,-6.1701,-6.1701,-6.1701,-6.1701,-6.1701,-6.1701,-6.1701,-6.1701,-6.1701,-6.1701,-6.1701,-6.1701,-6.1701,-6.1701,-6.1701,-6.1701,-6.1701,-6.1701,-6.1701,-6.1701,-6.1701,-6.1701,-6.1701,-6.1701,-6.1701,-6.1701,-6.1701,-6.1701,-6.1701,-6.1701,-6.1701,-6.1701,-6.1701,-6.1701,-6.1701,-6.1701,-6.1701,-6.1701,-6.1701,-6.1701,-6.1701,-6.1701,-6.1701,-6.1701,-6.1701,-6.1701,-6.1701,-6.1701,-6.1701,-6.1701,-6.1701,-6.1701,-6.1701,-6.1701,-6.1701,-6.1701,-6.1701,-6.1701,-6.1701,-6.1701,-6.1701,-6.1701,-6.1701,-6.1701,-6.1701,-6.1701,-6.1701,-6.1701,-6.1701,-6.1701,-6.1701,-6.1701,-6.1701,-6.1701,-6.1701,-6.1701,-2.4514,0.0,0.0,0.0,0.0,0.0,0.0,0.0,0.0,0.0,0.0,0.0,0.0,0.0,0.0,0.0,0.0,0.0,0.0,0.0,0.0,0.0,0.0,0.0,0.0,0.0,0.0,0.0,-6.1349,-6.1701,-6.1701,-6.1701,-6.1701,-6.1701,-6.1701,-6.1701,-6.1701,-6.1701,-6.1701,-6.1701,-6.1701,-6.1701,-6.1701,-6.1701,-6.1701,-6.1701,-6.1701,-6.1701,-6.1701,-6.1701,-6.1701,-6.1701,-6.1701,-6.1701,-6.1701,-6.1701,-6.1701,-6.1701,-6.1701,-6.1701,-6.1701,-6.1701,-6.1701,-6.1701,-6.1701,-6.1701,-6.1701,-6.1701,-6.1701,-6.1701,-6.1701,-6.1701,-6.1701,-6.1701,-6.1701,-6.1701,-6.1701,-6.1701,-6.1701,-6.1701,-6.1701,-6.1701,-6.1701,-6.1701,-6.1701,-6.1701,-6.1701,-6.1701,-6.1701,-6.1701,-6.1701,-6.1701,-6.1701,-6.1701,-6.1701,-6.1701,-6.1701,-6.1701,-6.1701,-6.1701,-6.1701,-6.1701,-6.1701,-6.1701,-6.1701,-6.1701,-6.1701,-6.1701,-6.1701,-6.1701,-6.1701,-6.1701,0.0,0.0,0.0,0.0,0.0,0.0,0.0,0.0,0.0,0.0,0.0,0.0,0.0,0.0,0.0,0.0,0.0,0.0,0.0,0.0,0.0,0.0,0.0,0.0,0.0,0.0,0.0,0.0,-6.0666,-6.133,-6.1681,-6.1701,-6.1701,-6.1701,-6.1701,-6.1701,-6.1701,-6.1701,-6.1701,-6.1701,-6.1701,-6.1701,-6.1701,-6.1701,-6.1701,-6.1701,-6.1701,-6.1701,-6.1701,-6.1701,-6.1701,-6.1701,-6.1701,-6.1701,-6.1701,-6.1701,-6.1701,-6.1701,-6.1701,-6.1701,-6.1701,-6.1701,-6.1701,-6.1701,-6.1701,-6.1701,-6.1701,-6.1701,-6.1701,-6.1701,-6.1701,-6.1701,-6.1701,-6.1701,-6.1701,-6.1701,-6.1701,-6.1701,-6.1701,-6.1701,-6.1701,-6.1701,-6.1701,-6.1701,-6.1701,-6.1701,-6.1701,-6.1701,-6.1701,-6.1701,-6.1701,-6.1701,-6.1701,-6.1701,-6.1701,-6.1701,-6.1701,-6.1701,-6.1701,-6.1701,-6.1701,-6.1701,-6.1701,-6.1701,-6.1701,-6.1701,-6.1701,-6.1701,-6.1701,-6.1701,-6.1701,-6.1701,0.0,-3.0899,0.0,0.0,0.0,0.0,0.0,-3.5349,0.0,0.0,0.0,0.0,0.0,0.0,0.0,0.0,0.0,0.0,0.0,0.0,0.0,0.0,0.0,0.0,0.0,0.0,-5.887,-5.8948,-5.9768,-6.0646,-6.1505,-6.1564,-6.1603,-6.1701,-6.1701,-6.1701,-6.1701,-6.1701,-6.1701,-6.1701,-6.1701,-6.1701,-6.1701,-6.1701,-6.1701,-6.1701,-6.1701,-6.1701,-6.1701,-6.1701,-6.1701,-6.1701,-6.1701,-6.1701,-6.1701,-6.1701,-6.1701,-6.1701,-6.1701,-6.1701,-6.1701,-6.1701,-6.1701,-6.1701,-6.1701,-6.1701,-6.1701,-6.1701,-6.1701,-6.1701,-6.1701,-6.1701,-6.1701,-6.1701,-6.1701,-6.1701,-6.1701,-6.1701,-6.1701,-6.1701,-6.1701,-6.1701,-6.1701,-6.1701,-6.1701,-6.1701,-6.1701,-6.1701,-6.1701,-6.1701,-6.1701,-6.1701,-6.1701,-6.1701,-6.1701,-6.1701,-6.1701,-6.1701,-6.1701,-6.1701,-6.1701,-6.1701,-6.1701,-6.1701,-6.1701,-6.1701,-6.1701,-6.1701,-6.1701,-6.1701,-6.1701,-6.1701,-3.5037,-3.5389,-3.5642,0.0,0.0,0.0,0.0,-3.1875,0.0,0.0,0.0,0.0,0.0,0.0,0.0,0.0,0.0,0.0,0.0,0.0,0.0,0.0,0.0,0.0,0.0,0.0,-5.7367,-5.7992,-5.8851,-5.9729,-6.0607,-6.0646,-6.0978,-6.1681,-6.1701,-6.1701,-6.1701,-6.1701,-6.1701,-6.1701,-6.1701,-6.1701,-6.1701,-6.1701,-6.1701,-6.1701,-6.1701,-6.1701,-6.1701,-6.1701,-6.1701,-6.1701,-6.1701,-6.1701,-6.1701,-6.1701,-6.1701,-6.1701,-6.1701,-6.1701,-6.1701,-6.1701,-6.1701,-6.1701,-6.1701,-6.1701,-6.1701,-6.1701,-6.1701,-6.1701,-6.1701,-6.1701,-6.1701,-6.1701,-6.1701,-6.1701,-6.1701,-6.1701,-6.1701,-6.1701,-6.1701,-6.1701,-6.1701,-6.1701,-6.1701,-6.1701,-6.1701,-6.1701,-6.1701,-6.1701,-6.1701,-6.1701,-6.1701,-6.1701,-6.1701,-6.1701,-6.1701,-6.1701,-6.1701,-6.1701,-6.1701,-6.1701,-6.1701,-6.1701,-6.1701,-6.1701,-6.1701,-6.1701,-6.1701,-6.1701,-6.1701,-6.1701,0.0,0.0,-3.8785,-3.7028,0.0,0.0,0.0,0.0,0.0,0.0,0.0,0.0,0.0,0.0,0.0,0.0,0.0,0.0,0.0,0.0,0.0,0.0,0.0,0.0,0.0,0.0,-5.5357,-5.7074,-5.7601,-5.8402,-5.969,-5.9749,-6.0159,-6.1017,-6.1056,-6.1252,-6.1701,-6.1701,-6.1701,-6.1701,-6.1701,-6.1701,-6.1701,-6.1701,-6.1701,-6.1701,-6.1701,-6.1701,-6.1701,-6.1701,-6.1701,-6.1701,-6.1701,-6.1701,-6.1701,-6.1701,-6.1701,-6.1701,-6.1701,-6.1701,-6.1701,-6.1701,-6.1701,-6.1701,-6.1701,-6.1701,-6.1701,-6.1701,-6.1701,-6.1701,-6.1701,-6.1701,-6.1701,-6.1701,-6.1701,-6.1701,-6.1701,-6.1701,-6.1701,-6.1701,-6.1701,-6.1701,-6.1701,-6.1701,-6.1701,-6.1701,-6.1701,-6.1701,-6.1701,-6.1701,-6.1701,-6.1701,-6.1701,-6.1701,-6.1701,-6.1701,-6.1701,-6.1701,-6.1701,-6.1701,-6.1701,-6.1701,-6.1701,-6.1701,-6.1701,-6.1701,-6.1701,-6.1701,-6.1701,-6.1701,-6.1701,-6.1701,0.0,0.0,0.0,0.0,0.0,-3.7731,0.0,0.0,0.0,-3.7789,0.0,0.0,0.0,0.0,0.0,0.0,0.0,0.0,0.0,0.0,0.0,0.0,0.0,0.0,0.0,0.0,-5.2878,-5.565,-5.5376,-5.6138,-5.8499,-5.8616,-5.9085,-6.0119,-6.0315,-6.0744,-6.1447,-6.1622,-6.1701,-6.1701,-6.1701,-6.1701,-6.1701,-6.1701,-6.1701,-6.1701,-6.1701,-6.1701,-6.1701,-6.1701,-6.1701,-6.1701,-6.1701,-6.1701,-6.1701,-6.1701,-6.1701,-6.1701,-6.1701,-6.1701,-6.1701,-6.1701,-6.1701,-6.1701,-6.1701,-6.1701,-6.1701,-6.1701,-6.1701,-6.1701,-6.1701,-6.1701,-6.1701,-6.1701,-6.1701,-6.1701,-6.1701,-6.1701,-6.1701,-6.1701,-6.1701,-6.1701,-6.1701,-6.1701,-6.1701,-6.1701,-6.1701,-6.1701,-6.1701,-6.1701,-6.1701,-6.1701,-6.1701,-6.1701,-6.1701,-6.1701,-6.1701,-6.1701,-6.1701,-6.1701,-6.1701,-6.1701,-6.1701,-6.1701,-6.1701,-6.1701,-6.1701,-6.1701,-6.1701,-6.1701,-6.1701,-6.1701,0.0,0.0,0.0,0.0,-4.306,0.0,0.0,0.0,-3.7048,-3.3671,0.0,0.0,0.0,0.0,0.0,0.0,0.0,0.0,0.0,0.0,0.0,0.0,0.0,0.0,0.0,0.0,0.0,-5.2897,-5.1004,-5.1785,-5.6626,-5.6879,-5.7601,-5.9202,-6.0002,-6.0451,-6.0549,-6.131,-6.1701,-6.1701,-6.1701,-6.1701,-6.1701,-6.1701,-6.1701,-6.1701,-6.1701,-6.1701,-6.1701,-6.1701,-6.1701,-6.1701,-6.1701,-6.1701,-6.1701,-6.1701,-6.1701,-6.1701,-6.1701,-6.1701,-6.1701,-6.1701,-6.1701,-6.1701,-6.1701,-6.1701,-6.1701,-6.1701,-6.1701,-6.1701,-6.1701,-6.1701,-6.1701,-6.1701,-6.1701,-6.1701,-6.1701,-6.1701,-6.1701,-6.1701,-6.1701,-6.1701,-6.1701,-6.1701,-6.1701,-6.1701,-6.1701,-6.1701,-6.1701,-6.1701,-6.1701,-6.1701,-6.1701,-6.1701,-6.1701,-6.1701,-6.1701,-6.1701,-6.1701,-6.1701,-6.1701,-6.1701,-6.1701,-6.1701,-6.1701,-6.1701,-6.1701,-6.1701,-6.1701,-6.1701,-6.1701,-6.1701,0.0,0.0,0.0,0.0,0.0,0.0,-3.7575,0.0,-3.6989,0.0,0.0,0.0,0.0,0.0,0.0,0.0,0.0,0.0,0.0,0.0,0.0,0.0,0.0,0.0,0.0,0.0,0.0,0.0,0.0,-4.9618,-5.481,-5.5083,-5.6098,-5.8285,-5.8695,-5.9378,-6.0393,-6.0764,-6.1193,-6.1701,-6.1701,-6.1701,-6.1701,-6.1701,-6.1701,-6.1701,-6.1701,-6.1701,-6.1701,-6.1701,-6.1701,-6.1701,-6.1701,-6.1701,-6.1701,-6.1701,-6.1701,-6.1701,-6.1701,-6.1701,-6.1701,-6.1701,-6.1701,-6.1701,-6.1701,-6.1701,-6.1701,-6.1701,-6.1701,-6.1701,-6.1701,-6.1701,-6.1701,-6.1701,-6.1701,-6.1701,-6.1701,-6.1701,-6.1701,-6.1701,-6.1701,-6.1701,-6.1701,-6.1701,-6.1701,-6.1701,-6.1701,-6.1701,-6.1701,-6.1701,-6.1701,-6.1701,-6.1701,-6.1701,-6.1701,-6.1701,-6.1701,-6.1701,-6.1701,-6.1701,-6.1701,-6.1701,-6.1701,-6.1701,-6.1701,-6.1701,-6.1701,-6.1701,-6.1701,-6.1701,-6.1701,-6.1701,-4.6944,0.0,0.0,0.0,0.0,0.0,0.0,0.0,0.0,0.0,0.0,0.0,0.0,0.0,0.0,0.0,0.0,0.0,0.0,0.0,0.0,0.0,0.0,0.0,0.0,0.0,0.0,0.0,0.0,0.0,-5.2624,-5.3385,-5.4713,-5.7035,-5.7562,-5.8402,-5.9671,-6.0159,-6.0725,-6.1349,-6.1583,-6.1701,-6.1701,-6.1701,-6.1701,-6.1701,-6.1701,-6.1701,-6.1701,-6.1701,-6.1701,-6.1701,-6.1701,-6.1701,-6.1701,-6.1701,-6.1701,-6.1701,-6.1701,-6.1701,-6.1701,-6.1701,-6.1701,-6.1701,-6.1701,-6.1701,-6.1701,-6.1701,-6.1701,-6.1701,-6.1701,-6.1701,-6.1701,-6.1701,-6.1701,-6.1701,-6.1701,-6.1701,-6.1701,-6.1701,-6.1701,-6.1701,-6.1701,-6.1701,-6.1701,-6.1701,-6.1701,-6.1701,-6.1701,-6.1701,-6.1701,-6.1701,-6.1701,-6.1701,-6.1701,-6.1701,-6.1701,-6.1701,-6.1701,-6.1701,-6.1701,-6.1701,-6.1701,-6.1701,-6.1701,-6.1701,-6.1701,-6.1701,-6.1701,-6.1701,-6.1701,-6.1701,0.0,0.0,0.0,-4.2454,0.0,0.0,0.0,0.0,-4.0503,0.0,0.0,0.0,0.0,0.0,0.0,0.0,0.0,0.0,0.0,0.0,0.0,0.0,0.0,0.0,0.0,0.0,0.0,0.0,0.0,0.0,-4.9852,-5.1824,-5.3541,-5.5318,-5.6957,-5.7836,-5.7875,-5.9553,-6.0412,-6.0451,-6.131,-6.1701,-6.1701,-6.1701,-6.1701,-6.1701,-6.1701,-6.1701,-6.1701,-6.1701,-6.1701,-6.1701,-6.1701,-6.1701,-6.1701,-6.1701,-6.1701,-6.1701,-6.1701,-6.1701,-6.1701,-6.1701,-6.1701,-6.1701,-6.1701,-6.1701,-6.1701,-6.1701,-6.1701,-6.1701,-6.1701,-6.1701,-6.1701,-6.1701,-6.1701,-6.1701,-6.1701,-6.1701,-6.1701,-6.1701,-6.1701,-6.1701,-6.1701,-6.1701,-6.1701,-6.1701,-6.1701,-6.1701,-6.1701,-6.1701,-6.1701,-6.1701,-6.1701,-6.1701,-6.1701,-6.1701,-6.1701,-6.1701,-6.1701,-6.1701,-6.1701,-6.1701,-6.1701,-6.1701,-6.1701,-6.1701,-6.1701,-6.1701,-6.1701,-6.1701,-6.1701,-6.1701,0.0,0.0,-4.956,-4.5539,0.0,0.0,0.0,0.0,0.0,0.0,0.0,0.0,0.0,0.0,0.0,0.0,0.0,0.0,0.0,0.0,0.0,0.0,0.0,0.0,0.0,0.0,0.0,0.0,0.0,0.0,0.0,-5.0594,-5.2644,-5.4381,-5.6118,-5.725,-5.7797,-5.8968,-5.9827,-6.0412,-6.1271,-6.1701,-6.1701,-6.1701,-6.1701,-6.1701,-6.1701,-6.1701,-6.1701,-6.1701,-6.1701,-6.1701,-6.1701,-6.1701,-6.1701,-6.1701,-6.1701,-6.1701,-6.1701,-6.1701,-6.1701,-6.1701,-6.1701,-6.1701,-6.1701,-6.1701,-6.1701,-6.1701,-6.1701,-6.1701,-6.1701,-6.1701,-6.1701,-6.1701,-6.1701,-6.1701,-6.1701,-6.1701,-6.1701,-6.1701,-6.1701,-6.1701,-6.1701,-6.1701,-6.1701,-6.1701,-6.1701,-6.1701,-6.1701,-6.1701,-6.1701,-6.1701,-6.1701,-6.1701,-6.1701,-6.1701,-6.1701,-6.1701,-6.1701,-6.1701,-6.1701,-6.1701,-6.1701,-6.1701,-6.1701,-6.1701,-6.1701,-6.1701,-6.1701,-6.1701,-6.1701,-6.1701,-5.1102,-5.1433,0.0,-4.7978,-4.6768,0.0,-4.0932,0.0,0.0,0.0,0.0,0.0,0.0,0.0,0.0,0.0,0.0,0.0,0.0,0.0,0.0,0.0,0.0,0.0,0.0,0.0,-3.6208,-3.9156,0.0,0.0,0.0,0.0,-5.1746,-5.3483,-5.524,-5.6547,-5.7367,-5.8207,-5.9085,-5.9944,-6.0822,-6.1408,-6.1701,-6.1701,-6.1701,-6.1701,-6.1701,-6.1701,-6.1701,-6.1701,-6.1701,-6.1701,-6.1701,-6.1701,-6.1701,-6.1701,-6.1701,-6.1701,-6.1701,-6.1701,-6.1701,-6.1701,-6.1701,-6.1701,-6.1701,-6.1701,-6.1701,-6.1701,-6.1701,-6.1701,-6.1701,-6.1701,-6.1701,-6.1701,-6.1701,-6.1701,-6.1701,-6.1701,-6.1701,-6.1701,-6.1701,-6.1701,-6.1701,-6.1701,-6.1701,-6.1701,-6.1701,-6.1701,-6.1701,-6.1701,-6.1701,-6.1701,-6.1701,-6.1701,-6.1701,-6.1701,-6.1701,-6.1701,-6.1701,-6.1701,-6.1701,-6.1701,-6.1701,-6.1701,-6.1701,-6.1701,-6.1701,-6.1701,-6.1701,-6.1701,-6.1701,-6.1701]}]]